[[{"header":{"parameterUnit":"m.s-1","parameterCategory":1,"la1":30.6,"la2":28.766,"lo1":-90.7593,"lo2":-88.6598,"dx":0.0162,"dy":0.0183,"nx":116,"ny":114,"refTime":"2023-01-05T18:00:00:Z","depth":0,"parameterNumber":2,"parameterNumberName":"U-component_of_WINDS"},"data":[0.0,0.0,0.0,0.0,0.0,0.0,0.0,0.0,0.0,0.0,0.0,0.0,0.0,0.0,0.0,0.0,0.0,0.0,0.0,0.0,0.0,0.0,0.0,0.0,0.0,0.0,0.0,0.0,0.0,0.0,0.0,0.0,0.0,0.0,0.0,0.0,0.0,0.0,0.0,0.0,0.0,0.0,0.0,0.0,0.0,0.0,0.0,0.0,0.0,0.0,0.0,0.0,0.0,0.0,0.0,0.0,0.0,0.0,0.0,0.0,0.0,0.0,0.0,0.0,0.0,0.0,0.0,0.0,0.0,0.0,0.0,0.0,0.0,0.0,0.0,0.0,0.0,0.0,0.0,0.0,0.0,0.0,0.0,0.0,0.0,0.0,0.0,0.0,0.0,0.0,0.0,0.0,0.0,0.0,0.0,0.0,0.0,0.0,0.0,0.0,0.0,0.0,0.0,0.0,0.0,0.0,0.0,0.0,0.0,0.0,0.0,0.0,0.0,0.0,0.0,0.0,0.0,0.0,0.0,0.0,0.0,0.0,0.0,0.0,0.0,0.0,0.0,0.0,0.0,0.0,0.0,0.0,0.0,0.0,0.0,0.0,0.0,0.0,0.0,0.0,0.0,0.0,0.0,0.0,0.0,0.0,0.0,0.0,0.0,0.0,0.0,0.0,0.0,0.0,0.0,0.0,0.0,0.0,0.0,0.0,0.0,0.0,0.0,0.0,0.0,0.0,0.0,0.0,0.0,0.0,0.0,0.0,0.0,0.0,0.0,0.0,0.0,0.0,0.0,0.0,0.0,0.0,0.0,0.0,0.0,0.0,0.0,0.0,0.0,0.0,0.0,0.0,0.0,0.0,0.0,0.0,0.0,0.0,0.0,0.0,0.0,0.0,0.0,0.0,0.0,0.0,0.0,0.0,0.0,0.0,0.0,0.0,0.0,0.0,0.0,0.0,0.0,0.0,0.0,0.0,0.0,0.0,0.0,0.0,0.0,0.0,0.0,0.0,0.0,0.0,0.0,0.0,0.0,0.0,0.0,0.0,0.0,0.0,0.0,0.0,0.0,0.0,0.0,0.0,0.0,0.0,0.0,0.0,0.0,0.0,0.0,0.0,0.0,0.0,0.0,0.0,0.0,0.0,0.0,0.0,0.0,0.0,0.0,0.0,0.0,0.0,0.0,0.0,0.0,0.0,0.0,0.0,0.0,0.0,0.0,0.0,0.0,0.0,0.0,0.0,0.0,0.0,0.0,0.0,0.0,0.0,0.0,0.0,0.0,0.0,0.0,0.0,0.0,0.0,0.0,0.0,0.0,0.0,0.0,0.0,0.0,0.0,0.0,0.0,0.0,0.0,0.0,0.0,0.0,0.0,0.0,0.0,0.0,0.0,0.0,0.0,0.0,0.0,0.0,0.0,0.0,0.0,0.0,0.0,0.0,0.0,0.0,0.0,0.0,0.0,0.0,0.0,0.0,0.0,0.0,0.0,0.0,0.0,0.0,0.0,0.0,0.0,0.0,0.0,0.0,0.0,0.0,0.0,0.0,0.0,0.0,0.0,0.0,0.0,0.0,0.0,0.0,0.0,0.0,0.0,0.0,0.0,0.0,0.0,0.0,0.0,0.0,0.0,0.0,0.0,0.0,0.0,0.0,0.0,0.0,0.0,0.0,0.0,0.0,0.0,0.0,0.0,0.0,0.0,0.0,0.0,0.0,0.0,0.0,0.0,0.0,0.0,0.0,0.0,0.0,0.0,0.0,0.0,0.0,0.0,0.0,0.0,0.0,0.0,0.0,0.0,0.0,0.0,0.0,0.0,0.0,0.0,0.0,0.0,0.0,0.0,0.0,0.0,0.0,0.0,0.0,0.0,0.0,0.0,0.0,0.0,0.0,0.0,0.0,0.0,0.0,0.0,0.0,0.0,0.0,0.0,0.0,0.0,0.0,0.0,0.0,0.0,0.0,0.0,0.0,0.0,0.0,0.0,0.0,0.0,0.0,0.0,0.0,0.0,0.0,0.0,0.0,0.0,0.0,0.0,0.0,0.0,0.0,0.0,0.0,0.0,0.0,0.0,0.0,0.0,0.0,0.0,0.0,0.0,0.0,0.0,0.0,0.0,0.0,0.0,0.0,0.0,0.0,0.0,0.0,0.0,0.0,0.0,0.0,0.0,0.0,0.0,0.0,0.0,0.0,0.0,0.0,0.0,0.0,0.0,0.0,0.0,0.0,0.0,0.0,0.0,0.0,0.0,0.0,0.0,0.0,0.0,0.0,0.0,0.0,0.0,0.0,0.0,0.0,0.0,0.0,0.0,0.0,0.0,0.0,0.0,0.0,0.0,0.0,0.0,0.0,0.0,0.0,0.0,0.0,0.0,0.0,0.0,0.0,0.0,0.0,0.0,0.0,0.0,0.0,0.0,0.0,0.0,0.0,0.0,0.0,0.0,0.0,0.0,0.0,0.0,0.0,0.0,0.0,0.0,0.0,0.0,0.0,0.0,0.0,0.0,0.0,0.0,0.0,0.0,0.0,0.0,0.0,0.0,0.0,0.0,0.0,0.0,0.0,0.0,0.0,0.0,0.0,0.0,0.0,0.0,0.0,0.0,0.0,0.0,0.0,0.0,0.0,0.0,0.0,0.0,0.0,0.0,0.0,0.0,0.0,0.0,0.0,0.0,0.0,0.0,0.0,0.0,0.0,0.0,0.0,0.0,0.0,0.0,0.0,0.0,0.0,0.0,0.0,0.0,0.0,0.0,0.0,0.0,0.0,0.0,0.0,0.0,0.0,0.0,0.0,0.0,0.0,0.0,0.0,0.0,0.0,0.0,0.0,0.0,0.0,0.0,0.0,0.0,0.0,0.0,0.0,0.0,0.0,0.0,0.0,0.0,0.0,0.0,0.0,0.0,0.0,0.0,0.0,0.0,0.0,0.0,0.0,0.0,0.0,0.0,0.0,0.0,0.0,0.0,0.0,0.0,0.0,0.0,0.0,0.0,0.0,0.0,0.0,0.0,0.0,0.0,0.0,0.0,0.0,0.0,0.0,0.0,0.0,0.0,0.0,0.0,0.0,0.0,0.0,0.0,0.0,0.0,0.0,0.0,0.0,0.0,0.0,0.0,0.0,0.0,0.0,0.0,0.0,0.0,0.0,0.0,0.0,0.0,0.0,0.0,0.0,0.0,0.0,0.0,0.0,0.0,0.0,0.0,0.0,0.0,0.0,0.0,0.0,0.0,0.0,0.0,0.0,0.0,0.0,0.0,0.0,0.0,0.0,0.0,0.0,0.0,0.0,0.0,0.0,0.0,0.0,0.0,0.0,0.0,0.0,0.0,0.0,0.0,0.0,0.0,0.0,0.0,0.0,0.0,0.0,0.0,0.0,0.0,0.0,0.0,0.0,0.0,0.0,0.0,0.0,0.0,0.0,0.0,0.0,0.0,0.0,0.0,0.0,0.0,0.0,0.0,0.0,0.0,0.0,0.0,0.0,0.0,0.0,0.0,0.0,0.0,0.0,0.0,0.0,0.0,0.0,0.0,0.0,0.0,0.0,0.0,0.0,0.0,0.0,0.0,0.0,0.0,0.0,0.0,0.0,0.0,0.0,0.0,0.0,0.0,0.0,0.0,0.0,0.0,0.0,0.0,0.0,0.0,0.0,0.0,0.0,0.0,0.0,0.0,0.0,0.0,0.0,0.0,0.0,0.0,0.0,0.0,0.0,0.0,0.0,0.0,0.0,0.0,0.0,0.0,0.0,0.0,0.0,0.0,0.0,0.0,0.0,0.0,0.0,0.0,0.0,0.0,0.0,0.0,0.0,0.0,0.0,0.0,0.0,0.0,0.0,0.0,0.0,0.0,0.0,0.0,0.0,0.0,0.0,0.0,0.0,0.0,0.0,0.0,0.0,0.0,0.0,0.0,0.0,0.0,0.0,0.0,0.0,0.0,0.0,0.0,0.0,0.0,0.0,0.0,0.0,0.0,0.0,0.0,0.0,0.0,0.0,0.0,0.0,0.0,0.0,0.0,0.0,0.0,0.0,0.0,0.0,0.0,0.0,0.0,0.0,0.0,0.0,0.0,0.0,0.0,0.0,0.0,0.0,0.0,0.0,0.0,0.0,0.0,0.0,0.0,0.0,0.0,0.0,0.0,0.0,0.0,0.0,0.0,0.0,0.0,0.0,0.0,0.0,0.0,0.0,0.0,0.0,0.0,0.0,0.0,0.0,0.0,0.0,0.0,0.0,0.0,0.0,0.0,0.0,0.0,0.0,0.0,0.0,0.0,0.0,0.0,0.0,0.0,0.0,0.0,0.0,0.0,0.0,0.0,0.0,0.0,0.0,0.0,0.0,0.0,0.0,0.0,0.0,0.0,0.0,0.0,0.0,0.0,0.0,0.0,0.0,0.0,0.0,0.0,0.0,0.0,0.0,0.0,0.0,0.0,0.0,0.0,0.0,0.0,0.0,0.0,0.0,0.0,0.0,0.0,0.0,0.0,0.0,0.0,0.0,0.0,0.0,0.0,0.0,0.0,0.0,0.0,0.0,0.0,0.0,0.0,0.0,0.0,0.0,0.0,0.0,0.0,0.0,0.0,0.0,0.0,0.0,0.0,0.0,0.0,0.0,0.0,0.0,0.0,0.0,0.0,0.0,0.0,0.0,0.0,0.0,0.0,0.0,0.0,0.0,0.0,0.0,0.0,0.0,0.0,0.0,0.0,0.0,0.0,0.0,0.0,0.0,0.0,0.0,0.0,0.0,0.0,0.0,0.0,0.0,0.0,0.0,0.0,0.0,0.0,0.0,0.0,0.0,0.0,0.0,0.0,0.0,0.0,0.0,0.0,0.0,0.0,0.0,0.0,0.0,0.0,0.0,0.0,0.0,0.0,0.0,0.0,0.0,0.0,0.0,0.0,0.0,0.0,0.0,0.0,0.0,0.0,0.0,0.0,0.0,0.0,0.0,0.0,0.0,0.0,0.0,0.0,0.0,0.0,0.0,0.0,0.0,0.0,0.0,0.0,0.0,0.0,0.0,0.0,0.0,0.0,0.0,0.0,0.0,0.0,0.0,0.0,0.0,0.0,0.0,0.0,0.0,0.0,0.0,0.0,0.0,0.0,0.0,0.0,0.0,0.0,0.0,0.0,0.0,0.0,0.0,0.0,0.0,0.0,0.0,0.0,0.0,0.0,0.0,0.0,0.0,0.0,0.0,0.0,0.0,0.0,0.0,0.0,0.0,0.0,0.0,0.0,0.0,0.0,0.0,0.0,0.0,0.0,0.0,0.0,0.0,0.0,0.0,0.0,0.0,0.0,0.0,0.0,0.0,0.0,0.0,0.0,0.0,0.0,0.0,0.0,0.0,0.0,0.0,0.0,0.0,0.0,0.0,0.0,0.0,0.0,0.0,0.0,0.0,0.0,0.0,0.0,0.0,0.0,0.0,0.0,0.0,0.0,0.0,0.0,0.0,0.0,0.0,0.0,0.0,0.0,0.0,0.0,0.0,0.0,0.0,0.0,0.0,0.0,0.0,0.0,0.0,0.0,0.0,0.0,0.0,0.0,0.0,0.0,0.0,0.0,0.0,0.0,0.0,0.0,0.0,0.0,0.0,0.0,0.0,0.0,0.0,0.0,0.0,0.0,0.0,0.0,0.0,0.0,0.0,0.0,0.0,0.0,0.0,0.0,0.0,0.0,0.0,0.0,0.0,0.0,0.0,0.0,0.0,0.0,0.0,0.0,0.0,0.0,0.0,0.0,0.0,0.0,0.0,0.0,0.0,0.0,0.0,0.0,0.0,0.0,0.0,0.0,0.0,0.0,0.0,0.0,0.0,0.0,0.0,0.0,0.0,0.0,0.0,0.0,0.0,0.0,0.0,0.0,0.0,0.0,0.0,0.0,0.0,0.0,0.0,0.0,0.0,0.0,0.0,0.0,0.0,0.0,0.0,0.0,0.0,0.0,0.0,0.0,0.0,0.0,0.0,0.0,0.0,0.0,0.0,0.0,0.0,0.0,0.0,0.0,0.0,0.0,0.0,0.0,0.0,0.0,0.0,0.0,0.0,0.0,0.0,0.0,0.0,0.0,0.0,0.0,0.0,0.0,0.0,0.0,0.0,0.0,2.2353,2.0976,0.0,0.0,0.0,0.0,0.0,0.0,0.0,0.0,0.0,0.0,0.0,0.0,0.0,0.0,0.0,0.0,0.0,0.0,0.0,0.0,0.0,0.0,0.0,0.1675,0.1643,0.1511,0.1803,0.0,0.0,0.0,0.0,0.0,0.0,0.0,0.0,0.0,0.33,0.3789,0.3789,0.4035,0.4485,0.4411,0.4462,0.4607,0.0,0.0,0.0,0.0,0.0,0.0,0.0,0.0,0.0,0.0,0.0,0.0,0.0,0.0,0.0,0.0,0.0,0.0,0.0,0.0,0.0,0.0,0.0,0.0,0.0,0.0,0.0,0.0,0.0,0.0,0.0,0.0,0.0,0.0,0.0,0.0,0.0,0.0,0.0,0.0,0.0,0.0,0.0,0.0,0.0,0.0,0.0,0.0,0.0,0.0,0.0,0.0,0.0,0.0,0.0,0.0,0.0,0.0,0.0,0.0,0.0,0.0,0.0,0.0,0.0,0.0,0.0,0.0,0.0,0.0,2.3817,2.31,0.0,0.0,0.0,0.0,0.0,0.0,0.0,0.0,0.0,0.0,0.0,0.0,0.0,0.0,0.0,0.0,0.0,0.0,0.0,0.0,0.0,0.1148,0.1349,0.151,0.1518,0.1293,0.17,0.1772,0.133,0.1805,0.0,0.0,0.0,0.0,0.2782,0.2912,0.3236,0.3789,0.3992,0.4335,0.481,0.498,0.4865,0.4517,0.4383,0.0,0.0,0.0,0.0,0.0,0.0,0.0,0.0,0.0,0.0,0.0,0.0,0.0,0.0,0.0,0.0,0.0,0.0,0.0,0.0,0.0,0.0,0.0,0.0,0.0,0.0,0.0,0.0,0.0,0.0,0.0,0.0,0.0,0.0,0.0,0.0,0.0,0.0,0.0,0.0,0.0,0.0,0.0,0.0,0.0,0.0,0.0,0.0,0.0,0.0,0.0,0.0,0.0,0.0,0.0,0.0,0.0,0.0,0.0,0.0,0.0,0.0,0.0,2.342,2.3777,2.4464,2.4581,2.52,2.6149,2.5159,2.5418,2.632,2.4078,0.0,0.0,0.0,0.0,0.0,0.0,0.0,0.0,0.0,0.0,0.0,0.0,0.0,0.0,0.0,0.0,0.0,0.0,0.0,0.0136,0.0057,0.0527,0.0828,0.0799,0.1164,0.1498,0.1709,0.1698,0.0,0.0,0.0,0.2188,0.2378,0.2949,0.3156,0.2961,0.3947,0.4701,0.5224,0.5543,0.5589,0.5414,0.4993,0.4836,0.4877,0.0,0.0,0.0,0.0,0.0,0.0,0.0,0.0,0.0,0.0,0.0,0.0,0.0,0.0,0.0,0.0,0.0,0.0,0.0,0.0,0.0,0.0,0.0,0.0,0.0,0.0,0.0,0.0,0.0,0.0,0.0,0.0,0.0,0.0,0.0,0.0,0.0,0.0,0.0,0.0,0.0,1.3979,1.4265,0.0,0.0,0.0,0.0,0.0,0.0,0.0,0.0,0.0,0.0,0.0,0.0,0.0,2.0768,2.215,2.2914,2.3471,2.3753,2.4302,2.49,2.5519,2.6106,2.6733,2.7406,2.788,0.0,2.7619,2.6801,0.0,0.0,0.0,0.0,0.0,0.0,0.0,0.0,0.0,0.0,0.0,0.0,0.0,0.0,0.0,0.0,0.0,0.0,0.0,0.0,0.0,0.0447,0.0808,0.1071,0.1361,0.1566,0.1675,0.1523,0.0,0.0,0.1521,0.1645,0.2118,0.2455,0.2811,0.3193,0.3802,0.442,0.502,0.5177,0.5437,0.5754,0.5553,0.5343,0.5117,0.5036,0.0,0.0,0.0,0.0,0.0,0.0,0.0,0.0,0.0,0.0,0.0,0.0,0.0,0.0,0.0,0.0,0.0,0.0,0.0,0.0,0.0,0.0,0.0,0.0,0.0,0.0,0.0,0.0,0.0,0.0,0.0,0.0,0.0,0.0,0.0,0.0,0.0,0.0,0.0,1.3608,1.4096,1.4368,1.4297,1.4148,0.0,0.0,0.0,0.0,0.0,0.0,0.0,0.0,0.0,2.1233,2.137,2.204,2.3391,2.3957,2.4587,2.5269,2.5473,2.6176,2.729,2.7591,2.8076,2.8762,2.9462,2.9682,2.9432,2.8179,2.7412,2.6968,0.0,0.0,0.0,0.0,2.7263,2.7911,0.0,0.0,0.0,0.0,0.0,0.0,0.0,0.0,0.0,0.0,0.0,0.0,-0.0011,0.0504,0.0955,0.1301,0.1501,0.1608,0.1552,0.136,0.1248,0.1225,0.1087,0.1246,0.1777,0.1931,0.252,0.3574,0.3637,0.4003,0.4625,0.47,0.5131,0.5852,0.5767,0.5617,0.5441,0.5229,0.5211,0.5316,0.0,0.0,0.0,0.0,0.0,0.0,0.0,0.0,0.0,0.0,0.0,0.0,0.0,0.0,0.0,0.0,0.0,0.0,0.0,0.0,0.0,0.0,0.0,0.0,0.0,0.0,0.0,0.0,0.0,0.0,0.0,0.0,0.0,0.0,0.0,0.0,0.0,1.4149,1.4392,1.4623,1.4921,1.4964,0.0,0.0,0.0,0.0,0.0,0.0,1.919,1.9147,2.0194,2.2629,2.2704,2.3311,2.4552,2.4866,2.547,2.6358,2.6422,2.7078,2.8263,2.8768,2.9299,2.9878,3.0714,3.1152,3.1097,2.9339,2.8591,2.8542,2.8374,2.821,2.8122,2.8688,2.9151,2.9724,0.0,0.0,0.0,0.0,0.0,0.0,0.0,0.0,0.0,0.0,0.0,-0.0627,-0.0733,0.0406,0.1153,0.1113,0.1304,0.1411,0.1408,0.1216,0.1166,0.1288,0.1286,0.1264,0.1242,0.1553,0.2403,0.3785,0.3471,0.3611,0.4138,0.4399,0.495,0.5689,0.5373,0.5469,0.5857,0.5582,0.5774,0.616,0.5339,0.0,0.0,0.0,0.0,0.0,0.0,0.0,0.0,0.0,0.0,0.0,0.0,0.0,0.0,0.0,0.0,0.0,0.0,0.0,0.0,0.0,0.0,0.0,0.0,0.0,0.0,0.0,0.0,0.0,0.0,0.0,0.0,0.0,0.0,0.0,0.0,0.0,0.0,1.5609,1.6312,0.0,0.0,0.0,0.0,1.7658,1.7721,1.8711,2.103,2.1147,2.2143,2.4308,2.4378,2.475,2.5521,2.5557,2.5774,2.6216,2.6841,2.7284,2.7613,2.9527,3.0431,3.0524,3.185,3.2409,3.2282,3.0676,2.9699,2.9214,2.8762,2.8195,2.7713,2.8385,2.8651,2.8921,0.0,0.0,0.0,-0.1575,-0.1639,-0.1671,-0.1694,-0.1805,-0.1923,-0.1988,-0.163,-0.1298,-0.1084,-0.0054,0.0726,0.1007,0.1572,0.1884,0.1793,0.1555,0.1391,0.1308,0.1171,0.1242,0.1509,0.1848,0.2296,0.284,0.2711,0.3001,0.3657,0.3745,0.4483,0.5703,0.5582,0.5928,0.6567,0.6006,0.5725,0.5635,0.5318,0.5197,0.0,0.0,0.0,0.0,0.0,0.0,0.0,0.0,0.0,0.0,0.0,0.0,0.0,0.0,0.0,0.0,0.0,0.0,0.0,0.0,0.0,0.0,0.0,0.0,0.0,0.0,0.0,0.0,0.0,0.0,0.0,0.0,0.0,0.0,0.0,0.0,0.0,1.5829,1.6678,0.0,1.6734,1.7055,1.7523,1.8083,1.8165,1.9235,2.1624,2.1752,2.2648,2.4631,2.4895,2.5137,2.54,2.54,2.5776,2.6515,2.6768,2.7459,2.8564,2.9822,3.0618,3.1078,3.2076,3.2544,3.2583,3.2159,3.184,3.1634,3.1159,3.1154,3.1434,3.1659,3.1979,3.239,0.0,0.0,0.0,-0.1469,-0.1571,-0.1663,-0.1759,-0.1899,-0.1988,-0.1964,-0.1672,-0.1394,-0.122,-0.0276,0.04,0.0584,0.1138,0.139,0.1177,0.0986,0.088,0.0822,0.1017,0.1366,0.1858,0.2068,0.2214,0.2327,0.2386,0.2651,0.3138,0.3146,0.3844,0.5065,0.5007,0.5607,0.6623,0.607,0.581,0.5753,0.5496,0.539,0.5422,0.0,0.0,0.0,0.0,0.0,0.0,0.0,0.0,0.0,0.0,0.0,0.0,0.0,0.0,0.0,0.0,0.0,0.0,0.0,0.0,0.0,0.0,0.0,0.0,0.0,0.0,0.0,0.0,0.0,0.0,0.0,0.0,0.0,0.0,1.5906,1.6626,1.6302,1.7241,1.7806,1.7526,1.7861,1.8378,1.903,1.9022,1.9899,2.1939,2.2277,2.3085,2.4509,2.5224,2.5576,2.5576,2.5739,2.6227,2.6961,2.7203,2.7941,2.9143,3.0396,3.1225,3.1693,3.2709,3.32,3.327,3.3242,3.3397,3.358,3.294,3.3034,3.3499,3.3499,3.3713,3.4088,0.0,0.0,-0.1137,-0.1274,-0.1408,-0.1594,-0.1862,-0.1964,-0.1987,-0.1928,-0.1286,-0.0947,-0.1202,-0.0287,0.0197,-0.0202,-0.0033,-0.0084,-0.0489,-0.0524,-0.0394,-0.0106,0.0875,0.1663,0.2187,0.2135,0.2205,0.2409,0.2546,0.2604,0.2605,0.2665,0.3093,0.3788,0.3665,0.45,0.5998,0.5795,0.61,0.6647,0.5925,0.5979,0.6535,0.0,0.0,0.0,0.0,0.0,0.0,0.0,0.0,0.0,0.0,0.0,0.0,0.0,0.0,0.0,0.0,0.0,0.0,0.0,0.0,0.0,0.0,0.0,0.0,0.0,0.0,0.0,0.0,0.0,0.0,0.0,0.0,0.0,1.6402,1.6431,1.6684,1.7205,1.8138,1.8739,1.8749,1.9094,1.9677,2.0508,2.0343,2.0731,2.2002,2.2857,2.3541,2.4088,2.543,2.6117,2.6117,2.664,2.7104,2.7526,2.8181,2.8723,2.9173,3.133,3.2294,3.237,3.3803,3.4397,3.437,3.393,3.4196,3.4802,3.3867,3.3544,3.3559,3.3559,3.3575,3.3652,-0.0353,-0.0664,-0.0936,-0.1122,-0.1383,-0.1658,-0.1935,-0.2069,-0.2168,-0.2256,-0.1953,-0.1822,-0.2052,-0.1115,-0.0656,-0.1098,-0.0506,-0.0317,-0.0752,-0.0924,-0.0735,-0.012,0.1137,0.1898,0.2045,0.2363,0.2562,0.2617,0.2651,0.2668,0.2668,0.2684,0.3119,0.3859,0.3792,0.4674,0.6208,0.6008,0.6357,0.7011,0.642,0.6503,0.7047,0.0,0.0,0.0,0.0,0.0,0.0,0.0,0.0,0.0,0.0,0.0,0.0,0.0,0.0,0.0,0.0,0.0,0.0,0.0,0.0,0.0,0.0,0.0,0.0,0.0,0.0,0.0,0.0,0.0,0.0,0.0,1.6878,1.7146,1.6975,1.7722,1.8388,1.8685,1.923,1.9568,1.9572,1.9663,1.9824,2.0079,2.001,2.0343,2.1184,2.2592,2.3649,2.4296,2.585,2.6688,2.6688,2.6825,2.7229,2.787,2.8199,2.87,2.9378,3.1297,3.2151,3.2236,3.3754,3.4397,3.4399,3.4426,3.4622,3.4846,3.4247,3.4391,3.4951,3.4951,3.5001,3.5189,-0.0261,-0.0487,-0.0718,-0.0971,-0.1358,-0.172,-0.1967,-0.2118,-0.2234,-0.2302,-0.2213,-0.2256,-0.2542,-0.188,-0.161,-0.2094,-0.1567,-0.1402,-0.1844,-0.1871,-0.1612,-0.1055,0.0429,0.1293,0.1364,0.2079,0.2495,0.258,0.2604,0.2682,0.279,0.279,0.3011,0.3447,0.3402,0.4084,0.5302,0.552,0.6091,0.6813,0.6762,0.7099,0.7691,0.7917,0.8397,0.8969,0.9121,0.9363,0.9732,1.0397,0.0,0.0,0.0,0.0,0.0,0.0,0.0,0.0,0.0,0.0,0.0,0.0,0.0,0.0,0.0,0.0,0.0,0.0,0.0,0.0,0.0,0.0,0.0,0.0,1.7569,1.7949,1.7949,1.8564,1.9144,1.9505,1.9683,1.9853,2.0049,1.9961,1.9942,2.0059,2.0142,2.0396,2.086,2.2292,2.3504,2.4373,2.5893,2.6866,2.7222,2.7469,2.7838,2.8341,2.8535,2.8901,2.9457,3.0932,3.1783,3.2178,3.3364,3.4079,3.4414,3.4683,3.5012,3.5274,0.0,0.0,0.0,0.0,3.6188,3.6592,-0.0046,-0.0286,-0.0512,-0.0811,-0.133,-0.1778,-0.1989,-0.2125,-0.22,-0.2201,-0.2198,-0.2352,-0.2758,-0.2508,-0.2514,-0.3017,-0.2833,-0.2862,-0.3277,-0.3,-0.2687,-0.2378,-0.0821,0.0186,0.0487,0.1446,0.2093,0.2378,0.2446,0.2581,0.2829,0.2829,0.28,0.2771,0.2764,0.318,0.3971,0.4785,0.5577,0.6364,0.7007,0.7744,0.8429,0.8402,0.8974,0.9794,0.9794,1.0061,1.0523,1.1308,0.0,0.0,0.0,0.0,0.0,0.0,0.0,0.0,0.0,0.0,0.0,0.0,0.0,0.0,0.0,0.0,0.0,0.0,0.0,0.0,0.0,0.0,0.0,0.0,1.8184,1.904,1.9125,1.9125,1.9304,1.9884,1.9813,1.9872,2.0284,2.0166,2.0155,2.0371,2.0654,2.0873,2.0997,2.2301,0.0,0.0,0.0,2.7014,2.7774,2.825,2.8598,2.8791,2.9,2.9216,2.9438,3.0437,3.1304,3.2001,3.2844,3.3649,3.4414,3.4788,3.5371,3.5969,3.5609,3.5566,3.5789,3.6372,3.7042,3.7654,0.039,-0.0136,-0.0586,-0.0648,-0.1231,-0.1808,-0.2117,-0.2188,-0.22,-0.2201,-0.2198,-0.2352,-0.2758,-0.2508,-0.2624,-0.3407,-0.3295,-0.3401,-0.3977,-0.3304,-0.2859,-0.2793,-0.1538,-0.044,0.0398,0.0777,0.138,0.2231,0.2262,0.2289,0.2334,0.2334,0.2418,0.2564,0.2498,0.3032,0.4042,0.4957,0.5717,0.6381,0.7304,0.8316,0.9248,0.9078,0.9617,1.0425,1.0425,1.0178,1.0069,1.15,1.201,1.2253,1.3497,1.3898,0.0,0.0,0.0,0.0,0.0,0.0,0.0,0.0,0.0,0.0,0.0,0.0,0.0,0.0,0.0,0.0,0.0,0.0,0.0,1.8471,1.8806,1.9258,1.9955,1.9857,1.9847,2.0177,2.0342,2.043,2.0527,2.08,2.0964,2.1024,2.1723,2.2005,2.1706,2.3919,2.5145,2.504,2.7032,2.8164,2.8334,2.8442,2.8598,2.8791,2.9,0.0,2.9438,3.0437,3.0975,3.1199,3.2599,3.3593,3.4282,3.5013,3.5856,3.6706,3.6903,3.6996,3.706,3.718,3.7332,3.7528,0.0305,-0.0179,-0.0645,-0.095,-0.1529,-0.2003,-0.217,-0.2201,-0.2243,-0.2378,-0.2402,-0.2544,-0.2915,-0.2893,-0.3031,-0.3499,-0.3571,-0.3769,-0.4182,-0.3796,-0.3568,-0.3604,-0.2573,-0.1768,-0.1254,-0.0202,0.0672,0.13,0.1772,0.2064,0.2199,0.2199,0.2312,0.249,0.2464,0.2826,0.3502,0.4344,0.5139,0.593,0.6731,0.7924,0.9256,0.9326,1.0042,1.0975,1.0845,1.0604,1.0551,1.1866,1.2272,1.2458,1.3631,1.3956,1.3825,0.0,0.0,0.0,0.0,0.0,0.0,0.0,0.0,0.0,0.0,0.0,0.0,0.0,0.0,1.6551,1.7349,0.0,1.8257,1.8775,1.9112,1.9452,1.9883,2.0049,2.0147,2.0284,2.0565,2.0828,2.1041,2.155,2.1942,2.2147,2.2762,2.3057,2.2852,2.4495,2.5562,2.5841,2.7153,2.8059,2.849,2.8598,2.8705,2.8791,2.9118,2.9314,2.9419,3.0056,3.07,3.1383,3.2581,3.3668,3.4719,3.6067,3.7052,3.7696,3.8199,3.8212,3.7898,3.7898,3.8123,3.8449,-0.0011,-0.0324,-0.0671,-0.1288,-0.1839,-0.2201,-0.2201,-0.2201,-0.2269,-0.2443,-0.2478,-0.2599,-0.2933,-0.3144,-0.3334,-0.3495,-0.3677,-0.3858,-0.4022,-0.3957,-0.396,-0.4003,-0.3307,-0.2755,-0.2419,-0.0874,0.0202,0.074,0.1458,0.193,0.2199,0.2086,0.2176,0.2446,0.2446,0.2581,0.2892,0.3891,0.4738,0.5472,0.6306,0.7589,0.9037,0.9423,1.0271,1.1259,1.1199,1.1129,1.1227,1.2249,1.2692,1.2981,1.3804,1.4123,1.4151,1.3807,1.3645,0.0,0.0,0.0,0.0,0.0,0.0,0.0,0.0,1.5824,1.6265,1.6973,1.7202,1.7458,1.81,1.8587,1.8863,1.8863,1.9324,1.9676,1.9724,2.0116,2.0458,2.0604,2.0893,2.1289,2.1791,2.2394,2.29,2.322,2.374,2.4094,2.4199,2.5112,2.5997,2.6776,2.7322,2.7958,2.8647,2.8862,2.8969,2.9009,2.9404,2.955,2.9489,2.9802,3.0507,3.1552,3.2627,3.3919,3.5385,3.7121,3.8087,3.8593,3.9164,3.908,3.8586,3.8586,3.8945,3.9406,-0.0447,-0.0503,-0.0615,-0.1288,-0.1839,-0.2201,-0.2201,-0.2201,-0.2142,-0.2,-0.2035,-0.2175,-0.2453,-0.266,-0.2991,-0.3533,-0.3451,-0.3375,-0.3394,-0.3121,-0.2953,-0.296,-0.2926,-0.2195,-0.0717,-0.0471,0.0426,0.1997,0.1861,0.193,0.2199,0.1705,0.1749,0.2243,0.2243,0.2357,0.267,0.4663,0.546,0.5545,0.7165,0.8286,0.9071,0.9632,1.0246,1.0868,1.1554,1.1621,1.1516,1.2584,1.2965,1.309,1.3719,1.426,1.4597,1.4446,1.4462,1.4526,1.4398,1.4429,1.4685,1.5447,1.5905,1.635,0.0,1.7266,1.7422,1.7871,1.8247,1.854,1.8613,1.9117,1.9492,1.9492,1.9707,1.9942,2.0186,2.0582,2.1047,2.1648,2.1757,2.2108,2.2939,2.3398,2.3662,2.3711,2.4496,2.5166,2.5634,2.6882,2.7668,2.7828,2.8625,2.9106,2.9208,2.9419,2.9589,2.9783,3.0044,3.0047,2.9765,3.0274,3.0597,3.0824,3.2649,3.448,3.6231,3.7168,3.8117,3.9055,3.9307,3.9346,3.9287,3.9287,3.9331,3.9406,-0.0045,-0.0235,-0.0459,-0.1007,-0.158,-0.202,-0.2176,-0.2064,-0.1948,-0.1904,-0.1819,-0.1822,-0.1971,-0.2387,-0.2693,-0.2837,-0.3008,-0.306,-0.2903,-0.277,-0.2536,-0.2166,-0.2187,-0.1702,-0.0604,-0.0045,0.0604,0.1321,0.1793,0.2086,0.2199,0.1974,0.2042,0.2379,0.2243,0.2401,0.2829,0.4097,0.4944,0.5502,0.6701,0.7635,0.842,0.9492,1.0041,1.0367,1.1368,1.172,0.0,1.2123,1.2579,1.3076,1.3532,1.4252,1.4921,1.487,1.5056,1.5318,1.5496,1.5718,1.5982,1.6312,1.6697,1.7027,1.7128,1.7156,1.7339,1.7972,1.8237,1.8494,1.8971,1.926,1.9458,1.9586,1.9774,2.0086,2.0571,2.1137,2.186,2.2881,2.3213,2.3496,2.3857,2.431,2.4639,2.4879,2.523,2.5539,2.5768,2.7135,2.7919,2.7943,2.924,2.9944,2.9944,2.9988,3.0063,3.0143,3.0356,3.0415,3.0281,3.0821,3.1506,3.2355,3.3523,3.4888,3.6339,3.6654,3.7501,3.8575,3.8682,3.8991,3.9406,3.9406,3.9406,3.9406,0.0201,-0.0011,-0.0291,-0.0929,-0.1355,-0.1692,-0.194,-0.1817,-0.1711,-0.1751,-0.1669,-0.1632,-0.172,-0.2153,-0.2385,-0.2278,-0.2499,-0.2565,-0.2394,-0.2124,-0.1769,-0.1361,-0.1163,-0.0742,-0.0044,0.0647,0.1097,0.1299,0.1973,0.2312,0.2379,0.2267,0.2312,0.2491,0.2357,0.2626,0.3229,0.3981,0.4893,0.5888,0.6636,0.7276,0.7954,0.9363,0.9895,1.0061,1.1271,1.1804,1.1928,1.1941,1.2308,1.2817,1.318,1.3869,1.4588,1.4877,1.5382,1.5927,1.6213,1.6506,1.6754,1.6863,1.7202,1.7422,1.7138,1.6997,1.718,1.8081,1.8152,1.8296,1.9134,1.94,1.9499,1.9656,1.9872,2.0251,2.0892,2.1499,2.2384,2.3643,2.416,2.4489,2.4732,2.5068,2.5391,2.5689,2.5693,2.583,2.61,2.7123,2.7897,2.8309,2.9556,3.0338,3.0615,3.0704,3.0818,3.0967,3.1034,3.1039,3.1052,3.1449,3.2285,3.3421,3.3923,3.4827,3.5956,3.6002,3.6883,3.8202,3.8202,3.8701,3.9406,3.9406,3.9406,3.9406,-0.0045,0.0011,-0.0146,-0.1198,-0.1243,-0.1186,-0.1389,-0.1422,-0.1412,-0.1414,-0.1523,-0.1644,-0.1786,-0.1928,-0.2061,-0.2188,-0.1927,-0.1762,-0.182,-0.0916,-0.0388,-0.0427,0.0191,0.0869,0.1608,0.1709,0.2109,0.2829,0.2604,0.2627,0.2873,0.2424,0.2312,0.2491,0.2491,0.3004,0.3933,0.4937,0.5926,0.6906,0.7517,0.7784,0.7954,0.9363,0.9895,1.0078,1.1484,1.199,1.2054,1.2437,1.2366,1.2212,1.2671,1.2932,1.3268,1.4301,1.5412,1.6286,1.6296,1.6314,1.6415,1.679,1.7202,1.7513,1.7477,1.723,1.7319,1.8452,1.8265,1.8179,1.912,1.9618,1.9883,1.9883,2.0098,2.0497,2.1112,2.1591,2.2384,2.3643,2.416,2.4732,2.5567,2.5664,2.5698,2.5693,2.5693,2.6125,2.7094,2.7192,2.7873,2.9313,2.9598,3.0188,3.1162,3.1642,3.2114,3.2615,3.2301,3.2144,3.2144,3.2156,3.2525,3.3108,3.3334,3.4037,3.504,3.5244,3.6464,3.8202,3.8202,3.8701,3.9406,3.9406,3.9406,3.9406,0.0827,0.0549,0.0224,-0.0145,-0.0549,-0.0853,-0.092,-0.1088,-0.1197,-0.1197,-0.1128,0.0,0.0,0.0,0.0,0.0,-0.1485,-0.1489,-0.1276,-0.0619,-0.0037,0.0388,0.0994,0.1653,0.2337,0.2378,0.2516,0.2775,0.2666,0.2688,0.2755,0.2642,0.2617,0.2626,0.2489,0.2983,0.3964,0.4777,0.566,0.6586,0.744,0.7726,0.7759,0.917,0.9782,1.0064,0.0,1.1966,1.2166,1.2,1.2255,1.2619,1.2539,1.3053,1.3891,1.5061,1.567,1.6069,1.6569,1.6882,1.7064,1.6936,1.7202,1.7422,1.7165,1.7216,1.7358,1.7411,1.7509,1.758,1.7559,1.827,1.8877,1.9026,1.9755,2.0613,2.1542,2.2306,2.3117,2.4092,2.483,2.5386,2.5664,2.5693,2.5693,2.5693,2.5693,2.5844,2.6187,2.7474,2.8488,2.9115,3.0665,3.1721,3.2201,3.2536,3.2786,3.2961,3.2859,3.2801,3.2801,3.2801,3.2965,3.3292,3.3377,3.3789,3.4405,3.4488,3.5305,3.659,3.7121,3.7857,3.8708,3.9701,4.0068,4.0068,0.1085,0.0672,0.0303,0.0202,-0.0303,0.0,0.0,0.0,0.0,0.0,0.0,0.0,0.0,0.0,0.0,0.0,0.0,-0.1131,-0.077,-0.0232,0.035,0.0925,0.1595,0.2147,0.2544,0.2649,0.2681,0.2659,0.2681,0.2692,0.2694,0.2753,0.2752,0.2715,0.2858,0.3488,0.4478,0.5162,0.5986,0.6839,0.7324,0.7628,0.7902,0.8889,0.962,0.0,1.1206,1.1826,1.2142,1.1849,1.2004,1.2329,1.2361,1.3214,1.4376,1.5131,1.5762,1.6298,1.676,1.7092,1.722,1.6955,1.7101,1.7257,1.7138,1.6875,1.6704,1.6968,1.6813,1.6663,1.6696,1.7646,1.835,1.8169,1.9342,2.0562,2.1336,2.231,2.3301,2.4274,2.5035,2.5532,2.5698,2.5693,2.5693,2.5693,2.5693,2.5693,2.5693,2.6935,2.8062,2.8981,3.0509,3.1854,3.2987,3.3261,3.3391,3.3391,3.3571,3.3479,3.3102,3.3102,3.3176,3.3292,3.3441,3.3696,3.3971,3.4139,3.4799,3.5763,3.6475,3.7285,3.8232,3.9706,4.0408,4.0624,0.0783,0.0471,0.0157,0.0,0.0,0.0,0.0,0.0,0.0,0.0,0.0,0.0,0.0,0.0,0.0,0.0,0.0,0.0,-0.029,0.0307,0.0805,0.1185,0.1968,0.2363,0.2291,0.2549,0.2638,0.2583,0.2642,0.2672,0.2674,0.2677,0.2677,0.2716,0.3527,0.4435,0.5394,0.6006,0.6804,0.7629,0.7232,0.7548,0.8325,0.8656,0.948,1.0539,1.1093,1.1578,1.1944,1.199,1.1736,1.1525,1.2156,1.3382,1.4601,1.4655,1.5701,1.6856,1.6891,1.6908,1.6908,1.6908,1.6927,1.7037,1.7413,1.6326,1.5616,1.7043,1.6249,1.5567,1.6434,1.7671,1.8293,1.7493,1.906,2.0461,2.0699,2.1778,2.3025,2.4284,2.4857,2.5273,2.5645,2.5693,2.5718,2.5718,2.5708,2.5718,2.5718,2.5781,2.6802,2.8981,2.9361,3.0832,3.3496,3.379,3.3922,3.3909,3.4424,3.411,3.3102,3.3102,3.3124,3.3133,3.3535,3.3713,3.3755,3.4209,3.4915,3.5724,3.6293,3.7057,3.8022,3.9503,4.0476,4.11,0.0,0.0,0.0,0.0,0.0,0.0,0.0,0.0,0.0,0.0,0.0,0.0,0.0,0.0,0.0,0.0,0.0,0.0,0.0221,0.0785,0.1162,0.1275,0.1896,0.225,0.2217,0.2296,0.2323,0.2299,0.2314,0.2344,0.2408,0.2449,0.2447,0.2428,0.3238,0.4048,0.4857,0.5553,0.6335,0.716,0.7781,0.8018,0.8146,0.9456,0.9979,1.0076,1.0861,1.1203,1.1327,1.1824,1.2428,1.2973,1.3142,1.3836,1.4708,1.533,1.578,1.6193,1.6743,1.6908,1.6908,1.6908,1.7128,1.7367,1.7477,1.7129,1.6746,1.6486,1.5865,1.5302,1.5106,1.6765,1.815,1.8123,2.0016,2.1752,2.2447,2.3062,2.3828,2.4809,2.5293,2.5581,2.5698,2.5693,2.5781,2.598,2.5805,2.5781,2.598,2.6706,2.7874,2.9533,3.0788,3.2172,3.3787,3.4254,3.4311,3.3897,3.4035,3.3746,3.3102,3.3102,3.3176,3.3334,3.3598,3.3797,3.4013,3.4293,3.4805,3.5487,3.622,3.7325,3.873,4.0199,4.1301,4.2114,0.0,0.0,0.0,0.0,0.0,0.0,0.0,0.0,0.0,0.0,0.0,0.0,0.0,0.0,0.0,0.0,0.0,0.0,0.0,0.0983,0.1268,0.1508,0.19,0.2094,0.2067,0.2163,0.2204,0.2204,0.2197,0.224,0.23,0.2331,0.2511,0.2825,0.3632,0.4392,0.5126,0.594,0.6683,0.0,0.0,0.8232,0.8638,0.9336,0.9727,0.9958,1.0437,1.1092,1.1833,1.2446,1.3025,1.3481,1.3401,1.4178,1.5215,1.5674,1.6035,1.6368,1.6778,1.6908,1.6821,1.649,1.6679,1.689,1.6736,1.6353,1.5944,1.5634,1.4968,1.4413,1.4334,1.6219,1.7792,1.7816,2.0126,2.2073,2.2559,2.3315,2.4134,2.4984,2.5469,2.5693,2.5693,2.5693,2.5805,2.6076,2.5955,2.5989,2.6269,2.7455,2.8739,3.0113,3.1644,3.3029,3.4239,3.4778,3.4653,3.3897,3.3897,3.3608,3.3102,3.3102,3.3219,3.342,3.362,3.3852,3.4144,3.4601,3.4986,3.5381,3.6348,3.7491,3.8797,4.027,4.1433,4.2327,0.0,0.0,0.0,0.0,0.0,0.0,0.0,0.0,0.0,0.07,0.0625,0.0592,0.0643,0.0643,0.0,0.0,0.0,0.0,0.0,0.0,0.129,0.1768,0.1898,0.1931,0.1885,0.2056,0.2193,0.2282,0.2272,0.2369,0.253,0.253,0.2873,0.356,0.4359,0.5057,0.5721,0.6663,0.7335,0.7771,0.769,0.8317,0.9258,0.0,0.9191,0.9903,0.9942,1.1038,1.256,1.3185,1.357,1.3763,1.36,1.4655,1.5956,1.5956,1.6403,1.6908,1.6908,1.683,1.6604,1.5956,1.5971,1.604,1.5718,1.4984,1.4467,1.4774,1.3966,1.3394,1.4017,1.5897,1.7343,1.7394,1.988,2.1888,2.212,2.3159,2.417,2.4994,2.5469,2.5708,2.5757,2.5815,2.5957,2.6287,2.6361,2.6468,2.6635,2.809,2.9593,3.1007,3.2475,3.376,3.4816,3.5194,3.4891,3.3897,3.3822,3.3555,3.3102,3.3102,3.3197,3.3377,3.3696,3.3947,3.4244,3.5049,3.5443,3.5626,3.6619,3.7626,3.8684,4.0086,4.1191,4.2114,0.0,0.0,0.0,0.0,0.0,0.0,0.0,0.0,0.0,0.0,0.1302,0.1097,0.0,0.0,0.0,0.0,0.0,0.0,0.0,0.0,0.0,0.1706,0.1741,0.1771,0.1811,0.1856,0.2146,0.2692,0.2692,0.304,0.3708,0.3708,0.3855,0.418,0.4936,0.5336,0.554,0.6847,0.7318,0.7236,0.813,0.8591,0.8768,0.906,0.0,0.0,0.9659,1.0416,1.1433,1.2427,1.3924,1.5383,1.5365,1.5974,1.6708,1.6708,1.6804,1.6908,1.6908,1.6455,1.5956,1.5833,1.5783,1.5694,1.5367,1.5026,1.4745,1.4599,1.3839,1.3447,1.4212,1.5483,1.6995,1.8712,2.0309,2.1826,2.3277,2.3952,2.4502,2.5033,2.5469,2.5781,2.6004,2.6379,2.6818,2.7299,2.7659,2.771,2.7417,2.8816,3.0797,3.3422,3.4493,3.516,3.5357,3.5017,3.4515,3.3884,3.3454,3.319,3.3102,3.3102,3.3124,3.3201,3.4079,3.4465,3.4602,3.5557,3.6253,3.6724,3.692,3.7829,3.9185,4.0218,4.1191,4.2114,0.0,0.0,0.0,0.0,0.0,0.0,0.0,0.1907,0.1992,0.2087,0.1859,0.171,0.1794,0.1773,0.1729,0.0,0.0,0.0,0.0,0.0,0.0,0.221,0.2227,0.2379,0.2726,0.274,0.2911,0.327,0.0,0.3483,0.389,0.389,0.4139,0.4576,0.4925,0.5304,0.5706,0.6387,0.6963,0.7463,0.8005,0.8502,0.8934,0.0,0.0,0.0,0.9806,1.0631,1.1767,1.3085,1.4422,1.5575,1.5738,1.6165,1.6625,1.6844,1.6908,1.6954,1.7156,1.6792,1.6351,1.6234,1.6326,1.6122,1.4959,1.485,1.4731,1.371,1.3265,1.32,1.3731,1.5112,1.6591,1.7924,1.986,2.1584,2.2653,2.3722,2.458,2.5033,2.5469,2.5757,2.5868,2.6433,2.6953,2.7347,2.8116,2.8425,2.8134,3.0082,3.2221,3.4402,3.545,3.5669,3.5082,3.4828,3.4276,3.347,3.3228,3.3102,3.3102,3.3219,3.3477,3.3911,3.449,3.499,3.5452,3.6243,3.6737,3.7037,3.7351,3.8174,3.9241,3.9703,4.0774,4.2052,0.0,0.0,0.0,0.0,0.0,0.0,0.0,0.2026,0.2087,0.2211,0.238,0.2435,0.2296,0.2059,0.1931,0.0,0.0,0.0,0.0,0.0,0.0,0.0,0.0,0.0,0.3635,0.0,0.0,0.398,0.398,0.0,0.0,0.0,0.0,0.0,0.5155,0.5525,0.6095,0.6362,0.7017,0.0,0.0,0.8409,0.0,0.0,0.0,0.0,0.0,1.0842,1.2161,1.3674,1.4555,1.514,1.5799,1.6195,1.6505,1.6868,1.6951,1.7042,1.7391,1.7138,1.6764,1.6713,1.6736,1.6334,1.4674,1.4596,1.4449,1.2972,1.2698,1.2852,1.3304,1.4615,1.5929,1.6821,1.9041,2.0912,2.1656,2.3213,2.4443,2.4906,2.5448,2.5805,2.5854,2.6611,2.7217,2.7484,2.8523,2.927,2.9586,3.1529,3.3424,3.509,3.5966,3.5967,3.5054,3.4816,3.4286,3.3454,3.3329,3.3278,3.3278,3.3552,3.4051,3.4723,3.5066,3.5582,3.6279,3.6923,3.7194,3.7246,3.7717,3.8317,3.8957,3.9365,4.0418,4.1748,0.0,0.0,0.0,0.0,0.0,0.0,0.0,0.2098,0.2215,0.2285,0.2982,0.3392,0.3205,0.2466,0.2179,0.0,0.0,0.0,0.0,0.0,0.0,0.0,0.0,0.0,0.0,0.0,0.0,0.4884,0.4884,0.0,0.0,0.0,0.0,0.0,0.0,0.6569,0.6708,0.7868,0.0,0.0,0.0,0.0,0.0,0.0,0.0,0.0,0.0,1.0439,1.1586,1.3011,1.3766,1.4421,1.6155,1.6774,1.6897,1.7105,1.7166,1.721,1.7439,1.6935,1.6448,1.6866,1.6356,1.5556,1.4825,1.4369,1.3864,1.3035,1.2507,1.2475,1.3483,1.3893,1.4719,1.6597,1.7987,1.941,2.1034,2.2751,2.4004,2.4424,2.5419,2.6149,2.64,2.7424,2.8185,2.8445,2.9353,3.0736,3.2664,3.3009,3.4093,3.6192,3.6358,3.6355,3.623,3.5228,3.4653,3.454,3.406,3.3822,3.3847,3.4336,3.4757,3.5092,3.5859,3.6364,3.6715,3.7482,3.7821,3.7821,3.7887,3.7946,3.8217,3.9861,4.0568,4.0965,0.0,0.0,0.0,0.0,0.0,0.0,0.2591,0.2749,0.3029,0.3669,0.405,0.4254,0.4265,0.3836,0.3577,0.3575,0.0,0.0,0.0,0.0,0.0,0.0,0.0,0.0,0.0,0.0,0.6032,0.6813,0.6813,0.0,0.0,0.0,0.0,0.0,0.0,0.7366,0.7223,0.7727,0.0,0.0,0.0,0.0,0.0,0.0,0.0,0.0,0.0,0.0,1.221,1.3778,1.4329,1.4617,1.609,1.6692,1.6872,1.6947,1.716,1.7392,1.7426,1.7245,1.7147,1.7652,1.754,1.6928,1.5498,1.5325,1.4935,1.3157,1.3228,1.3538,1.332,1.4186,1.5032,1.5391,1.7212,1.8943,1.9908,2.1976,2.363,2.4313,2.5196,2.5994,2.6619,2.7606,2.8547,2.9379,2.9787,3.095,3.3101,3.2588,3.2914,3.4434,3.5102,3.543,3.5378,3.5242,3.4866,3.4223,3.4327,3.4377,3.4377,3.476,3.5253,3.5842,3.6286,3.6832,3.7459,3.7763,3.79,3.79,3.79,3.79,3.7992,3.8711,3.9664,4.0752,0.0,0.0,0.0,0.0,0.0,0.2441,0.3239,0.348,0.3818,0.4546,0.4842,0.5027,0.5122,0.519,0.512,0.4883,0.4427,0.0,0.0,0.0,0.0,0.0,0.0,0.0,0.0,0.0,0.7572,0.8146,0.8146,0.8108,0.0,0.0,0.8034,0.8012,0.0,0.0,0.0,0.0,0.0,0.0,0.0,0.0,0.0,0.0,0.0,0.0,0.0,0.0,0.0,0.0,0.0,1.501,1.6004,1.6443,1.6627,1.6826,1.7213,1.7564,1.7571,1.7615,1.7772,1.8254,1.8336,1.7894,1.644,1.6245,1.5857,1.3971,1.401,1.4188,1.358,1.4624,1.5404,1.4929,1.7185,1.9036,1.9217,2.1494,2.3346,2.3915,2.4875,2.5875,2.6823,2.7889,2.8931,2.9932,2.9994,3.0651,3.2171,3.1534,3.2058,3.4091,3.4581,3.4941,3.5192,3.5116,3.4929,3.4625,3.4841,3.5029,3.5215,3.5466,3.592,3.6542,3.677,3.7267,3.79,3.79,3.79,3.79,3.79,3.79,3.7949,3.8392,3.9553,4.1019,0.0,0.0,0.0,0.0,0.0,0.0,0.3863,0.4225,0.4422,0.4491,0.5189,0.5692,0.5692,0.6287,0.6671,0.6668,0.5637,0.0,0.0,0.0,0.0,0.0,0.0,0.0,0.0,0.0,0.8284,0.8495,0.8495,0.8387,0.8196,0.8196,0.8122,0.8027,0.0,0.0,0.0,0.0,0.0,0.0,0.0,0.0,0.0,0.0,0.0,0.0,0.0,0.0,0.0,0.0,0.0,0.0,0.0,1.6105,1.624,1.6905,1.7379,1.775,1.794,1.7991,1.8098,1.85,1.8303,1.7919,1.7564,1.6922,1.6259,1.5765,1.4681,1.396,1.4484,1.5085,1.5539,1.5661,1.8047,1.9696,1.9174,2.1482,2.3156,2.3038,2.449,2.5956,2.708,2.8471,2.9497,2.9953,2.9994,3.002,3.002,3.002,3.1957,3.6227,3.5343,3.5319,3.6369,3.4805,3.4805,3.638,3.5769,3.5794,3.6392,3.6592,3.6826,3.7108,3.7377,3.7657,3.79,3.79,3.79,3.79,3.79,3.79,3.808,3.9544,4.0735,4.1783,0.0,0.0,0.0,0.0,0.0,0.0,0.0,0.4741,0.5104,0.5714,0.6017,0.6236,0.6369,0.6445,0.6551,0.6688,0.6157,0.0,0.0,0.0,0.0,0.0,0.0,0.0,0.0,0.9085,0.937,0.9929,0.9929,0.9895,0.9838,0.9838,0.9825,0.978,0.9959,0.9971,0.0,0.0,0.0,0.0,0.0,0.0,0.0,0.0,0.0,0.0,0.0,0.0,0.0,0.0,0.0,0.0,0.0,0.0,0.0,1.634,1.6928,1.7512,1.7578,1.7793,1.803,1.8157,1.8088,1.7849,1.7238,1.6914,1.6535,1.5834,1.5826,1.5809,1.542,1.6372,1.6867,1.5803,1.8036,1.9738,1.9302,2.1645,2.36,2.4169,2.6082,2.7675,2.8537,2.9322,2.9839,2.9984,2.9994,3.0313,3.1058,3.179,3.2826,3.4165,3.3895,3.4581,3.6381,3.626,3.626,3.6417,3.6948,3.7123,3.6947,3.7018,3.7245,3.7636,3.7358,3.7482,3.79,3.79,3.79,3.7939,3.8305,3.8462,3.8551,3.942,4.0377,4.1415,0.0,0.0,0.0,0.0,0.0,0.0,0.0,0.5276,0.5589,0.6148,0.6278,0.6395,0.6571,0.6469,0.6577,0.7044,0.6843,0.0,0.0,0.0,0.0,0.0,0.0,0.0,0.9907,0.9907,1.0235,1.0857,1.0786,1.0786,1.0857,1.0834,1.0773,1.0681,1.0751,1.0845,0.0,0.0,0.0,0.0,0.0,0.0,1.1789,0.0,0.0,0.0,0.0,0.0,0.0,0.0,0.0,0.0,0.0,0.0,0.0,0.0,1.6486,1.694,1.709,1.7308,1.7552,1.7734,1.7773,1.7685,1.7387,1.7312,1.7165,1.6681,1.6606,1.657,1.6404,1.7153,1.7648,1.7122,1.9061,2.0513,2.0161,2.2216,2.4182,2.5308,2.7065,2.8456,2.9096,2.9673,2.9994,2.9994,3.0365,3.0888,3.1549,3.2819,3.3688,3.4076,3.4101,3.4929,3.6671,3.6636,3.6636,3.6695,3.7185,3.7336,3.7198,3.7176,3.7326,3.7584,3.7462,3.7575,0.0,3.8122,3.8214,3.8266,3.8828,3.905,3.9092,3.9703,4.0745,4.2081,0.0,0.0,0.0,0.0,0.0,0.0,0.0,0.5748,0.5872,0.5872,0.6033,0.6224,0.6422,0.6434,0.6797,0.7684,0.0,0.0,0.0,0.0,0.0,0.0,0.0,0.0,1.0609,1.0613,1.085,1.1291,1.1151,1.1188,1.1386,1.1383,1.1242,1.0948,1.1185,1.1503,1.188,0.0,0.0,0.0,1.3556,1.4052,0.0,0.0,0.0,0.0,0.0,0.0,0.0,0.0,0.0,0.0,0.0,0.0,0.0,0.0,0.0,0.0,0.0,1.6658,1.6804,1.7275,1.7399,1.7507,1.7881,1.7988,0.0,1.7991,1.7131,1.6612,1.742,1.7658,1.8082,1.918,2.0814,2.1831,2.149,2.3153,2.4955,2.646,2.7604,2.8482,2.8973,2.9626,3.0005,3.0046,3.0967,3.1527,3.1527,3.3132,3.4524,3.5552,3.5764,3.6309,3.7299,3.6296,3.6296,3.7323,3.6795,3.6795,3.7272,3.7193,3.7172,3.7219,3.767,3.7903,3.8004,3.8501,3.8736,3.8804,3.9429,3.9664,3.973,4.0338,4.1737,4.3452,0.0,0.0,0.0,0.0,0.0,0.0,0.0,0.0,0.0,0.0,0.5716,0.6011,0.6709,0.6774,0.7192,0.0,0.0,0.0,0.0,0.0,0.0,0.0,0.0,0.0,1.0609,1.0791,1.1043,1.1291,1.1724,1.2019,1.2235,1.2981,1.2982,1.2349,1.2855,1.2813,1.2351,1.2627,0.0,0.0,1.3472,1.3578,0.0,0.0,0.0,0.0,1.4903,1.5119,0.0,0.0,0.0,0.0,0.0,0.0,0.0,0.0,1.5566,1.5586,1.5678,0.0,1.6804,1.7275,1.7399,1.7429,0.0,1.7773,1.7991,1.7991,1.8019,1.811,1.8294,1.9176,1.9631,1.8911,2.081,2.2287,2.2042,2.4483,2.672,2.7951,2.8668,2.9379,3.0194,3.0113,3.0139,3.0501,3.0778,3.09,3.09,3.3209,3.4838,3.5506,3.723,3.8241,3.8504,3.7804,3.7804,3.8492,3.8123,3.7994,3.8095,3.7851,3.7833,3.8009,3.7723,3.7937,3.8527,3.8658,3.8985,3.9431,3.9993,4.0202,4.0389,4.1734,4.2527,4.3186,0.0,0.0,0.0,0.0,0.0,0.0,0.0,0.0,0.0,0.0,0.0,0.6437,0.7312,0.7463,0.0,0.0,0.0,0.0,0.0,0.0,0.0,0.0,0.0,1.0932,1.0787,1.1553,1.2043,1.2222,1.2819,1.3214,1.3431,1.394,1.3782,1.3084,1.3541,1.3545,1.3206,1.3524,1.3728,1.3833,1.4067,0.0,0.0,0.0,0.0,0.0,1.5015,1.5235,0.0,1.5391,1.5396,1.5396,0.0,0.0,0.0,0.0,1.5396,1.5396,1.5396,1.5747,1.6264,1.6924,1.709,1.7187,1.7578,1.7981,1.8283,1.8283,1.8615,1.9035,1.9443,2.0183,2.0654,2.0426,2.1935,2.3347,2.3957,2.562,2.7235,2.8448,2.881,2.9352,3.0284,3.0336,3.0419,3.0667,3.1336,3.1939,3.2513,3.4605,3.5913,3.6221,3.7979,3.8768,3.8504,3.8165,3.7914,3.7738,3.7582,3.7527,3.7622,3.7568,3.7829,3.8334,3.814,3.8439,3.9141,3.9366,3.9666,4.0006,4.0581,4.0803,4.0916,4.1785,4.2393,4.3019,0.0,0.0,0.0,0.0,0.0,0.0,0.0,0.0,0.0,0.0,0.0,0.0,0.0,0.0,0.0,0.0,0.0,0.0,0.0,0.0,0.0,0.0,1.133,1.1607,1.1327,1.2605,1.3339,1.3486,1.4147,1.4576,1.4785,1.4861,1.4519,1.3855,1.3971,1.4063,1.4121,1.4538,1.4828,1.497,1.4775,0.0,0.0,0.0,0.0,0.0,0.0,0.0,0.0,1.5381,1.5396,1.5425,1.5512,0.0,0.0,0.0,0.0,0.0,1.5396,1.5493,1.5776,1.6512,1.6697,1.6911,1.7718,1.8322,1.8705,1.8705,1.9189,1.9823,2.0556,2.0948,2.1411,2.2267,2.3419,2.4686,2.6115,2.6707,2.7441,2.8562,2.882,2.927,3.0118,3.0563,3.0822,3.0884,3.2061,3.3222,3.4246,3.6001,3.6951,3.6951,3.8208,3.8617,3.8015,3.7927,3.745,3.6632,3.6564,3.6705,3.7033,3.7251,3.7792,3.8594,3.876,3.9157,3.9769,4.0202,4.0437,4.0581,4.109,4.1286,4.1336,4.1634,4.2297,4.3187,0.0,0.0,0.0,0.0,0.0,0.0,0.0,0.0,0.0,0.0,0.0,0.0,0.0,0.0,0.0,0.0,0.0,0.0,0.0,0.0,0.0,1.0609,1.2048,1.2821,1.278,1.3599,1.4126,1.4325,1.5257,1.5834,1.6038,1.6828,1.6708,1.5827,1.5309,1.4884,1.4597,1.4671,1.4828,1.497,1.4775,0.0,0.0,0.0,0.0,0.0,0.0,0.0,0.0,1.5362,1.5396,1.5497,1.5997,0.0,0.0,0.0,0.0,0.0,1.5396,1.5942,1.6531,1.6668,1.6697,1.6849,1.7363,1.8369,1.9189,1.9189,2.0108,2.0957,2.1084,2.1749,2.22,2.2032,2.4018,2.5882,2.6676,2.7994,2.8959,2.9177,2.9891,3.0584,3.1139,3.1253,3.1422,3.1778,3.1999,3.2225,3.2409,3.4914,3.6341,3.6341,3.8006,3.8617,3.8015,3.755,3.7462,3.7751,3.7238,3.7514,3.8481,3.8459,3.8812,3.942,3.9444,3.9782,4.0267,4.0383,4.0685,4.1168,4.1247,4.1286,4.1511,4.3215,4.3937,4.4336,0.0,0.0,0.0,0.0,0.0,0.0,0.0,0.0,0.0,0.0,0.0,0.0,0.0,0.0,0.0,0.0,0.0,0.0,0.0,0.0,1.1231,1.1568,1.3104,1.3615,1.2846,1.4075,1.4997,1.554,1.6392,1.6967,1.7269,1.7282,1.6837,1.6053,1.5525,1.5147,1.4858,1.4858,1.4926,1.497,0.0,0.0,0.0,0.0,0.0,0.0,0.0,0.0,0.0,0.0,1.5396,1.5454,1.5734,0.0,0.0,0.0,0.0,0.0,1.5718,1.608,1.6592,1.7496,1.7922,1.8223,1.8652,1.958,2.0264,2.0048,2.084,2.1602,2.1725,2.2579,2.3606,2.4644,2.5739,2.6842,2.8027,2.8615,2.9208,2.9963,3.0212,3.0621,3.1336,3.1598,3.1788,3.1995,3.2243,3.292,3.4202,3.55,3.6484,3.7099,3.7967,3.7992,3.7081,3.7157,3.7233,3.7291,3.7364,3.7804,3.8578,3.8845,3.9351,4.0019,4.0019,4.0345,4.0881,4.0881,4.1038,4.1286,4.1286,4.1286,4.1411,4.2346,4.3368,4.4429,0.0,0.0,0.0,0.0,0.0,0.0,0.0,0.0,0.0,0.0,0.0,0.0,0.0,0.0,0.0,0.0,0.0,0.0,0.0,1.1162,1.1754,1.2315,1.3694,1.4122,1.3464,1.4948,1.6096,1.6805,1.7361,1.7761,1.7944,1.7375,1.6662,1.584,1.5604,1.5301,1.4941,1.4941,1.4941,1.4911,0.0,0.0,0.0,0.0,0.0,0.0,0.0,0.0,0.0,0.0,0.0,0.0,0.0,0.0,0.0,1.5777,1.5789,1.5816,1.6042,1.6388,1.7028,1.842,1.8947,1.9297,1.9922,2.0732,2.1289,2.0967,2.1712,2.2431,2.2397,2.3355,2.4767,2.6647,2.7218,2.7854,2.913,2.928,2.9622,3.0574,3.0563,3.075,3.1464,3.1912,3.2283,3.2553,3.2916,3.4032,3.6077,3.6457,3.7019,3.7858,3.8086,3.7792,3.6923,3.7307,3.7267,3.683,3.7543,3.8188,3.8713,3.9236,3.9888,4.0594,4.0594,4.0868,4.1286,4.1286,4.1286,4.1286,4.1286,4.1423,4.1683,4.1931,4.3119,4.467,0.0,0.0,0.0,0.0,0.0,0.0,0.0,0.0,0.0,0.0,0.0,0.0,0.0,0.0,0.0,0.0,0.0,0.0,0.0,1.1162,1.1683,1.2101,1.3122,1.4397,1.5911,1.6866,1.756,1.798,1.8026,1.7871,1.7559,1.7674,1.7007,1.5737,1.6004,1.5607,1.473,1.473,1.473,1.4715,1.4571,0.0,0.0,0.0,0.0,0.0,0.0,0.0,0.0,0.0,0.0,0.0,0.0,0.0,1.6354,1.6908,1.6987,1.6771,1.6242,1.7243,1.8557,1.9111,1.8947,1.8986,2.0253,2.1221,2.1847,2.1817,2.2986,2.3824,2.3169,2.4016,2.5085,2.5882,2.7592,2.8942,2.9265,3.0414,3.1087,3.0756,3.1374,3.1891,3.1953,3.2388,3.3119,3.4241,3.4346,3.4902,3.6131,3.7207,3.7805,3.7897,3.8495,3.8806,3.8705,3.8439,3.7933,3.7184,3.8212,3.9042,3.9617,4.0099,4.0659,4.1234,4.1234,4.1247,4.1286,4.1286,4.1286,4.1286,4.1286,4.1868,4.2816,4.3748,4.4776,4.5838,0.0,0.0,0.0,0.0,0.0,0.0,0.0,0.0,0.0,0.0,0.0,0.0,0.0,0.0,0.0,0.0,0.0,0.0,0.0,1.1756,1.2474,1.3244,1.416,1.5253,1.6541,1.6732,1.7349,1.8466,1.8466,1.8128,1.7495,1.7576,1.6974,1.5833,1.5962,1.552,1.4715,1.4828,1.4804,1.4701,1.4636,1.4651,0.0,0.0,0.0,0.0,0.0,0.0,0.0,0.0,1.5465,1.5549,1.5998,1.5957,1.5842,1.6361,1.6486,1.6626,1.7439,1.8118,1.89,2.0166,2.0576,2.085,2.1602,2.2267,2.2629,2.2334,2.3304,2.4389,2.4985,2.6013,2.7139,2.8271,2.8864,2.9601,3.0816,3.0977,3.1195,3.1878,3.1984,3.2119,3.2419,3.2605,3.2898,3.336,3.3388,3.4201,3.6115,3.6603,3.7501,3.8973,3.8941,3.8894,3.8894,3.8781,3.8654,3.8513,3.9247,3.9797,4.014,4.0715,4.1077,4.1286,4.1286,4.1286,4.1286,4.1286,4.1286,4.1286,4.1286,4.1522,4.1918,4.2297,4.3057,4.4074,0.0,0.0,0.0,0.0,0.0,0.0,0.0,0.0,0.0,0.0,0.0,0.0,0.0,0.0,0.0,0.0,0.0,0.0,1.1467,1.2135,1.3012,1.4175,1.5001,1.593,1.6994,1.6841,1.7321,1.8503,1.8375,1.7972,1.7312,1.7374,1.6919,1.6011,1.5963,1.5526,1.4827,1.4835,1.4764,1.4636,1.4636,1.4695,0.0,0.0,0.0,0.0,0.0,0.0,0.0,0.0,1.5056,1.5127,1.5461,1.5537,1.5615,1.6218,1.6571,1.7056,1.8277,1.8918,1.9581,2.1054,2.1829,2.2341,2.2805,2.321,2.3474,2.3285,2.4167,2.5313,2.6482,2.7431,2.8328,2.9302,2.9735,3.0346,3.1426,3.1454,3.1629,3.2388,3.2336,3.2357,3.2667,3.2698,3.3001,3.3762,3.3818,3.4819,3.7168,3.7314,3.8043,3.9645,3.9346,3.9158,3.9158,3.9247,3.9411,3.9664,4.0139,4.0425,4.0573,4.1078,4.1286,4.1286,4.1286,4.1286,4.1286,4.1286,4.1286,4.1286,4.1286,4.1286,4.1386,4.2016,4.2684,4.345,0.0,0.0,0.0,0.0,0.0,0.0,0.0,0.0,0.8753,0.942,0.95,0.0,0.0,0.0,0.0,0.0,0.0,0.0,1.1452,1.2135,1.3159,1.4639,1.5341,1.6265,1.7458,1.7486,1.7697,1.8081,1.7706,1.7293,1.6908,1.7097,1.6867,1.6294,1.6086,1.5652,1.5065,1.4665,1.45,1.45,1.45,1.4699,1.5,0.0,0.0,0.0,0.0,0.0,0.0,0.0,1.4104,1.428,1.5358,1.5693,1.5877,1.6736,1.7606,1.8338,1.8557,1.959,2.083,2.169,2.2405,2.3064,2.367,2.4001,2.4341,2.4821,2.5822,2.682,2.7496,2.7995,2.8313,2.8323,3.0049,3.1243,3.077,3.1868,3.2522,3.2078,3.2429,3.2698,3.2698,3.2698,3.3678,3.5995,3.6185,3.7195,3.9555,3.9685,3.9697,3.9697,3.9697,3.9697,3.9697,3.9981,4.0236,4.0504,4.077,4.0908,4.0908,4.1186,4.1286,4.1286,4.1286,4.1286,4.1286,4.1286,4.1286,4.1286,4.1286,4.1311,4.1547,4.3559,4.4289,4.4591,0.0,0.0,0.0,0.0,0.0,0.0,0.0,0.0,0.9269,0.9468,0.95,0.0,0.0,0.0,0.0,0.0,0.0,0.0,1.1483,1.2574,1.3516,1.4245,1.5188,1.5991,1.6634,1.6936,1.7284,1.7688,1.7834,1.7569,1.6899,1.6675,1.6316,1.5854,1.5523,1.5112,1.468,1.4647,1.471,1.4847,1.4847,1.498,1.5142,0.0,0.0,0.0,0.0,0.0,0.0,0.0,0.0,0.0,1.5039,1.5293,1.5666,1.653,1.7413,1.8374,1.9655,2.0742,2.1651,2.2187,2.2936,2.3587,2.3753,2.4373,2.5266,2.6536,2.7337,2.8001,2.8663,2.9178,2.9693,3.037,3.0723,3.1174,3.1974,3.216,3.2284,3.2481,3.2626,3.2698,3.2698,3.2698,3.3332,3.4875,3.5013,3.6018,3.8293,3.8437,3.8816,3.9671,3.9697,3.9697,3.9697,3.9981,4.0236,4.0504,4.077,4.0997,4.1186,4.1261,4.1286,4.1286,4.1286,4.1286,4.1286,4.1286,4.1286,4.1286,4.1286,4.1733,4.2431,4.3033,4.3687,4.4499,0.0,0.0,0.0,0.0,0.0,0.0,0.7761,0.856,0.9199,0.9468,0.95,0.95,0.0,0.0,0.0,0.9983,1.0475,1.1092,1.1849,1.2658,1.3512,1.4466,1.5124,1.5652,1.6039,1.6468,1.6707,1.678,1.7358,1.7367,1.6882,1.6644,1.6413,1.6156,1.5762,1.5343,1.4989,1.4951,1.4919,1.4872,1.4872,1.5015,1.5167,0.0,0.0,0.0,0.0,0.0,0.0,0.0,0.0,0.0,1.4522,1.4847,1.5439,1.681,1.7825,1.8896,2.0644,2.1719,2.249,2.291,2.3751,2.4641,2.5257,2.5739,2.6424,2.7696,2.8416,2.8983,2.9538,2.9998,3.0512,3.1284,3.1288,3.1516,3.2315,3.2346,3.2388,3.2667,3.2698,3.2698,3.2698,3.2698,3.3378,3.5041,3.5179,3.6181,3.8489,3.8633,3.8959,3.9671,3.9697,3.9736,3.9865,4.0032,4.0287,4.0669,4.082,4.1047,4.1286,4.1286,4.1286,4.1286,4.1286,4.1286,4.1286,4.1286,4.1286,4.1286,4.1286,4.1658,4.2259,4.2647,4.3426,4.4452,0.0,0.0,0.0,0.0,0.0,0.0,0.8291,0.8554,0.8802,0.942,0.95,0.95,0.0,0.0,0.0,0.9967,1.0031,1.0715,1.2312,1.2466,1.3226,1.4881,1.5053,1.5267,1.565,1.6046,1.6074,1.5705,1.6505,1.6854,1.6798,1.6835,1.6835,1.678,1.6369,1.5991,1.5638,1.5346,1.5024,1.473,1.473,1.4898,1.5095,1.4544,0.0,0.0,0.0,0.0,0.0,0.0,0.0,0.0,1.3987,1.4449,1.5244,1.7295,1.8584,1.9716,2.1348,2.2469,2.3318,2.3701,2.471,2.597,2.7507,2.7675,2.7728,2.8442,2.9152,2.9801,3.0224,3.0568,3.0932,3.1388,3.1747,3.2026,3.2067,3.2439,3.2698,3.2698,3.2698,3.2698,3.2698,3.2812,3.379,3.6034,3.6294,3.734,3.9581,3.9697,3.9697,3.9697,3.9697,3.9839,4.0096,4.0096,4.0377,4.0908,4.0908,4.1047,4.1286,4.1286,4.1286,4.1286,4.1286,4.1286,4.1286,4.1286,4.1286,4.1286,4.1286,4.1361,4.1547,4.2563,4.3569,4.4591,0.0,0.0,0.0,0.0,0.0,0.0,0.8361,0.8952,0.9334,0.9484,0.95,0.95,0.95,0.9734,0.0,0.9999,1.0285,1.0839,1.167,1.2212,1.2904,1.3798,1.4642,1.5139,1.5221,1.5615,1.5797,1.5705,1.6505,1.6578,1.5955,1.6268,1.6266,1.5936,1.5533,1.5376,1.5358,1.4884,1.4773,1.4941,1.4941,1.4849,1.4729,1.4698,1.4311,0.0,0.0,0.0,0.0,0.0,0.0,0.0,1.4062,1.4644,1.5508,1.6638,1.8303,1.9932,2.0674,2.2461,2.4069,2.3848,2.5008,2.657,2.7882,2.8405,2.8732,2.9252,2.9731,3.0298,3.1024,3.1199,3.1398,3.1798,3.1953,3.214,3.2502,3.2636,3.2698,3.2698,3.2698,3.2698,3.2698,3.3547,3.4681,3.6077,3.7034,3.8161,3.9607,3.9697,3.9697,3.9697,3.9697,3.9839,4.0096,4.0096,4.0377,4.0908,4.0908,4.1047,4.1286,4.1286,4.1286,4.1286,4.1286,4.1286,4.1286,4.1286,4.1286,4.1286,4.1286,4.1782,4.2612,4.3606,4.4601,4.5621,0.0,0.0,0.0,0.0,0.0,0.0,0.0,0.0,0.9644,0.9518,0.95,0.95,0.95,0.9734,0.0,0.0,1.0276,1.0895,1.1903,1.2312,1.2948,1.3935,1.4517,1.4818,1.4818,1.5019,1.5129,1.5129,1.5744,1.5918,1.5689,1.5909,1.59,1.5696,1.5478,1.5323,1.5201,1.5071,1.5025,1.5009,1.5068,1.5056,1.4959,1.4769,1.4461,1.4092,1.3864,0.0,0.0,0.0,0.0,0.0,0.0,0.0,1.5649,1.6947,1.8254,1.9601,2.1094,2.248,2.3679,2.4521,2.5713,2.7021,2.8301,2.876,2.9139,2.9965,3.0097,3.0331,3.1128,3.1376,3.167,3.2235,3.2346,3.2429,3.2667,3.2698,3.2698,3.2698,3.3218,3.3547,3.3547,3.4636,3.5799,3.6927,3.7566,3.8437,3.9645,3.9697,3.9697,3.9697,3.9697,3.9839,4.0096,4.0236,4.0491,4.0908,4.1022,4.1147,4.1286,4.1286,4.1286,4.1286,4.1286,4.1286,4.1286,4.1286,4.1286,4.1286,4.1286,4.1904,4.2816,4.2854,4.4111,4.5816,0.0,0.0,0.0,0.0,0.0,0.0,0.0,0.0,0.0,0.953,0.95,0.95,0.95,0.9708,0.9878,0.0,0.0,0.0,1.242,1.2604,1.323,1.4446,1.4387,1.4372,1.45,1.45,1.45,1.45,1.4821,1.5203,1.5604,1.5677,1.5668,1.5604,1.5604,1.5473,1.5303,1.5491,1.5387,1.5119,1.5247,1.5269,1.5163,1.4771,1.4653,1.4629,1.4241,1.4091,1.4091,1.4091,0.0,0.0,0.0,0.0,1.5698,1.7227,1.8108,1.9104,2.1415,2.242,2.3308,2.5328,2.6411,2.7328,2.8606,2.8947,2.9341,3.0465,3.0431,3.0414,3.1182,3.1574,3.1989,3.2607,3.2698,3.2698,3.2698,3.2869,3.3001,3.3001,3.4071,3.4803,3.4803,3.5815,3.6873,3.7832,3.8082,3.8659,3.9645,3.9697,3.9697,3.9697,3.9697,3.9865,4.0185,4.0338,4.0618,4.0972,4.1186,4.1286,4.1286,4.1286,4.1286,4.1286,4.1286,4.1286,4.1286,4.1286,4.1286,4.1286,4.1286,4.1807,4.2466,4.1794,4.3153,4.5198,0.0,0.0,0.0,0.0,0.0,0.0,0.0,0.0,0.0,0.0,0.95,0.95,0.95,0.9782,0.9983,0.9999,1.0339,1.1108,1.242,0.0,0.0,1.4461,1.3941,1.392,1.4485,1.45,1.45,1.45,1.4546,1.479,1.5184,1.5549,1.5505,1.5184,1.5184,1.5513,1.6024,1.5604,1.5456,1.5531,1.5668,1.5208,1.4478,1.4693,1.4537,1.4182,1.412,1.4091,1.4091,1.4091,1.441,0.0,0.0,0.0,1.5527,1.6173,1.7422,1.8841,1.9942,2.2147,2.4479,2.5937,2.666,2.7328,2.8606,2.9209,2.9741,3.0534,3.0829,3.1202,3.1989,3.2377,3.2607,3.2688,3.2698,3.2698,3.2698,3.3604,3.4256,3.4256,3.5278,3.5968,3.5968,3.7019,3.7725,3.7897,3.8868,3.953,3.9697,3.9697,3.9697,3.9697,3.9697,3.9942,4.0453,4.0236,4.0516,4.1236,4.1286,4.1286,4.1286,4.1286,4.1286,4.1286,4.1286,4.1286,4.1286,4.1286,4.1286,4.1286,4.1286,4.1386,4.1597,4.2333,4.2864,4.3307,0.0,0.0,0.0,0.0,0.0,0.0,0.0,0.0,0.0,0.0,0.0,0.95,0.95,0.9734,0.9894,0.9894,1.0228,1.0863,1.1872,1.2566,1.3245,1.392,1.367,1.3806,1.4485,1.45,1.45,1.45,1.45,1.4717,1.5102,1.5276,1.5267,1.5102,1.5179,1.5229,1.5259,1.5435,1.5555,1.5635,1.5988,1.6229,1.6339,1.5994,1.6039,1.621,1.5732,1.5415,1.5215,1.5215,1.5176,1.5137,1.5137,0.0,0.0,0.0,1.6617,1.7646,1.9735,2.1953,2.4049,2.561,2.6348,2.7002,2.8281,2.9229,2.9908,3.0256,3.0868,3.1566,3.2195,3.2402,3.2526,3.2669,3.2698,3.2955,3.3604,3.4183,3.4747,3.5388,3.6441,3.7153,3.7153,3.8214,3.8895,3.8895,3.94,3.9697,3.9697,3.9697,3.9697,3.9697,3.9697,3.989,4.0262,4.0313,4.0643,4.1286,4.1286,4.1286,4.1286,4.1286,4.1286,4.1286,4.1286,4.1286,4.1286,4.1286,4.1286,4.1286,4.1286,4.1634,4.2126,4.2003,4.266,4.3687,0.0,0.0,0.0,0.0,0.0,0.0,0.0,0.0,0.0,0.0,0.0,0.95,0.95,0.0,0.0,0.0,1.0117,1.0649,1.1452,1.1973,1.2627,1.3465,1.3336,1.3647,1.4485,1.45,1.45,1.45,1.45,1.4717,1.5102,1.5102,1.5102,1.5102,1.5195,1.5075,1.4815,1.5475,1.5784,1.5887,1.6546,1.7189,1.7726,1.7324,1.7601,1.8079,1.7552,1.7031,1.6574,1.6467,1.605,1.5557,1.5435,1.5396,0.0,0.0,0.0,1.7103,1.9452,2.1416,2.3162,2.4651,2.5624,2.6511,2.777,2.8957,2.9829,2.9993,3.078,3.1559,3.1992,3.2145,3.2325,3.2659,3.2698,3.3001,3.3931,3.4312,3.4902,3.6049,3.7207,3.8029,3.8332,3.9167,3.9697,3.9697,3.9697,3.9697,3.9697,3.9697,3.9697,3.9697,3.9762,3.9942,4.0211,4.0529,4.0909,4.1286,4.1286,4.1286,4.1286,4.1286,4.1286,4.1286,4.1286,4.1286,4.1286,4.1286,4.1286,4.1286,4.1286,4.1904,4.2722,4.2164,4.305,4.4589,0.0,0.0,0.0,0.0,0.0,0.0,0.0,0.0,0.0,0.0,0.0,0.95,0.95,0.9676,0.9804,0.9804,1.0117,1.0649,1.1452,1.153,1.2128,1.3435,1.2894,0.0,1.4461,1.45,1.45,1.45,1.45,1.4717,1.5102,1.5102,1.5102,1.5102,1.5102,1.5269,1.5561,1.5984,1.6284,1.6545,1.7524,1.7614,1.7256,1.8156,1.8529,1.8617,1.9023,1.8623,1.7835,1.7468,1.677,1.5987,1.5537,1.5396,1.5405,0.0,0.0,0.0,1.8549,2.0312,2.2168,2.3013,2.4401,2.5873,2.7171,2.8325,2.9339,3.0048,3.0578,3.1052,3.1378,3.1767,3.2163,3.2636,3.2698,3.2727,3.2784,3.3773,3.4902,3.6049,3.7207,3.8358,3.9504,3.9671,3.9697,3.9697,3.9697,3.9697,3.9697,3.9697,3.9697,3.9697,3.9955,4.0211,4.0478,4.101,4.1261,4.1286,4.1286,4.1286,4.1286,4.1286,4.1286,4.1286,4.1286,4.1286,4.1286,4.1286,4.1286,4.1286,4.1286,4.1904,4.286,4.3457,4.4332,4.5339,0.0,0.0,0.0,0.0,0.0,0.0,0.0,0.0,0.0,0.0,0.0,0.0,0.0,0.9564,0.966,0.9788,1.0117,1.0649,1.1452,1.1146,1.1499,1.2802,1.2634,1.2726,1.3215,1.3647,1.3851,1.3851,1.3851,1.4281,1.5102,1.5102,1.5148,1.5216,1.5045,1.4948,1.4941,1.5649,1.6081,1.6443,1.8002,1.8918,1.9398,1.9737,2.0225,2.0674,0.0,0.0,1.8769,1.8313,1.7617,1.6819,1.607,1.5845,1.5786,1.5498,1.6055,1.7057,1.8274,1.9591,2.1025,2.2734,2.4326,2.5702,2.6388,2.806,2.9418,2.9375,3.0132,3.0807,3.0926,3.1536,3.2067,3.2233,3.2512,3.2973,3.3745,3.4847,3.6006,3.7153,3.8358,3.9232,3.9671,3.9697,3.9697,3.9697,3.9697,3.9697,3.9697,3.9697,3.9697,3.9697,3.9788,4.0044,4.0504,4.1035,4.1286,4.1286,4.1286,4.1286,4.1286,4.1286,4.1286,4.1286,4.1286,4.1286,4.1286,4.1286,4.1533,4.1885,4.1885,4.2298,4.2958,4.3208,4.3516,4.396,0.0,0.0,0.0,0.0,0.0,0.0,0.0,0.0,0.9632,0.9632,0.0,0.0,0.0,0.0,0.9708,0.9942,1.0165,1.0555,1.1162,1.0823,1.1068,1.212,1.2374,1.2604,1.2841,1.3367,1.3704,1.3836,1.3704,1.407,1.49,1.4937,1.4983,1.5019,1.4874,1.4779,1.4786,1.5506,1.6111,1.6747,1.8423,1.9605,2.041,2.0859,2.1397,2.1847,0.0,0.0,0.0,1.964,1.9043,1.8259,1.7096,1.6447,1.6007,1.5537,1.5737,1.6378,1.763,1.8713,1.9883,2.1661,2.3416,2.4923,2.5627,2.7377,2.8809,2.8804,2.9564,3.0222,3.0222,3.0967,3.1654,3.1964,3.2398,3.3115,3.434,3.514,3.6197,3.7725,3.8607,3.9258,3.9671,3.9697,3.9697,3.9697,3.9697,3.9697,3.9697,3.9697,3.9774,3.9968,3.998,4.0224,4.0757,4.111,4.1286,4.1286,4.1286,4.1286,4.1286,4.1286,4.1415,4.1598,4.1598,4.1598,4.1598,4.1598,4.1938,4.2487,4.2487,4.2902,4.3528,4.3753,4.4052,4.4514,0.0,0.0,0.0,0.0,0.0,0.0,1.0346,1.0081,0.9919,0.9919,0.0,0.0,0.0,0.0,0.0,1.0269,1.0308,1.0403,1.0609,1.0609,1.087,1.1467,1.212,1.2757,1.3388,1.3698,1.4026,1.4437,1.4055,1.4088,1.45,1.4636,1.4636,1.4526,1.4578,1.4835,1.5254,1.5642,1.6415,1.7497,0.0,1.9561,2.0078,0.0,2.1934,0.0,2.2412,2.2295,0.0,2.1396,0.0,2.0321,1.8584,1.7174,1.6065,1.5586,1.5757,1.6193,0.0,0.0,0.0,1.9678,2.1551,2.3563,2.4874,2.6256,2.7513,2.839,2.8949,2.929,2.9301,3.0072,3.1011,3.1875,3.2385,3.313,3.4319,3.4542,3.5404,3.7646,3.7923,3.8411,3.9581,3.9697,3.9697,3.9697,3.9697,3.9697,3.9697,3.9697,3.9942,4.0478,4.0504,4.0757,4.1286,4.1286,4.1286,4.1286,4.1286,4.1286,4.1286,4.1312,4.1651,4.2186,4.2212,4.2225,4.2238,4.2225,4.2526,4.3023,4.3023,4.3631,4.4577,4.5251,4.6105,4.7214,0.0,0.0,0.0,0.0,0.0,1.0677,1.0605,1.0358,1.019,0.0,0.0,0.0,0.9817,0.9883,1.0031,1.0276,1.0434,1.0728,1.1225,1.0839,1.087,1.1467,1.1678,1.1559,1.105,1.1977,1.2551,1.2753,1.3049,1.3629,1.45,1.4536,1.4669,1.4852,1.4876,1.5248,1.5853,1.597,0.0,1.6925,1.8939,2.0,0.0,0.0,0.0,0.0,0.0,2.3428,2.2766,0.0,2.164,2.0781,1.9385,1.8262,1.7324,1.6551,1.6221,1.6124,1.6242,0.0,0.0,0.0,0.0,0.0,2.427,2.5694,2.6954,2.7534,2.8255,2.8907,2.9239,3.0341,3.1418,3.212,3.2577,3.3116,3.3901,3.5374,3.6767,3.7796,3.8685,3.9336,3.9671,3.9697,3.9697,3.9697,3.9697,3.9697,3.9697,3.9697,3.9865,4.0211,4.0402,4.0669,4.1022,4.1211,4.1286,4.1286,4.1286,4.1286,4.1299,4.1742,4.2042,4.2212,4.2605,4.3023,4.3402,4.2958,4.3114,4.3664,4.3664,4.4071,4.4665,4.4837,4.5619,4.6622,0.0,0.0,1.1093,1.1093,1.1063,1.1002,1.0882,1.0737,1.0599,0.0,0.0,0.0,1.02,1.0331,1.0423,1.0455,1.0574,1.0777,1.109,1.0791,1.087,1.1467,1.1771,1.1706,1.1279,1.2064,1.2521,1.2592,1.2518,1.2991,1.4002,1.3834,1.4061,1.4633,1.4763,1.5248,1.6027,1.6635,1.708,0.0,1.9213,0.0,0.0,2.2537,2.3279,0.0,0.0,0.0,2.3665,2.3389,2.2488,0.0,2.082,1.9424,1.7893,1.7396,1.6826,1.6402,1.6594,1.7377,1.8318,1.9104,0.0,0.0,2.3746,2.545,2.7012,2.7465,2.8601,2.9532,2.9594,3.0803,3.1923,3.2288,3.3093,3.3812,3.4137,3.5867,3.725,3.7615,3.8875,3.9697,3.9697,3.9697,3.9697,3.9697,3.9697,3.9697,3.9697,3.9813,3.9981,4.0262,4.0516,4.0795,4.1047,4.1211,4.1286,4.1286,4.1559,4.1677,4.169,4.2265,4.267,4.2918,4.3232,4.3702,4.4199,4.3846,4.3925,4.4225,4.4225,4.4434,4.4695,4.4695,4.5422,4.6452,0.0,0.0,1.1093,1.1093,1.1322,1.1418,1.1135,1.1135,1.1044,0.0,1.0514,1.0427,1.0612,1.0857,1.0923,1.0766,1.076,1.0735,1.0644,1.064,1.0873,1.1381,1.1965,1.2383,1.2576,1.2853,1.3027,1.3095,1.2294,1.2383,1.3296,1.2985,1.3302,1.4147,1.4496,1.51,1.6,1.7349,1.8254,1.8812,1.9698,2.0518,0.0,0.0,2.3281,2.3482,2.3929,2.4316,2.4586,2.4449,2.3418,0.0,0.0,2.0684,1.8518,1.8274,1.763,1.7054,1.7347,1.7813,1.8333,1.8787,2.0486,0.0,2.3227,2.5275,2.7119,2.7676,2.9217,3.0354,2.9988,3.1168,3.2241,3.2356,3.3635,3.4628,3.4709,3.6113,3.7168,3.7257,3.8608,3.9534,3.9597,3.9597,3.9634,3.9685,3.9697,3.9697,3.9697,3.9955,4.0211,4.0478,4.077,4.1022,4.1286,4.1286,4.1286,4.1299,4.1911,4.2186,4.2212,4.2827,4.3389,4.3899,4.3964,4.4251,4.4695,4.4695,4.4695,4.4695,4.4695,4.4695,4.4695,4.4695,4.5422,4.6557,1.0448,1.0838,1.1093,1.1093,1.1322,1.1418,1.1135,1.1285,1.1334,1.105,1.0791,1.07,1.089,1.0924,1.0953,1.1026,1.1173,1.1165,1.0945,1.0925,1.0883,1.0789,1.0902,1.0874,1.0657,1.0914,1.131,1.1852,1.1883,1.2383,1.3318,1.3551,1.3908,1.436,1.4749,1.5522,1.6562,1.723,1.834,1.9718,2.0605,2.1044,2.1375,2.3025,2.4114,2.4828,2.562,2.5928,2.584,2.4752,2.4176,2.376,0.0,0.0,0.0,2.003,1.918,1.8609,1.7783,1.7642,1.7926,0.0,0.0,0.0,2.2804,2.4017,2.5318,2.6856,2.7775,2.8529,2.9235,3.0237,3.1242,3.2176,3.2952,3.3757,3.4641,3.6174,3.7207,3.7207,3.7879,3.8517,3.9007,3.9057,3.9245,3.9659,3.9697,3.9697,3.9697,3.9955,4.0211,4.0478,4.077,4.1022,4.1286,4.1286,4.1286,4.1299,4.1911,4.2186,4.2225,4.3258,4.3794,4.3925,4.4356,4.459,4.4695,4.4695,4.4695,4.4695,4.4695,4.4695,4.4695,4.4695,4.5422,4.6557,1.0785,1.1002,1.1135,1.1279,1.1526,1.1659,1.1514,1.1725,1.1804,1.1533,1.1496,1.1544,1.1645,1.1583,1.155,1.1545,1.165,1.1631,1.1467,1.1447,1.1465,1.1495,1.1367,1.1207,1.0995,1.1458,1.1674,1.1595,1.1803,1.2167,1.269,1.2842,1.3491,1.4553,1.4872,1.5924,1.7544,1.8317,1.9376,2.0615,2.1269,0.0,2.2383,2.4111,2.5029,2.5518,2.6387,2.6699,2.6572,2.5693,2.5107,0.0,2.4007,2.3203,2.2295,0.0,2.035,1.9587,0.0,0.0,0.0,1.9517,0.0,0.0,0.0,2.4574,2.5869,2.7009,2.8248,2.9229,2.9448,3.0325,3.1274,3.2117,3.2732,3.3193,3.3478,3.5415,3.6592,3.6074,3.6958,3.7713,3.8027,3.8052,3.8404,3.9245,3.9534,3.9697,3.9697,4.0096,4.0364,4.0504,4.0896,4.1147,4.1286,4.1286,4.1455,4.1755,4.2317,4.2774,4.3075,4.3912,4.4304,4.4317,4.4577,4.4695,4.4695,4.4695,4.4695,4.4695,4.4695,4.4695,4.4695,4.4695,4.5422,4.6478,1.0936,1.1057,1.1165,1.1394,1.1633,1.1828,1.1828,1.2051,1.2141,1.193,1.2129,1.2295,1.2291,1.233,1.2314,1.2203,1.2221,1.2192,1.2072,1.207,1.2181,1.2475,1.2097,1.1888,1.1897,1.2206,1.2073,1.1471,1.1624,1.1839,1.2057,1.2144,1.3098,1.4772,1.5055,1.6328,0.0,0.0,0.0,2.1396,0.0,2.2785,2.3733,2.5337,2.6059,2.6313,2.7197,2.7402,2.7207,2.6875,2.6138,2.5327,2.5248,2.4036,0.0,0.0,0.0,0.0,0.0,0.0,0.0,0.0,0.0,2.2046,0.0,0.0,0.0,2.7319,2.8711,2.9779,2.9654,3.0244,3.0909,3.1348,3.1901,3.2152,3.18,3.3881,0.0,3.4566,3.5884,3.686,3.686,3.7286,3.7914,3.8831,3.9548,3.9875,3.9774,4.03,4.058,4.058,4.1035,4.1286,4.1286,4.1286,4.1598,4.2199,4.2748,4.3323,4.3912,4.446,4.4695,4.4695,4.4695,4.4695,4.4695,4.4695,4.4695,4.4695,4.4695,4.4695,4.4695,4.4695,4.5261,4.6098,1.0737,1.0936,1.1105,1.1135,1.137,1.1557,1.1557,1.178,1.1936,1.1906,1.2129,1.23,1.2291,1.2664,1.2907,1.2887,1.3048,1.3013,1.2726,1.2694,1.2719,1.2737,1.1934,1.16,1.1884,1.0928,1.0489,1.0641,1.0894,1.1331,1.1935,1.2753,1.3797,1.499,1.5556,1.6625,0.0,0.0,2.0487,0.0,2.3117,2.4114,0.0,2.6357,2.7344,2.8115,2.9002,2.8816,2.8144,0.0,2.7256,2.6172,0.0,2.5474,2.4976,2.3489,0.0,0.0,0.0,0.0,0.0,0.0,2.1318,0.0,0.0,0.0,2.5246,2.6977,0.0,2.7374,0.0,0.0,0.0,2.8561,2.9019,0.0,3.0005,3.118,3.2307,3.3202,3.471,3.5683,3.5683,3.7513,3.8756,3.8881,4.0055,4.0551,4.0083,4.0554,4.0833,4.0833,4.1122,4.1286,4.1286,4.1286,4.1598,4.2199,4.2748,4.3323,4.3912,4.446,4.4695,4.4695,4.4695,4.4695,4.4695,4.4695,4.4695,4.4695,4.4695,4.4695,4.4695,4.4695,4.4776,4.5033,1.0808,1.1014,1.1147,1.131,1.1557,1.1786,1.1942,1.2189,1.2412,1.2575,1.2695,1.2887,1.3197,1.3361,1.3454,1.3454,1.3795,1.3877,1.3562,1.3557,1.3407,1.3039,1.2176,1.1663,1.1617,1.153,1.1541,1.16,1.2305,1.2667,1.273,1.3346,1.4196,1.521,1.6123,1.7588,1.9412,0.0,2.2346,0.0,0.0,0.0,0.0,2.7187,2.7695,2.874,2.9373,2.9364,2.9021,0.0,2.8301,0.0,0.0,0.0,0.0,2.4652,0.0,0.0,0.0,0.0,0.0,0.0,0.0,0.0,2.3915,0.0,2.4979,0.0,0.0,0.0,0.0,0.0,0.0,0.0,2.7883,0.0,0.0,0.0,3.113,0.0,0.0,0.0,3.4979,3.7507,3.8868,3.8198,4.0045,4.0785,3.9854,4.0501,4.0908,4.0908,4.1147,4.1286,4.1286,4.1651,4.2121,4.267,4.3245,4.382,4.4382,4.459,4.4695,4.4695,4.4695,4.4695,4.4695,4.4695,4.4695,4.4695,4.4695,4.4695,4.4695,4.4695,4.4695,4.4776,1.092,1.1032,1.1075,1.1346,1.1617,1.1906,1.2243,1.2581,1.287,1.3075,1.3292,1.3588,1.3972,1.4101,1.4155,1.4155,1.4545,1.47,1.4492,1.4491,1.4298,1.3934,1.3144,1.2652,1.2489,1.282,1.2885,1.2655,1.3413,1.3595,1.3253,1.3807,1.4632,1.5691,1.6749,1.8429,2.0543,0.0,2.3502,2.5595,2.6123,2.73,2.8698,2.8089,2.8457,2.9326,2.9803,2.9882,2.9735,2.9521,2.9191,2.8809,2.8203,2.7448,2.6588,0.0,0.0,0.0,2.3898,0.0,0.0,0.0,0.0,0.0,0.0,0.0,0.0,0.0,0.0,0.0,0.0,0.0,0.0,0.0,0.0,2.7138,0.0,0.0,0.0,0.0,0.0,0.0,0.0,3.712,3.8368,3.7731,4.003,4.0965,3.9771,4.0522,4.1022,4.1022,4.1211,4.1286,4.1286,4.1911,4.2487,4.301,4.3598,4.4173,4.4695,4.4695,4.4695,4.4695,4.4695,4.4695,4.4695,4.4695,4.4695,4.4695,4.4695,4.4695,4.4695,4.4695,4.4695,4.4695,1.0972,1.0888,1.0797,1.1081,1.134,1.1695,1.2213,1.2744,1.3093,1.3105,1.3785,1.4262,1.4298,1.4757,1.5066,1.5066,1.5318,1.5451,1.5458,1.5466,1.5535,1.5698,1.5127,1.4944,1.525,1.46,1.3913,1.3275,1.3428,1.338,1.3133,1.4045,1.5216,1.6585,1.7399,1.8931,2.0962,2.2237,2.3016,2.3466,2.4325,2.5463,2.6856,0.0,3.0117,3.0215,3.0684,0.0,3.0244,3.0684,2.9971,2.8889,2.8859,2.8301,0.0,0.0,0.0,0.0,0.0,2.4294,0.0,2.551,0.0,0.0,0.0,0.0,2.6285,0.0,0.0,0.0,0.0,0.0,0.0,0.0,0.0,0.0,0.0,0.0,0.0,0.0,0.0,0.0,0.0,3.6174,3.7157,0.0,4.0243,4.1182,4.0057,4.0823,4.1286,4.1286,4.1286,4.1286,4.1286,4.1911,4.2487,4.301,4.3598,4.4173,4.4695,4.4695,4.4695,4.4695,4.4695,4.4695,4.4695,4.4695,4.4695,4.4695,4.4695,4.4695,4.4695,4.4695,4.4695,4.4695,1.0497,1.0784,1.1044,1.1322,1.1593,1.2009,1.2719,1.2828,1.2811,1.278,1.3811,1.44,1.4016,1.5118,1.5815,1.5652,1.6047,1.6226,1.6031,1.603,1.5956,1.5807,1.4675,1.4083,1.4214,1.3667,1.3368,1.3361,1.3857,1.3941,1.3649,1.4489,1.5198,1.5807,1.7424,1.8927,0.0,0.0,0.0,0.0,0.0,2.8211,2.821,0.0,2.9961,3.0264,3.0723,3.0791,3.0684,3.084,3.0596,3.0176,2.9863,2.9375,2.8787,2.79,2.7554,2.7307,2.6605,2.6642,2.6884,2.6867,2.7693,2.8434,0.0,0.0,0.0,0.0,0.0,0.0,0.0,0.0,0.0,0.0,0.0,0.0,0.0,0.0,0.0,0.0,0.0,0.0,0.0,0.0,0.0,0.0,3.9635,0.0,3.978,4.0349,4.0881,4.1286,4.1286,4.1286,4.1286,4.2252,4.2827,4.301,4.3977,4.4512,4.4695,4.4695,4.4695,4.4695,4.4695,4.4695,4.4695,4.4695,4.4695,4.4695,4.4695,4.4695,4.4695,4.4695,4.4695,4.4803,0.9816,1.0144,1.0625,1.138,1.1882,1.2388,1.3009,1.285,1.282,1.3296,1.4017,1.4568,1.4673,1.582,1.6475,1.6214,1.6756,1.7049,1.6913,1.69,1.68,1.6597,1.5667,1.5108,1.502,1.4737,1.4566,1.4492,1.4739,1.4528,1.3915,1.4864,1.5465,1.5842,1.7814,1.9525,2.1022,2.2392,2.4197,0.0,0.0,2.8695,0.0,0.0,3.0156,3.0684,3.084,3.0889,3.0889,3.0889,3.0889,3.081,3.0342,3.001,2.9676,2.8982,2.8786,2.8685,2.7994,2.8127,2.8441,2.8313,2.8786,2.9306,2.9573,0.0,2.9038,0.0,0.0,0.0,0.0,0.0,0.0,0.0,0.0,0.0,0.0,0.0,0.0,0.0,0.0,0.0,0.0,0.0,0.0,0.0,0.0,0.0,0.0,4.0122,4.0672,4.1273,4.1286,4.1286,4.1286,4.2422,4.2997,4.301,4.4159,4.4695,4.4695,4.4695,4.4695,4.4695,4.4695,4.4695,4.4695,4.4695,4.4695,4.4695,4.4695,4.4695,4.4695,4.4695,4.4695,4.4857,0.9112,0.9239,0.9766,1.1292,1.2177,1.2795,1.3111,1.2832,1.3095,1.4479,1.4436,1.4772,1.6116,1.6799,1.705,1.6803,1.7469,1.795,1.8033,1.8052,1.8045,1.8042,1.7998,1.7843,1.7558,1.7563,1.7168,1.6392,1.5841,1.4987,1.3894,1.5065,1.5972,1.6669,1.8494,0.0,2.2814,2.3858,2.4609,2.5273,2.6683,2.6932,2.6736,2.921,3.0645,3.1366,3.1016,3.0889,3.0889,3.0889,3.0889,3.081,3.0342,3.0195,3.0107,2.9696,2.9486,2.9361,2.9173,2.8725,2.8615,2.9861,2.9132,2.8708,3.1015,3.0778,2.9869,0.0,0.0,0.0,0.0,0.0,0.0,0.0,0.0,0.0,0.0,0.0,0.0,0.0,0.0,0.0,0.0,0.0,0.0,0.0,0.0,0.0,0.0,4.0148,4.0698,4.1273,4.1286,4.1286,4.1286,4.2422,4.2997,4.301,4.4159,4.4695,4.4695,4.4695,4.4695,4.4695,4.4695,4.4695,4.4695,4.4695,4.4695,4.4695,4.4695,4.4695,4.4695,4.4695,4.4695,4.4884,1.0495,1.1266,1.1903,1.2332,1.2409,1.275,1.3833,1.3128,1.2894,1.4165,1.468,1.5185,1.5801,1.712,1.7956,1.7889,1.807,1.83,1.8588,1.8581,1.8616,1.8682,1.7868,1.7266,1.6941,1.5868,1.5155,1.479,1.4194,1.3755,1.3472,1.4172,1.5172,1.6425,1.766,1.9598,2.1962,2.2578,2.3371,2.4461,2.6993,2.7166,2.6142,2.839,2.96,3.0161,3.0702,3.0889,3.0889,3.0889,3.0889,3.081,3.0342,3.0195,3.0049,2.9307,2.9369,2.9614,2.9199,2.9583,3.0214,3.0906,3.1128,3.1315,3.1899,3.154,3.0743,2.9428,0.0,0.0,0.0,0.0,0.0,0.0,0.0,0.0,0.0,0.0,0.0,0.0,0.0,0.0,0.0,0.0,0.0,0.0,0.0,0.0,0.0,0.0,4.1129,4.1311,4.1286,4.1286,4.1286,4.2422,4.2997,4.301,4.4159,4.4695,4.4695,4.4695,4.4695,4.4695,4.4695,4.4695,4.4695,4.4695,4.4695,4.4695,4.4695,4.4695,4.4695,4.4695,4.4695,4.4979,1.0239,1.1515,1.2463,1.2583,1.2569,1.2734,1.3377,1.3317,1.3571,1.4654,1.4667,1.495,1.5989,1.6965,1.7498,1.7389,1.83,1.8957,1.9168,1.9323,1.9445,1.948,1.8641,1.8003,1.7682,1.6566,0.0,1.5154,1.5035,1.4551,1.3812,1.5013,1.6073,1.7002,1.8218,2.0101,2.246,2.3399,2.4033,2.461,2.6655,2.7,0.0,2.8226,2.9313,2.996,3.0655,3.0762,3.0586,3.0586,3.0469,3.0302,3.0028,2.995,2.9852,2.9484,2.9742,3.0024,2.9688,3.0134,3.0697,3.0772,3.0905,3.1172,3.1801,3.1724,3.1311,3.0424,3.0278,2.9885,2.8544,0.0,0.0,0.0,0.0,0.0,0.0,0.0,0.0,0.0,0.0,0.0,0.0,0.0,0.0,0.0,0.0,0.0,0.0,0.0,0.0,4.0894,4.1155,4.1286,4.1286,4.22,4.2775,4.301,4.3925,4.446,4.4695,4.4695,4.4695,4.4695,4.4695,4.4695,4.4695,4.4695,4.4695,4.4695,4.4695,4.4695,4.4695,4.4695,4.5006,4.5702,0.9708,1.1331,1.2611,1.2771,1.292,1.2884,1.2492,1.3226,1.416,1.5191,1.4306,1.4266,1.6118,1.653,1.656,1.633,1.8309,1.9637,1.9738,2.0081,2.0248,2.0187,1.9746,1.9305,1.8903,1.8258,1.7421,1.644,1.6695,1.6029,1.4527,1.6209,1.7261,1.777,1.9133,0.0,0.0,2.5218,2.5551,2.5018,2.5826,2.6393,2.6883,2.806,2.9107,3.0006,3.0528,3.0459,3.0127,3.0176,2.9912,2.9588,2.953,2.951,2.9528,2.9729,3.0023,3.0273,3.0106,3.0368,3.0594,3.018,2.9787,2.9838,3.1176,3.1424,3.1359,3.132,3.2044,3.202,2.981,0.0,0.0,0.0,0.0,0.0,0.0,0.0,0.0,0.0,0.0,0.0,0.0,0.0,0.0,0.0,0.0,0.0,0.0,0.0,0.0,4.0489,4.0946,4.1207,4.1286,4.1911,4.2487,4.301,4.3598,4.4173,4.4695,4.4695,4.4695,4.4695,4.4695,4.4695,4.4695,4.4695,4.4695,4.4695,4.4695,4.4695,4.4695,4.4695,4.5422,4.6531,1.2298,1.3858,1.477,1.4371,1.421,1.3786,1.2807,1.2135,1.2226,1.3672,1.3243,1.3326,1.4731,1.6087,1.6899,1.6856,1.8547,1.9718,2.0005,2.0347,2.0421,2.0193,2.0104,1.969,1.8916,1.8299,1.755,1.6646,1.5794,1.5227,1.496,1.4557,1.5416,1.7336,0.0,0.0,2.3408,2.6127,2.6052,2.4165,2.47,2.5109,2.5519,2.6176,2.7325,2.8731,2.9553,2.9774,2.9764,3.0078,2.9912,2.953,2.9141,2.9033,2.8965,2.8677,2.8945,2.9353,2.9299,2.9978,3.0667,3.0611,3.0528,3.054,3.0798,3.0569,3.0156,2.977,3.0459,3.0878,3.0102,3.0086,0.0,0.0,0.0,0.0,0.0,0.0,0.0,0.0,0.0,0.0,0.0,0.0,0.0,0.0,0.0,0.0,0.0,0.0,0.0,0.0,4.075,4.079,0.0,4.1911,4.2487,4.301,4.3598,4.4173,4.4695,4.4695,4.4695,4.4695,4.4695,4.4695,4.4695,4.4695,4.4695,4.4695,4.4695,4.4695,4.4695,4.4695,4.5422,4.6426,1.1515,1.2949,1.3914,1.3514,1.3239,1.2881,1.2328,1.1435,1.1417,1.3022,1.2825,1.3098,1.4754,1.5526,1.6268,1.7179,1.8702,1.9776,2.0117,2.0429,2.0545,2.045,2.0461,2.0267,1.9846,1.923,1.8524,1.7629,1.723,1.6765,1.6308,1.6788,1.7704,1.8963,0.0,2.1886,0.0,2.4956,2.4808,2.387,2.3655,2.4075,2.4883,2.512,2.6511,2.8391,2.9018,2.9383,2.9598,2.9541,2.9394,2.916,2.873,2.8594,2.8582,2.852,2.8797,2.9132,2.9317,2.9833,3.0414,3.0652,3.0714,3.0714,3.0714,3.0874,3.0764,2.9849,3.0398,3.1035,3.09,3.1703,3.2732,0.0,0.0,0.0,0.0,0.0,0.0,0.0,0.0,0.0,0.0,0.0,0.0,0.0,0.0,0.0,0.0,0.0,0.0,0.0,0.0,0.0,4.1286,0.0,4.216,4.2997,4.3297,4.3885,4.4695,4.4695,4.4695,4.4695,4.4695,4.4695,4.4695,4.4695,4.4695,4.4695,4.4695,4.4695,4.4695,4.4695,4.506,4.5609,1.0823,1.1994,1.2916,1.2647,1.2201,1.1903,1.1912,1.1136,1.0983,1.2309,1.2218,1.2616,1.4155,1.4674,1.5461,1.6823,1.8638,1.9821,2.0086,2.0484,2.0646,2.0508,2.0699,2.0712,2.0525,2.01,1.9526,1.8771,1.88,1.8287,1.7291,1.8784,1.9793,2.0409,2.2193,2.3384,2.4113,2.3707,2.3526,2.3472,2.2847,2.3399,2.4591,2.449,2.6037,2.8332,2.8552,2.9105,2.9667,2.9199,2.9053,2.8994,2.8672,2.8591,2.8618,2.8897,2.9193,2.9467,2.9786,3.0088,3.0356,3.0615,3.0714,3.0657,3.0563,3.1174,3.1416,3.0367,3.0756,3.1428,3.1997,3.3046,3.3829,0.0,0.0,0.0,0.0,0.0,0.0,0.0,0.0,0.0,0.0,0.0,0.0,0.0,0.0,0.0,0.0,0.0,0.0,0.0,0.0,4.0803,4.1638,0.0,4.2017,4.2997,4.3114,4.3715,4.4695,4.4695,4.4695,4.4695,4.4695,4.4695,4.4695,4.4695,4.4695,4.4695,4.4695,4.4695,4.4721,4.4838,4.4891,4.5067,1.2985,1.3616,1.3879,1.3613,1.2779,1.2186,1.2323,1.1278,1.0562,1.0702,1.0816,1.0939,1.1099,1.3383,1.4973,1.5136,1.8156,1.996,1.9743,2.0578,2.0711,1.992,2.0641,2.0695,1.99,2.0057,1.999,1.9679,1.8909,1.7942,1.6792,1.7261,1.829,1.9851,2.1472,2.2355,2.2692,2.3816,2.3562,2.2385,2.2529,2.3399,2.4537,2.413,2.5759,2.8258,2.7862,2.8775,3.0068,2.9676,2.954,2.953,2.9491,2.9481,2.9536,2.9796,3.0101,3.0432,3.0713,3.1007,3.1181,3.0808,3.0714,3.06,3.016,3.045,3.0781,3.0646,3.0688,3.1361,3.3318,3.226,3.2651,3.7495,0.0,0.0,0.0,0.0,0.0,0.0,0.0,0.0,0.0,0.0,0.0,0.0,0.0,0.0,0.0,0.0,0.0,4.2605,4.1194,4.1181,4.2814,4.2343,4.2396,4.301,4.3546,4.4121,4.4695,4.4695,4.4695,4.4695,4.4695,4.4695,4.4695,4.4695,4.4695,4.4695,4.4695,4.4695,4.476,4.5309,4.5518,4.5776,1.1483,1.1767,1.1908,1.1806,1.1524,1.1305,1.137,1.1005,1.0732,1.0732,1.0708,1.1343,1.3046,1.4222,1.5754,1.7829,1.9124,1.9948,2.0267,2.061,2.0577,2.0064,2.0735,2.0862,2.0334,2.0608,2.0615,2.0327,1.9793,1.9263,1.8818,1.9278,2.0297,2.1821,2.2128,2.2585,2.3043,2.3066,2.2841,2.244,2.2381,2.2795,2.3392,2.3195,2.4959,2.751,2.7302,2.8709,3.0596,3.042,3.0176,2.9931,2.9676,2.9598,2.9654,2.9915,3.0258,3.0553,3.0836,3.1131,3.1402,3.1474,3.1467,3.1426,3.124,3.155,3.1681,3.088,3.0932,3.1312,3.1862,3.2777,3.3775,3.4785,0.0,0.0,0.0,0.0,0.0,0.0,0.0,0.0,0.0,0.0,0.0,0.0,0.0,0.0,0.0,0.0,0.0,4.2918,0.0,4.1234,4.2971,4.2487,4.2487,4.301,4.3598,4.4173,4.4695,4.4695,4.4695,4.4695,4.4695,4.4695,4.4695,4.4695,4.4695,4.4734,4.51,4.5243,4.5309,4.5924,4.6133,4.6256,1.0373,1.046,1.0571,1.0619,1.0714,1.0769,1.0843,1.0941,1.0978,1.0978,1.0917,1.1613,1.3602,1.4558,1.6103,1.8706,1.9554,2.0221,2.0767,2.0923,2.0856,2.0484,2.0969,2.1102,2.0808,2.0922,2.0922,2.0833,2.039,2.007,1.9833,2.0023,2.0959,2.2452,2.2156,2.2371,2.2913,2.2589,2.2469,2.2491,2.2462,2.252,2.2661,2.3154,2.4849,2.7043,2.7435,2.9007,3.0889,3.0889,3.0674,3.0351,3.0077,2.9989,3.0036,3.0413,3.0694,3.0964,3.1327,3.1587,3.1816,3.1964,3.2016,3.1974,3.185,3.2171,3.2191,3.1122,3.1181,3.1222,3.0621,3.2388,3.3696,3.296,3.4577,0.0,0.0,0.0,0.0,0.0,0.0,3.9056,3.8217,0.0,0.0,0.0,0.0,0.0,0.0,0.0,0.0,0.0,0.0,0.0,4.3258,4.2709,4.2709,4.3271,4.3859,4.433,4.4695,4.4525,4.4447,4.4447,4.4447,4.4447,4.4473,4.4825,4.4956,4.5021,4.5622,4.5872,4.595,4.6512,4.6734,4.6804,1.049,1.0612,1.0732,1.0884,1.0911,1.0958,1.1169,1.1193,1.1196,1.1196,1.1193,1.1227,1.1227,1.3772,1.5672,1.6122,1.906,2.0931,2.0974,2.1614,2.171,2.1122,2.1422,2.1442,2.1109,2.0828,2.0822,2.1109,2.0484,1.9757,1.8896,1.8309,1.8991,2.0748,2.1084,2.1355,2.1694,2.268,2.2747,2.2272,2.2849,2.2877,2.2774,2.4447,2.5859,2.7164,2.8415,2.9756,3.0889,3.0889,3.0889,3.0879,3.0879,3.0869,3.1015,3.1604,3.1777,3.1921,3.2516,3.2688,3.2574,3.2119,3.2016,3.1902,3.1485,3.1723,3.1891,3.1491,3.1398,3.1118,3.017,3.0424,3.1473,3.372,3.3548,3.4293,0.0,3.7333,0.0,0.0,4.1428,4.175,4.1737,0.0,0.0,0.0,0.0,0.0,0.0,0.0,0.0,4.2971,4.1887,0.0,4.3873,4.3297,4.3297,4.3899,4.4447,4.4695,4.4682,4.4134,4.3912,4.3912,4.3912,4.3912,4.4004,4.5113,4.5596,4.5648,4.6238,4.6501,4.6567,4.7085,4.7294,4.7531,1.0965,1.1023,1.1036,1.1087,1.1094,1.1145,1.1189,1.1285,1.1353,1.1353,1.1656,1.1864,1.1864,1.3359,1.4871,1.6195,1.8418,1.9869,2.016,2.1332,2.1817,2.1462,2.1535,2.1442,2.1116,2.1022,2.1015,2.1109,2.0922,2.0657,2.0408,2.019,2.0327,2.0743,2.1496,2.1754,2.1718,2.2463,2.2791,2.2813,2.276,2.2819,2.3091,2.454,2.5898,2.7164,2.8444,2.9746,3.0889,3.0889,3.0889,3.0889,3.0889,3.0889,3.1034,3.1624,3.1787,3.1942,3.2526,3.2698,3.2667,3.2522,3.2481,3.245,3.2333,3.214,3.1974,3.1829,3.1798,3.1612,3.105,3.1903,3.2965,3.3832,3.4394,3.5375,3.7233,0.0,3.8107,3.9355,3.9967,4.0313,4.0313,4.1078,0.0,0.0,0.0,0.0,0.0,0.0,0.0,0.0,4.2121,0.0,4.3886,4.2944,4.2722,4.3297,4.3454,4.3532,4.3545,4.3781,4.369,4.331,4.3729,4.3899,4.3964,4.4696,4.523,4.5661,4.6251,4.6721,4.714,4.7702,4.7911,4.7995,1.1179,1.1196,1.1217,1.1274,1.1285,1.1302,1.1324,1.1416,1.1477,1.1477,1.1776,1.1979,1.1979,1.2852,1.4137,1.5925,1.8222,1.9694,2.0073,2.1501,2.2271,2.2084,2.1863,2.1662,2.1443,2.1223,2.1109,2.1109,2.1109,2.1109,2.1109,2.1109,2.1078,2.1067,2.1776,2.2005,2.1902,2.2508,2.2857,2.2884,2.2804,2.2892,2.3261,2.4579,2.5592,2.6529,2.8256,2.9442,3.0245,3.0733,3.0889,3.0889,3.0889,3.0976,3.1141,3.1653,3.1874,3.2076,3.2584,3.2698,3.2698,3.2698,3.2698,3.2698,3.2698,3.2481,3.2222,3.2047,3.2016,3.1871,3.1464,3.2488,3.3456,3.3585,3.4848,3.6119,3.6936,3.767,3.8586,0.0,0.0,4.0287,0.0,4.1337,4.1598,0.0,0.0,0.0,0.0,0.0,0.0,4.2944,4.2082,4.2252,4.3546,4.2866,4.2775,4.3337,4.3101,4.2997,4.301,4.3389,4.3363,4.3023,4.365,4.4017,4.4238,4.4799,4.5505,4.6275,4.6656,4.7153,4.7689,4.8054,4.8214,4.8214,1.1227,1.123,1.1274,1.1382,1.1406,1.1453,1.1563,1.1584,1.1584,1.1584,1.1619,1.1655,1.1691,1.2363,1.3535,1.5336,1.8256,2.015,2.056,2.2022,2.2893,2.2893,2.2352,2.2017,2.2017,2.1443,2.1129,2.1109,2.1109,2.1109,2.1109,2.1109,2.1254,2.158,2.194,2.2092,2.2155,2.2819,2.2937,2.2651,2.2957,2.3106,2.3261,2.4579,2.5102,2.5431,2.7988,2.889,2.9107,3.046,3.0889,3.0889,3.0918,3.1112,3.1412,3.1701,3.2047,3.2373,3.2641,3.2698,3.2698,3.2698,3.2698,3.2698,3.2698,3.2698,3.2584,3.215,3.2067,3.195,3.1643,3.2485,3.3274,3.3309,3.5134,3.6578,3.6794,3.7717,3.9178,4.1324,4.109,4.1282,4.2671,4.233,4.1624,0.0,0.0,0.0,0.0,0.0,4.3585,4.1416,4.1911,4.2474,4.2984,4.2918,4.3167,4.3716,4.3245,4.2971,4.2945,4.3023,4.3036,4.3023,4.365,4.4173,4.4682,4.5283,4.6197,4.7189,4.7189,4.7542,4.8068,4.8068,4.8068,4.8068,1.1487,1.1511,1.1525,1.1558,1.1565,1.1575,1.1613,1.1584,1.1584,1.1584,1.1871,1.2155,1.247,1.2896,1.3468,1.4252,1.7057,1.9298,2.0525,2.2022,2.2893,2.2893,2.2512,2.2318,2.2318,2.1744,2.1368,2.1109,2.1109,2.1109,2.1109,2.1109,2.1177,2.1317,2.185,2.2123,2.2223,2.285,2.3062,2.3003,2.3076,2.3106,2.3261,2.4579,2.5102,2.5431,2.7988,2.889,2.9107,3.046,3.0889,3.0947,3.1131,3.1412,3.1701,3.1787,3.2047,3.2373,3.2641,3.2698,3.2698,3.2698,3.2698,3.2698,3.2698,3.2698,3.2667,3.2564,3.2543,3.267,3.3147,3.413,3.5024,3.554,3.6742,3.7506,3.7156,3.7641,3.8394,3.9398,3.9327,3.9696,4.0894,4.054,4.0827,0.0,0.0,4.2618,4.3624,4.3493,4.2984,4.2016,4.2121,4.2474,4.2984,4.2135,4.1756,4.1925,4.2644,4.2788,4.2421,4.3297,4.3441,4.3023,4.365,4.3977,4.4121,4.4709,4.5348,4.6001,4.6001,4.6382,4.6907,4.6907,4.6907,4.6907,1.1603,1.1584,1.1584,1.1584,1.1584,1.1584,1.1584,1.1584,1.1584,1.1584,1.1799,1.2086,1.2474,1.2864,1.35,1.4564,1.6947,1.8734,1.9541,2.1672,2.2893,2.2893,2.2579,2.2358,2.2225,2.1816,2.1442,2.1109,2.1109,2.1109,2.1109,2.1109,2.1211,2.1406,2.1877,2.2201,2.24,2.2908,2.3106,2.3106,2.3106,2.3106,2.3168,2.3907,2.4185,2.4456,2.6451,2.7538,2.8236,2.954,3.048,3.1112,3.1238,3.1643,3.2018,3.2018,3.2248,3.2516,3.2669,3.2698,3.2698,3.2698,3.2698,3.2698,3.2698,3.2698,3.2698,3.2698,3.2698,3.2815,3.3207,3.4657,3.5879,3.6235,3.7481,3.839,3.8297,3.8299,3.8513,3.9113,3.9144,3.9444,4.0306,4.0148,4.0581,4.2096,4.1951,0.0,4.3101,4.2827,4.2487,4.2199,4.2186,4.2343,4.2631,4.2017,4.1703,4.1716,4.233,4.2605,4.2592,4.3494,4.3729,4.3441,4.4016,4.4421,4.4683,4.4682,4.5217,4.599,4.57,4.5976,4.6501,4.6501,4.6501,4.6501,1.1584,1.1584,1.1584,1.1584,1.1584,1.1584,1.1584,1.1636,1.1614,1.1614,1.171,1.1904,1.2301,1.2723,1.361,1.5283,1.7081,1.832,1.8699,2.1355,2.2893,2.2893,2.2619,2.2345,2.2058,2.1756,2.1442,2.1109,2.1109,2.1129,2.1176,2.1176,2.1386,2.1808,2.2124,2.2472,2.2843,2.3126,2.3252,2.3252,2.3201,2.3186,2.3179,2.3128,2.3106,2.3293,2.461,2.592,2.7194,2.8474,2.9943,3.1276,3.1354,3.1759,3.2248,3.2334,3.2516,3.2698,3.2698,3.2698,3.2698,3.2698,3.2698,3.2698,3.2698,3.2698,3.2698,3.2698,3.2698,3.2755,3.2955,3.4597,3.618,3.6928,3.8032,3.9133,3.9993,3.9477,3.9147,3.9633,3.964,3.9797,4.0332,4.0319,4.0515,4.1116,4.1155,4.1234,4.1442,4.1846,4.2107,4.2186,4.2186,4.2186,4.2186,4.2186,4.2238,4.2317,4.2408,4.2709,4.3167,4.3742,4.403,4.4056,4.4486,4.4995,4.5426,4.4904,4.5283,4.6159,4.5648,4.5794,4.624,4.624,4.624,4.624,1.1584,1.1584,1.1584,1.1584,1.1584,1.1584,1.1584,1.1685,1.1759,1.1759,1.2209,1.266,1.2993,1.3466,1.3941,1.4531,1.6058,1.7888,2.0098,2.1919,2.2893,2.2893,2.2853,2.2652,2.2358,2.1856,2.1442,2.1109,2.1109,2.1236,2.1515,2.1515,2.1966,2.279,2.2855,2.3245,2.3868,2.3932,2.3932,2.391,2.3632,2.3515,2.3493,2.3215,2.3106,2.3293,2.461,2.592,2.7194,2.8474,2.9805,3.1054,3.1556,3.1787,3.1971,3.2498,3.2669,3.2698,3.2698,3.2698,3.2698,3.2698,3.2698,3.2698,3.2698,3.2698,3.2698,3.2698,3.2698,3.3001,3.4043,3.4536,3.6133,4.0254,3.9496,3.936,4.2166,4.0977,3.9863,4.0011,3.9765,3.9797,4.0332,3.998,3.9965,4.0489,4.0528,4.0984,4.2003,4.1664,4.1664,4.2173,4.2186,4.2186,4.2186,4.2186,4.2434,4.2866,4.3402,4.3677,4.3781,4.433,4.4564,4.4577,4.4656,4.4747,4.4838,4.4734,4.4812,4.4969,4.4878,4.4891,4.4969,4.4969,4.4969,4.4969,1.1857,1.1857,1.1857,1.1857,1.1857,1.1857,1.1857,1.1911,1.1955,1.1955,1.2388,1.2847,1.3144,1.362,1.402,1.4358,1.5823,1.7199,1.8431,2.0733,2.2451,2.3354,2.3388,2.3168,2.2665,2.2238,2.1877,2.1577,2.1577,2.165,2.1823,2.1823,2.2152,2.2733,2.293,2.3322,2.3851,2.4014,2.4118,2.4104,2.3918,2.3859,2.3845,2.3691,2.3632,2.3728,2.4325,2.5258,2.6393,2.7692,2.9005,3.0285,3.1441,3.1903,3.2133,3.2584,3.2698,3.2698,3.2698,3.2698,3.2698,3.2698,3.2698,3.2698,3.2698,3.2698,3.2698,3.2698,3.2698,3.2869,3.3445,3.4071,3.5441,3.8319,3.8389,3.8879,4.1163,4.0786,4.0333,4.052,4.0535,4.0594,4.0855,4.0646,4.0607,4.0855,4.0868,4.1141,4.1677,4.1755,4.1911,4.2186,4.2186,4.2343,4.2631,4.2631,4.2918,4.348,4.3781,4.4056,4.4343,4.4577,4.4695,4.4695,4.4695,4.4695,4.4695,4.4695,4.4695,4.4695,4.4695,4.4695,4.4695,4.4695,4.4695,4.4695,1.2098,1.2098,1.2098,1.2098,1.2098,1.2098,1.2098,1.2128,1.219,1.2261,1.2667,1.3068,1.3447,1.3889,1.4255,1.452,1.5626,1.6476,1.6846,1.9084,2.1088,2.2599,2.297,2.3049,2.2907,2.2572,2.2278,2.1984,2.1984,2.2024,2.2084,2.219,2.2456,2.2848,2.3212,2.3582,2.3977,2.4207,2.4346,2.4338,2.4258,2.4228,2.4221,2.414,2.4118,2.4118,2.4118,2.474,2.5833,2.7184,2.8493,2.9833,3.1425,3.2112,3.2362,3.2643,3.2698,3.2698,3.2698,3.2698,3.2698,3.2698,3.2698,3.2698,3.2698,3.2698,3.2698,3.2698,3.2698,3.2698,3.2698,3.3688,3.5085,3.6805,3.7594,3.8688,4.069,4.0747,4.0669,4.0883,4.1122,4.1286,4.1286,4.1286,4.1286,4.1286,4.1442,4.152,4.152,4.2056,4.2447,4.2591,4.2461,4.2644,4.3206,4.3219,4.3506,4.4095,4.4095,4.4304,4.4695,4.4695,4.4695,4.4695,4.4695,4.4695,4.4695,4.4695,4.4695,4.4695,4.4695,4.4695,4.4695,4.4695,4.4695,4.4695,1.2098,1.2098,1.2098,1.2098,1.2098,1.2098,1.2098,1.222,1.2422,1.2791,1.3301,1.3784,1.4249,1.4663,1.4927,1.4966,1.5081,1.576,1.7241,1.7545,1.8146,1.9215,2.0455,2.1655,2.2866,2.2572,2.2278,2.1984,2.1984,2.2124,2.2385,2.276,2.328,2.3889,2.4228,2.46,2.4986,2.502,2.502,2.499,2.469,2.4565,2.4536,2.4228,2.4118,2.4118,2.4118,2.4891,2.6168,2.7588,2.8941,3.0322,3.188,3.2362,3.2428,3.264,3.2698,3.2698,3.2698,3.2698,3.2698,3.2698,3.2698,3.2698,3.2698,3.2698,3.2698,3.2698,3.2698,3.2698,3.2698,3.3688,3.5658,3.9145,3.889,3.9508,4.3134,4.2034,4.0883,4.0908,4.1122,4.1286,4.1286,4.1286,4.1286,4.1286,4.1833,4.2121,4.2121,4.2644,4.3206,4.3755,4.3232,4.3232,4.3834,4.3834,4.4095,4.4643,4.4643,4.4656,4.4695,4.4695,4.4695,4.4695,4.4695,4.4695,4.4695,4.4695,4.4695,4.4695,4.4695,4.4695,4.4695,4.4695,4.4695,4.4695,1.2335,1.2335,1.2335,1.2335,1.2335,1.2335,1.2335,1.2383,1.2574,1.2954,1.343,1.3895,1.4365,1.4741,1.5002,1.5002,1.5002,1.5271,1.588,1.5918,1.7431,2.0808,2.1446,2.2258,2.3434,2.3313,2.302,2.2566,2.2566,2.2619,2.2726,2.3066,2.3508,2.4027,2.4367,2.4713,2.5093,2.5093,2.5093,2.5078,2.4954,2.4902,2.4895,2.4763,2.4719,2.4719,2.4719,2.4911,2.5478,2.767,2.8757,2.9599,3.2065,3.2973,3.3149,3.3149,3.313,3.3068,3.277,3.2698,3.2698,3.2698,3.2698,3.2698,3.2698,3.2698,3.2698,3.2698,3.2698,3.2698,3.2698,3.3058,3.4326,3.7168,3.7282,3.8045,4.112,4.1029,4.0861,4.1388,4.1694,4.1977,4.2318,4.2344,4.2344,4.2344,4.2579,4.2696,4.2696,4.3232,4.3807,4.4382,4.4159,4.4159,4.4395,4.4408,4.4486,4.4695,4.4695,4.4695,4.4695,4.4695,4.4695,4.4695,4.4695,4.4695,4.4695,4.4695,4.4695,4.4695,4.4695,4.4695,4.4695,4.4695,4.4695,4.4695,1.2501,1.2501,1.2501,1.2501,1.2501,1.2501,1.2501,1.2501,1.2695,1.3239,1.3548,1.3933,1.4515,1.4818,1.5002,1.5002,1.5002,1.5002,1.5002,1.5002,1.6936,2.1245,2.1356,2.2117,2.3745,2.3716,2.3415,2.2893,2.2893,2.2893,2.29,2.3372,2.3754,2.4027,2.4469,2.4849,2.5093,2.5093,2.5093,2.5093,2.5093,2.5093,2.5093,2.5093,2.5093,2.5093,2.5093,2.4946,2.5174,2.7882,2.8779,2.933,3.2353,3.3527,3.3732,3.366,3.3625,3.3563,3.3234,3.3151,3.3078,3.277,3.2698,3.2698,3.2698,3.2698,3.2739,3.2874,3.2934,3.2946,3.3091,3.3429,3.4332,3.6337,3.6958,3.7976,4.0174,4.0797,4.126,4.1854,4.2242,4.2592,4.2958,4.2997,4.2997,4.2997,4.3193,4.3363,4.3519,4.3925,4.4317,4.4695,4.4695,4.4695,4.4695,4.4695,4.4695,4.4695,4.4695,4.4695,4.4695,4.4695,4.4695,4.4695,4.4695,4.4695,4.4695,4.4695,4.4695,4.4695,4.4695,4.4695,4.4695,4.4695,4.4695,4.4734,1.2501,1.2501,1.2501,1.2501,1.2501,1.2501,1.2501,1.2501,1.2772,1.3586,1.3702,1.4045,1.4887,1.5002,1.5002,1.5002,1.5002,1.5002,1.5002,1.5002,1.6445,1.9661,1.9553,2.0791,2.3739,2.348,2.3173,2.2893,2.2893,2.2893,2.2928,2.3652,2.3993,2.4027,2.4781,2.5093,2.5093,2.5093,2.5093,2.5093,2.5093,2.5093,2.5093,2.5093,2.5093,2.5093,2.5093,2.5093,2.5517,2.8271,2.9182,2.9732,3.2838,3.3962,3.4112,3.4102,3.4102,3.4102,3.4102,3.4102,3.3884,3.2936,3.2719,3.2719,3.2719,3.2719,3.2832,3.3325,3.3418,3.3553,3.4019,3.5045,3.6207,3.7474,3.8657,3.9858,4.1114,4.1811,4.2209,4.2209,4.2683,4.301,4.301,4.301,4.301,4.301,4.3559,4.4134,4.4669,4.4695,4.4695,4.4695,4.4695,4.4695,4.4695,4.4695,4.4695,4.4695,4.4695,4.4695,4.4695,4.4695,4.4695,4.4695,4.4695,4.4695,4.4695,4.4695,4.4695,4.4695,4.4708,4.4708,4.4708,4.4708,4.4708,4.4799,1.2501,1.2501,1.2501,1.2501,1.2501,1.2501,1.2501,1.2501,1.2695,1.32,1.3509,1.3933,1.4515,1.4818,1.5002,1.5002,1.5002,1.5002,1.5002,1.5002,1.6445,1.9661,1.9553,2.0791,2.3739,2.348,2.3173,2.2893,2.2893,2.2893,2.2928,2.3652,2.3993,2.4027,2.4781,2.5093,2.5093,2.5093,2.5093,2.5093,2.5093,2.5093,2.5093,2.5093,2.5093,2.5093,2.5093,2.5093,2.5517,2.8271,2.9346,3.0125,3.3514,3.4759,3.4952,3.4672,3.4578,3.4516,3.4185,3.4102,3.4029,3.3741,3.3668,3.3668,3.3668,3.3668,3.3739,3.3864,3.3895,3.3936,3.4071,3.5104,3.6334,3.7502,3.874,4.0007,4.1385,4.1745,4.2151,4.2948,4.3174,4.3529,4.4119,4.4185,4.4185,4.4185,4.4355,4.4525,4.4695,4.4695,4.4695,4.4695,4.4695,4.4695,4.4695,4.4695,4.4695,4.4695,4.4695,4.4695,4.4695,4.4695,4.4695,4.4695,4.4695,4.4695,4.4695,4.4695,4.4695,4.4747,4.5165,4.5335,4.5374,4.5807,4.595,4.5976,1.2501,1.2501,1.2501,1.2501,1.2501,1.2501,1.2501,1.2501,1.2656,1.3046,1.3432,1.3895,1.4365,1.4741,1.5002,1.5002,1.5002,1.5002,1.5002,1.5002,1.6445,1.9661,1.942,2.0639,2.3739,2.336,2.3053,2.2893,2.2893,2.2893,2.2928,2.3652,2.3993,2.4027,2.4781,2.5093,2.5093,2.5093,2.5093,2.5093,2.5093,2.5093,2.5093,2.5093,2.5093,2.5093,2.5093,2.5093,2.5517,2.8271,3.0248,3.1922,3.4049,3.5015,3.5335,3.5107,3.5055,3.4993,3.4683,3.46,3.46,3.46,3.4361,3.4102,3.4102,3.4102,3.4143,3.433,3.4371,3.4423,3.4569,3.5659,3.6898,3.8108,3.9365,4.0681,4.2011,4.2417,4.2842,4.3527,4.3782,4.4115,4.4642,4.4695,4.4695,4.4695,4.4695,4.4695,4.4695,4.4695,4.4695,4.4695,4.4695,4.4695,4.4695,4.4695,4.4695,4.4695,4.4695,4.4695,4.4695,4.4695,4.4695,4.4708,4.4956,4.506,4.5074,4.5296,4.5415,4.5454,4.582,4.5963,4.6003,4.6384,4.6501,4.6501,1.2501,1.2501,1.2501,1.2501,1.2501,1.2501,1.2501,1.2501,1.2656,1.3046,1.3432,1.3895,1.4365,1.4741,1.5002,1.5002,1.5002,1.5002,1.5002,1.5002,1.6445,1.9661,1.9254,2.047,2.3772,2.3221,2.2893,2.2893,2.2893,2.2928,2.2969,2.3686,2.4027,2.4095,2.4781,2.5093,2.5093,2.5093,2.5093,2.5093,2.5093,2.5093,2.5093,2.5093,2.5093,2.5093,2.5093,2.5093,2.5517,2.8304,3.1442,3.4225,3.4392,3.4891,3.5387,3.5387,3.5387,3.5387,3.5387,3.5387,3.5387,3.5387,3.4797,3.4226,3.4226,3.4226,3.434,3.4765,3.4848,3.5002,3.5499,3.6592,3.7899,3.9157,4.0454,4.1684,4.2834,4.3459,4.3844,4.3832,4.4285,4.4586,4.4654,4.4695,4.4695,4.4695,4.4695,4.4695,4.4695,4.4695,4.4695,4.4695,4.4695,4.4695,4.4695,4.4695,4.4695,4.4695,4.4695,4.4695,4.4695,4.476,4.4747,4.4734,4.54,4.5648,4.5648,4.6238,4.6501,4.6514,4.6567,4.658,4.6593,4.6645,4.6632,4.6567,1.2501,1.2501,1.2501,1.2501,1.2501,1.2501,1.2501,1.2501,1.2656,1.3046,1.3432,1.3895,1.4365,1.4741,1.5002,1.5002,1.5002,1.5002,1.5002,1.5002,1.6445,1.9661,1.9462,2.0783,2.4036,2.3328,2.2893,2.2893,2.2893,2.303,2.3304,2.3789,2.4129,2.4401,2.4883,2.5093,2.5093,2.5093,2.5093,2.5093,2.5093,2.5093,2.5093,2.5093,2.5093,2.5093,2.5093,2.5093,2.5551,2.8583,3.1006,3.3002,3.4372,3.5077,3.5387,3.5387,3.5387,3.5387,3.5387,3.5387,3.5387,3.5387,3.5273,3.5128,3.5128,3.5128,3.5159,3.5262,3.5273,3.5601,3.6692,3.794,3.9216,4.0483,4.1741,4.2681,4.2946,4.3113,4.328,4.3489,4.3615,4.3876,4.434,4.4572,4.4695,4.4695,4.4695,4.4695,4.4695,4.4695,4.4695,4.4695,4.4695,4.4695,4.4695,4.4695,4.4695,4.4695,4.4695,4.4695,4.4721,4.5191,4.5152,4.476,4.5846,4.6042,4.5648,4.6238,4.6501,4.6554,4.697,4.7124,4.7176,4.7649,4.7532,4.7059,1.2501,1.2501,1.2501,1.2501,1.2501,1.2501,1.2501,1.2656,1.2849,1.3081,1.3663,1.413,1.4365,1.4741,1.5002,1.5002,1.5002,1.5002,1.5002,1.5002,1.6445,1.9661,1.9553,2.0906,2.4129,2.3643,2.3261,2.3086,2.3086,2.3213,2.3406,2.3816,2.4163,2.4536,2.4916,2.5093,2.5093,2.5093,2.5093,2.5093,2.5093,2.5093,2.5093,2.5093,2.5093,2.5093,2.5093,2.5517,2.6476,2.8879,3.0877,3.2603,3.4362,3.5139,3.5387,3.5387,3.5387,3.5387,3.5387,3.5387,3.5387,3.5387,3.5387,3.5387,3.5387,3.5387,3.5387,3.5387,3.5387,3.5592,3.6278,3.794,3.9422,4.0106,4.1769,4.3002,4.3002,4.3113,4.324,4.3366,4.3545,4.3764,4.4079,4.4231,4.4367,4.4491,4.4518,4.4572,4.4695,4.4695,4.4695,4.4695,4.4695,4.4695,4.4695,4.4995,4.5126,4.5126,4.4838,4.4852,4.5139,4.5452,4.557,4.5611,4.6499,4.6693,4.6458,4.7061,4.7325,4.7351,4.7623,4.7542,4.7346,4.7633,4.7216,4.6445,1.2501,1.2501,1.2501,1.2501,1.2501,1.2501,1.2501,1.2849,1.3123,1.3197,1.3898,1.4442,1.4519,1.4818,1.5002,1.5002,1.5002,1.5002,1.5002,1.5002,1.6445,1.9661,1.9591,2.097,2.4203,2.4042,2.3748,2.3407,2.3435,2.3545,2.366,2.403,2.4343,2.4683,2.4972,2.5093,2.5093,2.5093,2.5093,2.5093,2.5093,2.5093,2.5093,2.5093,2.5093,2.5093,2.5093,2.5846,2.7094,2.8846,3.0554,3.2254,3.407,3.4984,3.5387,3.5387,3.5387,3.5387,3.5387,3.5387,3.5387,3.5387,3.5387,3.5387,3.5387,3.5387,3.5387,3.5387,3.5387,3.5479,3.5685,3.744,3.901,3.9451,4.1301,4.2737,4.2974,4.3184,4.3338,4.3338,4.3626,4.3804,4.3804,4.3872,4.401,4.4203,4.4231,4.434,4.4545,4.4599,4.4626,4.4626,4.4626,4.4693,4.4852,4.5293,4.5621,4.574,4.5243,4.5269,4.5753,4.5844,4.6092,4.654,4.7192,4.7398,4.7346,4.795,4.8133,4.8041,4.8041,4.7689,4.715,4.7046,4.6419,4.5583,1.2501,1.2501,1.2501,1.2501,1.2501,1.2501,1.2501,1.2849,1.3239,1.3586,1.4053,1.4515,1.4891,1.4968,1.5002,1.5002,1.5002,1.5002,1.5002,1.5002,1.6445,1.9661,1.9784,2.1268,2.4465,2.4499,2.4255,2.375,2.4007,2.4333,2.4708,2.4797,2.5048,2.5351,2.5176,2.5093,2.5093,2.5093,2.5093,2.5093,2.5093,2.5093,2.5093,2.5093,2.5093,2.5093,2.5093,2.5221,2.5678,2.7717,2.9328,3.0836,3.2949,3.4434,3.5387,3.5387,3.5387,3.5387,3.5387,3.5387,3.5387,3.5387,3.5387,3.5387,3.5387,3.5387,3.5387,3.5387,3.5387,3.5747,3.6835,3.7328,3.8287,4.0471,4.1129,4.1741,4.2862,4.303,4.3058,4.3058,4.3295,4.3462,4.3462,4.3736,4.3927,4.3955,4.3955,4.3982,4.3997,4.4231,4.434,4.434,4.434,4.4723,4.5478,4.5322,4.5636,4.6397,4.6318,4.6318,4.6382,4.685,4.6878,4.6567,4.761,4.7793,4.7346,4.795,4.7898,4.7425,4.7425,4.71,4.6525,4.6014,4.5727,4.5531,1.2501,1.2501,1.2501,1.2501,1.2501,1.2579,1.2811,1.3162,1.3586,1.4014,1.4472,1.4818,1.4968,1.5002,1.5002,1.5002,1.5002,1.5002,1.5002,1.5002,1.6445,1.9661,1.9811,2.132,2.4525,2.4599,2.4589,2.4582,2.4579,2.4687,2.4911,2.5164,2.5356,2.5486,2.5381,2.5254,2.5093,2.5093,2.5093,2.5093,2.5093,2.5093,2.5093,2.5093,2.5093,2.5093,2.5093,2.5093,2.539,2.7286,2.8813,3.0295,3.2413,3.3998,3.517,3.5356,3.5387,3.5387,3.5387,3.5387,3.5387,3.5387,3.5387,3.5387,3.5387,3.5387,3.5387,3.5387,3.5387,3.5562,3.6125,3.6824,3.7899,3.9744,4.0628,4.1529,4.2821,4.3002,4.3002,4.3002,4.3113,4.3184,4.3184,4.3308,4.3459,4.3613,4.3613,4.3708,4.3899,4.3997,4.4193,4.4515,4.4709,4.5147,4.5829,4.6182,4.6482,4.6713,4.7041,4.7085,4.697,4.7189,4.7333,4.7482,4.7963,4.7858,4.7291,4.7437,4.7116,4.6583,4.6583,4.633,4.5924,4.5322,4.51,4.506]},{"header":{"parameterUnit":"m.s-1","parameterCategory":1,"la1":30.6,"la2":28.766,"lo1":-90.7593,"lo2":-88.6598,"dx":0.0162,"dy":0.0183,"nx":116,"ny":114,"refTime":"2023-01-05T18:00:00:Z","depth":0,"parameterNumber":3,"parameterNumberName":"V-component_of_WINDS"},"data":[0.0,0.0,0.0,0.0,0.0,0.0,0.0,0.0,0.0,0.0,0.0,0.0,0.0,0.0,0.0,0.0,0.0,0.0,0.0,0.0,0.0,0.0,0.0,0.0,0.0,0.0,0.0,0.0,0.0,0.0,0.0,0.0,0.0,0.0,0.0,0.0,0.0,0.0,0.0,0.0,0.0,0.0,0.0,0.0,0.0,0.0,0.0,0.0,0.0,0.0,0.0,0.0,0.0,0.0,0.0,0.0,0.0,0.0,0.0,0.0,0.0,0.0,0.0,0.0,0.0,0.0,0.0,0.0,0.0,0.0,0.0,0.0,0.0,0.0,0.0,0.0,0.0,0.0,0.0,0.0,0.0,0.0,0.0,0.0,0.0,0.0,0.0,0.0,0.0,0.0,0.0,0.0,0.0,0.0,0.0,0.0,0.0,0.0,0.0,0.0,0.0,0.0,0.0,0.0,0.0,0.0,0.0,0.0,0.0,0.0,0.0,0.0,0.0,0.0,0.0,0.0,0.0,0.0,0.0,0.0,0.0,0.0,0.0,0.0,0.0,0.0,0.0,0.0,0.0,0.0,0.0,0.0,0.0,0.0,0.0,0.0,0.0,0.0,0.0,0.0,0.0,0.0,0.0,0.0,0.0,0.0,0.0,0.0,0.0,0.0,0.0,0.0,0.0,0.0,0.0,0.0,0.0,0.0,0.0,0.0,0.0,0.0,0.0,0.0,0.0,0.0,0.0,0.0,0.0,0.0,0.0,0.0,0.0,0.0,0.0,0.0,0.0,0.0,0.0,0.0,0.0,0.0,0.0,0.0,0.0,0.0,0.0,0.0,0.0,0.0,0.0,0.0,0.0,0.0,0.0,0.0,0.0,0.0,0.0,0.0,0.0,0.0,0.0,0.0,0.0,0.0,0.0,0.0,0.0,0.0,0.0,0.0,0.0,0.0,0.0,0.0,0.0,0.0,0.0,0.0,0.0,0.0,0.0,0.0,0.0,0.0,0.0,0.0,0.0,0.0,0.0,0.0,0.0,0.0,0.0,0.0,0.0,0.0,0.0,0.0,0.0,0.0,0.0,0.0,0.0,0.0,0.0,0.0,0.0,0.0,0.0,0.0,0.0,0.0,0.0,0.0,0.0,0.0,0.0,0.0,0.0,0.0,0.0,0.0,0.0,0.0,0.0,0.0,0.0,0.0,0.0,0.0,0.0,0.0,0.0,0.0,0.0,0.0,0.0,0.0,0.0,0.0,0.0,0.0,0.0,0.0,0.0,0.0,0.0,0.0,0.0,0.0,0.0,0.0,0.0,0.0,0.0,0.0,0.0,0.0,0.0,0.0,0.0,0.0,0.0,0.0,0.0,0.0,0.0,0.0,0.0,0.0,0.0,0.0,0.0,0.0,0.0,0.0,0.0,0.0,0.0,0.0,0.0,0.0,0.0,0.0,0.0,0.0,0.0,0.0,0.0,0.0,0.0,0.0,0.0,0.0,0.0,0.0,0.0,0.0,0.0,0.0,0.0,0.0,0.0,0.0,0.0,0.0,0.0,0.0,0.0,0.0,0.0,0.0,0.0,0.0,0.0,0.0,0.0,0.0,0.0,0.0,0.0,0.0,0.0,0.0,0.0,0.0,0.0,0.0,0.0,0.0,0.0,0.0,0.0,0.0,0.0,0.0,0.0,0.0,0.0,0.0,0.0,0.0,0.0,0.0,0.0,0.0,0.0,0.0,0.0,0.0,0.0,0.0,0.0,0.0,0.0,0.0,0.0,0.0,0.0,0.0,0.0,0.0,0.0,0.0,0.0,0.0,0.0,0.0,0.0,0.0,0.0,0.0,0.0,0.0,0.0,0.0,0.0,0.0,0.0,0.0,0.0,0.0,0.0,0.0,0.0,0.0,0.0,0.0,0.0,0.0,0.0,0.0,0.0,0.0,0.0,0.0,0.0,0.0,0.0,0.0,0.0,0.0,0.0,0.0,0.0,0.0,0.0,0.0,0.0,0.0,0.0,0.0,0.0,0.0,0.0,0.0,0.0,0.0,0.0,0.0,0.0,0.0,0.0,0.0,0.0,0.0,0.0,0.0,0.0,0.0,0.0,0.0,0.0,0.0,0.0,0.0,0.0,0.0,0.0,0.0,0.0,0.0,0.0,0.0,0.0,0.0,0.0,0.0,0.0,0.0,0.0,0.0,0.0,0.0,0.0,0.0,0.0,0.0,0.0,0.0,0.0,0.0,0.0,0.0,0.0,0.0,0.0,0.0,0.0,0.0,0.0,0.0,0.0,0.0,0.0,0.0,0.0,0.0,0.0,0.0,0.0,0.0,0.0,0.0,0.0,0.0,0.0,0.0,0.0,0.0,0.0,0.0,0.0,0.0,0.0,0.0,0.0,0.0,0.0,0.0,0.0,0.0,0.0,0.0,0.0,0.0,0.0,0.0,0.0,0.0,0.0,0.0,0.0,0.0,0.0,0.0,0.0,0.0,0.0,0.0,0.0,0.0,0.0,0.0,0.0,0.0,0.0,0.0,0.0,0.0,0.0,0.0,0.0,0.0,0.0,0.0,0.0,0.0,0.0,0.0,0.0,0.0,0.0,0.0,0.0,0.0,0.0,0.0,0.0,0.0,0.0,0.0,0.0,0.0,0.0,0.0,0.0,0.0,0.0,0.0,0.0,0.0,0.0,0.0,0.0,0.0,0.0,0.0,0.0,0.0,0.0,0.0,0.0,0.0,0.0,0.0,0.0,0.0,0.0,0.0,0.0,0.0,0.0,0.0,0.0,0.0,0.0,0.0,0.0,0.0,0.0,0.0,0.0,0.0,0.0,0.0,0.0,0.0,0.0,0.0,0.0,0.0,0.0,0.0,0.0,0.0,0.0,0.0,0.0,0.0,0.0,0.0,0.0,0.0,0.0,0.0,0.0,0.0,0.0,0.0,0.0,0.0,0.0,0.0,0.0,0.0,0.0,0.0,0.0,0.0,0.0,0.0,0.0,0.0,0.0,0.0,0.0,0.0,0.0,0.0,0.0,0.0,0.0,0.0,0.0,0.0,0.0,0.0,0.0,0.0,0.0,0.0,0.0,0.0,0.0,0.0,0.0,0.0,0.0,0.0,0.0,0.0,0.0,0.0,0.0,0.0,0.0,0.0,0.0,0.0,0.0,0.0,0.0,0.0,0.0,0.0,0.0,0.0,0.0,0.0,0.0,0.0,0.0,0.0,0.0,0.0,0.0,0.0,0.0,0.0,0.0,0.0,0.0,0.0,0.0,0.0,0.0,0.0,0.0,0.0,0.0,0.0,0.0,0.0,0.0,0.0,0.0,0.0,0.0,0.0,0.0,0.0,0.0,0.0,0.0,0.0,0.0,0.0,0.0,0.0,0.0,0.0,0.0,0.0,0.0,0.0,0.0,0.0,0.0,0.0,0.0,0.0,0.0,0.0,0.0,0.0,0.0,0.0,0.0,0.0,0.0,0.0,0.0,0.0,0.0,0.0,0.0,0.0,0.0,0.0,0.0,0.0,0.0,0.0,0.0,0.0,0.0,0.0,0.0,0.0,0.0,0.0,0.0,0.0,0.0,0.0,0.0,0.0,0.0,0.0,0.0,0.0,0.0,0.0,0.0,0.0,0.0,0.0,0.0,0.0,0.0,0.0,0.0,0.0,0.0,0.0,0.0,0.0,0.0,0.0,0.0,0.0,0.0,0.0,0.0,0.0,0.0,0.0,0.0,0.0,0.0,0.0,0.0,0.0,0.0,0.0,0.0,0.0,0.0,0.0,0.0,0.0,0.0,0.0,0.0,0.0,0.0,0.0,0.0,0.0,0.0,0.0,0.0,0.0,0.0,0.0,0.0,0.0,0.0,0.0,0.0,0.0,0.0,0.0,0.0,0.0,0.0,0.0,0.0,0.0,0.0,0.0,0.0,0.0,0.0,0.0,0.0,0.0,0.0,0.0,0.0,0.0,0.0,0.0,0.0,0.0,0.0,0.0,0.0,0.0,0.0,0.0,0.0,0.0,0.0,0.0,0.0,0.0,0.0,0.0,0.0,0.0,0.0,0.0,0.0,0.0,0.0,0.0,0.0,0.0,0.0,0.0,0.0,0.0,0.0,0.0,0.0,0.0,0.0,0.0,0.0,0.0,0.0,0.0,0.0,0.0,0.0,0.0,0.0,0.0,0.0,0.0,0.0,0.0,0.0,0.0,0.0,0.0,0.0,0.0,0.0,0.0,0.0,0.0,0.0,0.0,0.0,0.0,0.0,0.0,0.0,0.0,0.0,0.0,0.0,0.0,0.0,0.0,0.0,0.0,0.0,0.0,0.0,0.0,0.0,0.0,0.0,0.0,0.0,0.0,0.0,0.0,0.0,0.0,0.0,0.0,0.0,0.0,0.0,0.0,0.0,0.0,0.0,0.0,0.0,0.0,0.0,0.0,0.0,0.0,0.0,0.0,0.0,0.0,0.0,0.0,0.0,0.0,0.0,0.0,0.0,0.0,0.0,0.0,0.0,0.0,0.0,0.0,0.0,0.0,0.0,0.0,0.0,0.0,0.0,0.0,0.0,0.0,0.0,0.0,0.0,0.0,0.0,0.0,0.0,0.0,0.0,0.0,0.0,0.0,0.0,0.0,0.0,0.0,0.0,0.0,0.0,0.0,0.0,0.0,0.0,0.0,0.0,0.0,0.0,0.0,0.0,0.0,0.0,0.0,0.0,0.0,0.0,0.0,0.0,0.0,0.0,0.0,0.0,0.0,0.0,0.0,0.0,0.0,0.0,0.0,0.0,0.0,0.0,0.0,0.0,0.0,0.0,0.0,0.0,0.0,0.0,0.0,0.0,0.0,0.0,0.0,0.0,0.0,0.0,0.0,0.0,0.0,0.0,0.0,0.0,0.0,0.0,0.0,0.0,0.0,0.0,0.0,0.0,0.0,0.0,0.0,0.0,0.0,0.0,0.0,0.0,0.0,0.0,0.0,0.0,0.0,0.0,0.0,0.0,0.0,0.0,0.0,0.0,0.0,0.0,0.0,0.0,0.0,0.0,0.0,0.0,0.0,0.0,0.0,0.0,0.0,0.0,0.0,0.0,0.0,0.0,0.0,0.0,0.0,0.0,0.0,0.0,0.0,0.0,0.0,0.0,0.0,0.0,0.0,0.0,0.0,0.0,0.0,0.0,0.0,0.0,0.0,0.0,0.0,0.0,0.0,0.0,0.0,0.0,0.0,0.0,0.0,0.0,0.0,0.0,0.0,0.0,0.0,0.0,0.0,0.0,0.0,0.0,0.0,0.0,0.0,0.0,0.0,0.0,0.0,0.0,0.0,0.0,0.0,0.0,0.0,0.0,0.0,0.0,0.0,0.0,0.0,0.0,0.0,0.0,0.0,0.0,0.0,0.0,0.0,0.0,0.0,0.0,0.0,0.0,0.0,0.0,0.0,0.0,0.0,0.0,0.0,0.0,0.0,0.0,0.0,0.0,0.0,0.0,0.0,0.0,0.0,0.0,0.0,0.0,0.0,0.0,0.0,0.0,0.0,0.0,0.0,0.0,0.0,0.0,0.0,0.0,0.0,0.0,0.0,0.0,0.0,0.0,0.0,0.0,0.0,0.0,0.0,0.0,0.0,0.0,0.0,0.0,0.0,0.0,0.0,0.0,0.0,0.0,0.0,0.0,0.0,0.0,0.0,0.0,0.0,0.0,0.0,0.0,0.0,0.0,0.0,0.0,0.0,0.0,0.0,0.0,0.0,0.0,0.0,0.0,0.0,0.0,0.0,0.0,0.0,0.0,0.0,0.0,0.0,0.0,0.0,0.0,0.0,0.0,0.0,0.0,0.0,0.0,0.0,0.0,0.0,0.0,0.0,0.0,0.0,0.0,0.0,0.0,0.0,0.0,0.0,0.0,0.0,0.0,0.0,0.0,0.0,0.0,0.0,0.0,0.0,0.0,0.0,0.0,0.0,0.0,0.0,0.0,0.0,0.0,0.0,0.0,0.0,0.0,0.0,0.0,0.0,0.0,0.0,0.0,0.0,0.0,0.0,0.0,0.0,0.0,0.0,0.0,0.0,0.0,0.0,0.0,0.0,0.0,0.0,0.0,0.0,0.0,0.0,0.0,0.0,2.1445,1.9518,0.0,0.0,0.0,0.0,0.0,0.0,0.0,0.0,0.0,0.0,0.0,0.0,0.0,0.0,0.0,0.0,0.0,0.0,0.0,0.0,0.0,0.0,0.0,1.3707,1.3946,1.3942,1.4753,0.0,0.0,0.0,0.0,0.0,0.0,0.0,0.0,0.0,1.631,1.7545,1.7545,1.8391,1.9971,1.9107,1.8453,1.7974,0.0,0.0,0.0,0.0,0.0,0.0,0.0,0.0,0.0,0.0,0.0,0.0,0.0,0.0,0.0,0.0,0.0,0.0,0.0,0.0,0.0,0.0,0.0,0.0,0.0,0.0,0.0,0.0,0.0,0.0,0.0,0.0,0.0,0.0,0.0,0.0,0.0,0.0,0.0,0.0,0.0,0.0,0.0,0.0,0.0,0.0,0.0,0.0,0.0,0.0,0.0,0.0,0.0,0.0,0.0,0.0,0.0,0.0,0.0,0.0,0.0,0.0,0.0,0.0,0.0,0.0,0.0,0.0,0.0,0.0,2.2626,2.1075,0.0,0.0,0.0,0.0,0.0,0.0,0.0,0.0,0.0,0.0,0.0,0.0,0.0,0.0,0.0,0.0,0.0,0.0,0.0,0.0,0.0,1.4584,1.4684,1.5336,1.5767,1.5767,1.6436,1.686,1.6901,1.6817,0.0,0.0,0.0,0.0,1.6624,1.678,1.7675,1.9379,1.9956,2.0843,2.198,2.2122,2.1447,2.0064,1.8752,0.0,0.0,0.0,0.0,0.0,0.0,0.0,0.0,0.0,0.0,0.0,0.0,0.0,0.0,0.0,0.0,0.0,0.0,0.0,0.0,0.0,0.0,0.0,0.0,0.0,0.0,0.0,0.0,0.0,0.0,0.0,0.0,0.0,0.0,0.0,0.0,0.0,0.0,0.0,0.0,0.0,0.0,0.0,0.0,0.0,0.0,0.0,0.0,0.0,0.0,0.0,0.0,0.0,0.0,0.0,0.0,0.0,0.0,0.0,0.0,0.0,0.0,0.0,2.7361,2.7595,2.6962,2.6855,2.676,2.6551,2.3538,2.2587,2.2981,2.0977,0.0,0.0,0.0,0.0,0.0,0.0,0.0,0.0,0.0,0.0,0.0,0.0,0.0,0.0,0.0,0.0,0.0,0.0,0.0,1.664,1.7383,1.757,1.7637,1.7638,1.7755,1.7789,1.775,1.7731,0.0,0.0,0.0,1.75,1.7614,1.8299,1.9512,2.124,2.4152,2.5289,2.4708,2.5398,2.5608,2.5266,2.2179,2.0793,2.0663,0.0,0.0,0.0,0.0,0.0,0.0,0.0,0.0,0.0,0.0,0.0,0.0,0.0,0.0,0.0,0.0,0.0,0.0,0.0,0.0,0.0,0.0,0.0,0.0,0.0,0.0,0.0,0.0,0.0,0.0,0.0,0.0,0.0,0.0,0.0,0.0,0.0,0.0,0.0,0.0,0.0,2.588,2.6724,0.0,0.0,0.0,0.0,0.0,0.0,0.0,0.0,0.0,0.0,0.0,0.0,0.0,2.7686,2.7752,2.8391,2.8567,2.8308,2.8994,2.9025,2.8404,2.7812,2.7264,2.6727,2.5688,0.0,2.4462,2.353,0.0,0.0,0.0,0.0,0.0,0.0,0.0,0.0,0.0,0.0,0.0,0.0,0.0,0.0,0.0,0.0,0.0,0.0,0.0,0.0,0.0,1.9995,2.0863,2.0871,2.1304,2.1388,2.0851,1.9903,0.0,0.0,1.8179,1.8344,1.9239,2.0085,2.1812,2.446,2.6427,2.7142,2.668,2.7028,2.7176,2.7071,2.5576,2.4102,2.2672,2.1388,0.0,0.0,0.0,0.0,0.0,0.0,0.0,0.0,0.0,0.0,0.0,0.0,0.0,0.0,0.0,0.0,0.0,0.0,0.0,0.0,0.0,0.0,0.0,0.0,0.0,0.0,0.0,0.0,0.0,0.0,0.0,0.0,0.0,0.0,0.0,0.0,0.0,0.0,0.0,2.5459,2.6371,2.72,2.6995,2.6609,0.0,0.0,0.0,0.0,0.0,0.0,0.0,0.0,0.0,2.9091,2.9112,2.9148,2.921,2.9883,2.9926,2.9326,3.0357,3.0245,2.9137,2.8853,2.8353,2.7714,2.7056,2.6551,2.6097,2.4713,2.375,2.3008,0.0,0.0,0.0,0.0,1.9695,1.9183,0.0,0.0,0.0,0.0,0.0,0.0,0.0,0.0,0.0,0.0,0.0,0.0,1.9863,2.2006,2.334,2.3127,2.3898,2.4126,2.3484,2.2439,2.1565,2.096,2.0107,2.0196,2.1391,2.2495,2.4362,2.703,2.8342,2.8825,2.8494,2.8957,2.9102,2.9005,2.8584,2.708,2.4801,2.3708,2.257,2.142,0.0,0.0,0.0,0.0,0.0,0.0,0.0,0.0,0.0,0.0,0.0,0.0,0.0,0.0,0.0,0.0,0.0,0.0,0.0,0.0,0.0,0.0,0.0,0.0,0.0,0.0,0.0,0.0,0.0,0.0,0.0,0.0,0.0,0.0,0.0,0.0,0.0,2.6786,2.721,2.7794,2.8211,2.8144,0.0,0.0,0.0,0.0,0.0,0.0,2.955,2.9625,2.9869,3.0269,3.0335,3.0414,3.0557,3.1157,3.107,3.0321,3.1141,3.0911,2.975,2.9563,2.9203,2.8695,2.8175,2.7896,2.7664,2.573,2.4745,2.4323,2.3183,2.2641,2.2469,2.2063,2.1546,2.1055,0.0,0.0,0.0,0.0,0.0,0.0,0.0,0.0,0.0,0.0,0.0,2.1671,2.1667,2.3258,2.3996,2.3176,2.389,2.4373,2.4334,2.5029,2.5422,2.5377,2.4537,2.4127,2.4206,2.5852,2.712,2.7928,3.0467,3.1237,3.0403,3.2063,3.2753,3.2573,3.0963,2.9239,2.7408,2.571,2.5327,2.5537,2.1515,0.0,0.0,0.0,0.0,0.0,0.0,0.0,0.0,0.0,0.0,0.0,0.0,0.0,0.0,0.0,0.0,0.0,0.0,0.0,0.0,0.0,0.0,0.0,0.0,0.0,0.0,0.0,0.0,0.0,0.0,0.0,0.0,0.0,0.0,0.0,0.0,0.0,0.0,2.9394,3.0679,0.0,0.0,0.0,0.0,3.1053,3.1085,3.0911,3.0456,3.0447,3.0723,3.1323,3.1343,3.1572,3.2084,3.213,3.2006,3.1696,3.1116,3.0703,3.0433,2.9721,2.9387,2.9348,2.9249,2.9214,2.9035,2.6961,2.5703,2.4979,2.4214,2.3553,2.3125,2.366,2.3829,2.3656,0.0,0.0,0.0,1.531,1.5755,1.6242,1.6554,1.7544,1.8494,1.9116,2.0717,2.2012,2.2572,2.4648,2.6103,2.6367,2.769,2.8042,2.6913,2.7652,2.7406,2.5768,2.6478,2.7413,2.8495,2.9689,3.0676,3.1474,3.2406,3.2655,3.2254,3.2873,3.3076,3.2868,3.2275,3.1597,3.0732,2.7956,2.6298,2.5418,2.3928,2.2794,0.0,0.0,0.0,0.0,0.0,0.0,0.0,0.0,0.0,0.0,0.0,0.0,0.0,0.0,0.0,0.0,0.0,0.0,0.0,0.0,0.0,0.0,0.0,0.0,0.0,0.0,0.0,0.0,0.0,0.0,0.0,0.0,0.0,0.0,0.0,0.0,0.0,3.0448,3.1657,0.0,3.1472,3.2076,3.2357,3.2002,3.2561,3.2736,3.2249,3.221,3.2233,3.2355,3.2153,3.2138,3.2328,3.2328,3.2405,3.2562,3.2329,3.2079,3.1759,3.1016,3.0452,3.0011,2.9521,2.9239,2.9049,2.8172,2.7647,2.7348,2.6612,2.6316,2.6347,2.6565,2.6303,2.5764,0.0,0.0,0.0,1.534,1.6037,1.6695,1.6999,1.8261,1.9528,2.0394,2.2007,2.3416,2.4286,2.6678,2.822,2.8197,2.9783,3.032,2.9156,2.9612,2.9323,2.7918,2.8673,2.9793,3.1214,3.2082,3.2953,3.3807,3.439,3.4645,3.4565,3.4858,3.4749,3.4276,3.4008,3.3618,3.3014,3.0515,2.8635,2.7211,2.6067,2.4892,2.3664,0.0,0.0,0.0,0.0,0.0,0.0,0.0,0.0,0.0,0.0,0.0,0.0,0.0,0.0,0.0,0.0,0.0,0.0,0.0,0.0,0.0,0.0,0.0,0.0,0.0,0.0,0.0,0.0,0.0,0.0,0.0,0.0,0.0,0.0,3.0474,3.1684,3.1192,3.264,3.3357,3.2532,3.3416,3.3892,3.3508,3.414,3.4293,3.3703,3.3458,3.3238,3.3009,3.2836,3.2736,3.2736,3.2981,3.3194,3.3332,3.311,3.2823,3.2473,3.1683,3.1089,3.0639,3.0103,2.9795,2.9629,2.9248,2.916,2.9158,2.8165,2.7904,2.8109,2.8109,2.776,2.7236,0.0,0.0,1.5407,1.5436,1.6091,1.6937,1.7813,1.8686,2.0176,2.275,2.4537,2.5901,2.6848,2.9256,3.0136,2.8456,2.9941,3.0957,3.0914,3.0992,3.1423,3.2265,3.1453,3.1401,3.2289,3.3134,3.3932,3.4721,3.6415,3.7233,3.7253,3.811,3.798,3.7014,3.6202,3.5221,3.4125,3.3288,3.2419,3.1274,2.7873,2.6422,2.6088,0.0,0.0,0.0,0.0,0.0,0.0,0.0,0.0,0.0,0.0,0.0,0.0,0.0,0.0,0.0,0.0,0.0,0.0,0.0,0.0,0.0,0.0,0.0,0.0,0.0,0.0,0.0,0.0,0.0,0.0,0.0,0.0,0.0,3.0808,3.1521,3.2006,3.1729,3.38,3.483,3.3868,3.5304,3.6099,3.5656,3.5728,3.5459,3.4661,3.4127,3.3659,3.3269,3.3367,3.3429,3.3429,3.4136,3.4343,3.403,3.3362,3.2897,3.2578,3.1673,3.1254,3.126,3.1077,3.1005,3.0947,3.0151,3.0056,3.0253,2.8734,2.8147,2.816,2.816,2.8141,2.8019,1.5406,1.5396,1.5577,1.6172,1.6975,1.7833,1.8709,1.9578,2.0845,2.2779,2.3983,2.5462,2.7619,2.9608,3.0833,3.0957,3.3121,3.4237,3.3605,3.5281,3.6438,3.6738,3.5919,3.5848,3.672,3.6975,3.7217,3.7428,3.7915,3.8149,3.8149,3.8383,3.8291,3.7909,3.7052,3.642,3.5893,3.4401,3.3583,3.3074,3.0284,2.8666,2.7812,0.0,0.0,0.0,0.0,0.0,0.0,0.0,0.0,0.0,0.0,0.0,0.0,0.0,0.0,0.0,0.0,0.0,0.0,0.0,0.0,0.0,0.0,0.0,0.0,0.0,0.0,0.0,0.0,0.0,0.0,0.0,3.1085,3.1539,3.1387,3.2982,3.4132,3.4014,3.5052,3.5668,3.5399,3.5795,3.6041,3.5899,3.5915,3.5728,3.5213,3.4956,3.4652,3.4298,3.4226,3.4198,3.4198,3.4412,3.4617,3.4881,3.4591,3.4584,3.478,3.3306,3.2646,3.259,3.1476,3.1005,3.0973,3.0592,3.0429,3.0291,2.9282,2.9082,2.9327,2.9327,2.9207,2.9072,1.5935,1.6243,1.6645,1.7101,1.7878,1.8612,1.9118,1.9946,2.1368,2.3775,2.4529,2.6114,2.9422,3.1017,3.2049,3.2491,3.4593,3.5695,3.5186,3.6847,3.7876,3.7915,3.7458,3.7614,3.8472,3.8851,3.9041,3.9036,3.9406,3.9597,3.9589,3.9589,3.9358,3.891,3.8404,3.7866,3.7281,3.5867,3.5219,3.4948,3.2687,3.0673,2.8957,2.8369,2.7251,2.5955,2.5404,2.4753,2.4127,2.3805,0.0,0.0,0.0,0.0,0.0,0.0,0.0,0.0,0.0,0.0,0.0,0.0,0.0,0.0,0.0,0.0,0.0,0.0,0.0,0.0,0.0,0.0,0.0,0.0,3.2443,3.3014,3.3014,3.4147,3.5077,3.5324,3.5784,3.6047,3.5938,3.5965,3.5975,3.591,3.6244,3.6326,3.6039,3.6024,3.5807,3.534,3.5313,3.5171,3.4921,3.5198,3.5431,3.563,3.5475,3.5531,3.5655,3.4279,3.3492,3.314,3.1974,3.1296,3.0986,3.0685,3.0637,3.0663,0.0,0.0,0.0,0.0,3.0131,3.0164,1.6875,1.7478,1.804,1.8126,1.8722,1.9234,1.9331,2.0005,2.1725,2.5158,2.5609,2.7223,3.152,3.2775,3.3343,3.3438,3.5022,3.6117,3.6317,3.7086,3.7541,3.7542,3.7608,3.7988,3.8786,3.9544,3.9945,3.9949,4.0727,4.1091,4.1094,4.1094,4.0685,3.9943,3.9846,3.9305,3.8389,3.7449,3.6905,3.6559,3.4929,3.2568,3.0011,2.9917,2.8626,2.6864,2.6864,2.6598,2.6209,2.6007,0.0,0.0,0.0,0.0,0.0,0.0,0.0,0.0,0.0,0.0,0.0,0.0,0.0,0.0,0.0,0.0,0.0,0.0,0.0,0.0,0.0,0.0,0.0,0.0,3.3753,3.5022,3.5087,3.5087,3.5323,3.5918,3.6068,3.6036,3.5806,3.5962,3.6035,3.5914,3.6786,3.7223,3.7018,3.7207,0.0,0.0,0.0,3.6136,3.5629,3.6199,3.6398,3.6196,3.6053,3.5879,3.5672,3.4745,3.3939,3.3283,3.2452,3.1758,3.1191,3.0744,3.0849,3.1233,3.0514,3.0142,3.003,3.052,3.0876,3.1178,1.7886,1.7871,1.8194,1.8856,1.9101,1.9447,2.0143,2.0391,2.1725,2.5158,2.5609,2.7223,3.152,3.2775,3.3569,3.4206,3.5864,3.7463,3.8859,3.9765,4.025,4.0255,4.0264,4.0369,4.0584,4.0715,4.0797,4.0857,4.1012,4.1108,4.1106,4.1106,4.1003,4.0818,4.0118,3.963,3.9285,3.8294,3.7417,3.6656,3.6204,3.4641,3.2519,3.1857,3.0328,2.8546,2.8546,2.768,2.6533,2.6648,2.6164,2.551,2.5518,2.4944,0.0,0.0,0.0,0.0,0.0,0.0,0.0,0.0,0.0,0.0,0.0,0.0,0.0,0.0,0.0,0.0,0.0,0.0,0.0,3.4197,3.4727,3.5148,3.5588,3.5732,3.5805,3.5844,3.5773,3.57,3.5644,3.6254,3.6633,3.6598,3.7863,3.8355,3.7738,3.7955,3.7766,3.7036,3.6657,3.6415,3.6307,3.6446,3.6398,3.6196,3.6053,0.0,3.5672,3.4745,3.4213,3.401,3.267,3.2299,3.2568,3.1838,3.1688,3.1873,3.1344,3.1113,3.1097,3.1198,3.129,3.142,1.9255,1.9257,1.9384,1.9782,1.9843,1.9998,2.0432,2.0507,2.1563,2.4553,2.4943,2.6421,3.027,3.1861,3.2986,3.3823,3.5858,3.784,3.9584,4.0114,4.0527,4.0935,4.0974,4.1016,4.1055,4.1054,4.1069,4.1093,4.1095,4.11,4.1093,4.1093,4.1107,4.1077,4.0648,4.0409,4.0278,3.9272,3.8546,3.7977,3.699,3.5834,3.4543,3.3207,3.1669,3.0155,2.9745,2.9084,2.8313,2.7702,2.7204,2.6753,2.6219,2.5737,2.5297,0.0,0.0,0.0,0.0,0.0,0.0,0.0,0.0,0.0,0.0,0.0,0.0,0.0,0.0,3.1127,3.2672,0.0,3.429,3.4988,3.5383,3.5687,3.5963,3.5938,3.5883,3.5806,3.6073,3.6395,3.6768,3.7467,3.8053,3.8408,3.9474,3.9935,3.958,3.9392,3.8988,3.8311,3.7416,3.6816,3.6507,3.6398,3.6289,3.6196,3.5958,3.5799,3.5688,3.5152,3.4852,3.474,3.3592,3.323,3.3382,3.2653,3.228,3.216,3.2231,3.2064,3.18,3.18,3.1989,3.2298,2.0371,2.0505,2.0497,2.0506,2.0504,2.0507,2.0507,2.0507,2.1364,2.3742,2.4209,2.5532,2.8816,3.0718,3.223,3.3431,3.5729,3.7694,3.909,3.9509,3.998,4.0643,4.0882,4.1001,4.1022,4.1065,4.1093,4.1107,4.1107,4.1107,4.1093,4.1099,4.1095,4.1099,4.1099,4.1091,4.1031,4.0183,3.9659,3.9249,3.756,3.6584,3.5912,3.4194,3.2764,3.163,3.0925,3.0577,3.0229,2.8813,2.83,2.7996,2.6481,2.6113,2.6098,2.5529,2.5394,0.0,0.0,0.0,0.0,0.0,0.0,0.0,0.0,2.9722,3.0549,3.1964,3.2352,3.2835,3.4086,3.4911,3.5383,3.5383,3.5823,3.6144,3.614,3.6057,3.6067,3.6186,3.6741,3.7437,3.832,3.9032,3.9665,4.0269,4.1119,4.1523,4.1236,4.0779,4.0127,3.9234,3.8041,3.7186,3.6707,3.6488,3.6378,3.6347,3.6028,3.5807,3.5654,3.5674,3.564,3.5507,3.495,3.4441,3.3985,3.3497,3.2963,3.2491,3.2935,3.2792,3.2378,3.2378,3.2679,3.3102,2.0483,2.0502,2.0499,2.0506,2.0504,2.0507,2.0507,2.0507,2.1161,2.2999,2.3859,2.5336,2.8037,2.9843,3.1793,3.4154,3.6046,3.7171,3.7385,3.884,3.9734,3.9831,4.0578,4.1035,4.1087,4.1091,4.1091,4.1104,4.1091,4.1107,4.1093,4.1097,4.1095,4.1091,4.1091,4.1104,4.1085,4.073,4.0118,3.9298,3.8082,3.6993,3.5963,3.4805,3.3712,3.2776,3.2458,3.1873,3.1059,2.9647,2.9162,2.8806,2.6745,2.6505,2.6989,2.7026,2.6951,2.6894,2.7007,2.7101,2.7474,2.8861,2.9834,3.0791,0.0,3.2472,3.2766,3.3655,3.4362,3.4869,3.5052,3.5624,3.6088,3.6088,3.606,3.5975,3.5861,3.6378,3.7012,3.7591,3.7731,3.834,3.9732,4.0527,4.0984,4.1068,4.2374,4.2616,4.1374,4.1345,4.0493,3.8567,3.7857,3.7464,3.7384,3.7193,3.7033,3.6902,3.669,3.6207,3.5552,3.6119,3.6384,3.6371,3.6701,3.5939,3.4457,3.4659,3.4171,3.3246,3.3129,3.3052,3.3002,3.3002,3.304,3.3102,2.0508,2.0506,2.0503,2.0503,2.0506,2.0506,2.049,2.0502,2.0945,2.2184,2.2642,2.3641,2.5764,2.8357,3.0585,3.2219,3.438,3.565,3.5644,3.728,3.8686,3.9667,4.0057,4.0492,4.1031,4.1035,4.1031,4.1033,4.1074,4.1099,4.1093,4.1105,4.1102,4.1103,4.1091,4.1102,4.1094,4.0909,4.0264,3.9304,3.8245,3.7213,3.6202,3.4965,3.4242,3.3777,3.2958,3.2419,0.0,3.0196,2.95,2.9027,2.7516,2.7415,2.7879,2.7929,2.8206,2.862,2.9144,2.9601,3.0058,3.0679,3.1403,3.2024,3.2214,3.2265,3.261,3.3845,3.4345,3.4828,3.568,3.608,3.6261,3.6215,3.609,3.6096,3.6406,3.7029,3.8055,3.9631,4.0206,4.0696,4.1322,4.2053,4.2675,4.3146,4.3755,4.3847,4.3258,4.2136,4.1102,4.0233,3.8714,3.7899,3.7899,3.7239,3.6877,3.6811,3.6661,3.6409,3.6088,3.6731,3.697,3.6934,3.7518,3.6926,3.5555,3.5707,3.5047,3.3979,3.3886,3.356,3.3102,3.3102,3.3102,3.3102,2.0507,2.0508,2.0525,2.0506,2.0502,2.0497,2.0494,2.0506,2.073,2.1354,2.1655,2.246,2.4216,2.6984,2.9082,2.9992,3.2208,3.377,3.4233,3.5679,3.7263,3.8961,3.9475,4.0013,4.0664,4.0893,4.102,4.1034,4.1085,4.1107,4.1103,4.1109,4.1107,4.1096,4.1104,4.1088,4.1025,4.0645,4.0034,3.9248,3.7999,3.7106,3.6347,3.502,3.4508,3.4378,3.3383,3.2991,3.2717,3.1107,3.0227,2.961,2.8507,2.8396,2.867,2.8807,2.9315,2.9955,3.0533,3.1085,3.155,3.1757,3.2352,3.2766,3.2231,3.2349,3.2915,3.414,3.4456,3.4866,3.608,3.6248,3.6195,3.6155,3.6036,3.6161,3.6786,3.7474,3.8722,4.095,4.1847,4.2469,4.2892,4.342,4.3978,4.455,4.4615,4.4514,4.431,4.2884,4.18,4.1238,3.9625,3.8657,3.8488,3.7664,3.7344,3.7524,3.719,3.7032,3.7047,3.7479,3.7718,3.7817,3.8259,3.7758,3.6629,3.6557,3.5696,3.4397,3.4397,3.3865,3.3102,3.3102,3.3102,3.3102,2.0508,2.0547,2.0585,2.0512,2.0509,2.0493,2.05,2.0498,2.0518,2.0537,2.1274,2.2459,2.4212,2.5944,2.7325,2.8196,2.9899,3.1631,3.3329,3.4285,3.5545,3.7302,3.8925,3.9815,3.9831,4.0667,4.1098,4.1094,4.1109,4.1107,4.1091,4.11,4.1107,4.1096,4.1096,4.1023,4.0846,3.9851,3.9361,3.9042,3.7257,3.6523,3.6347,3.502,3.4508,3.4434,3.4012,3.3858,3.369,3.2611,3.1697,3.0855,2.9716,2.9304,2.9368,2.9814,3.0289,3.0671,3.0688,3.0722,3.0912,3.1619,3.2352,3.2894,3.2869,3.3725,3.4642,3.5071,3.5322,3.563,3.6198,3.6131,3.6008,3.6008,3.5888,3.6044,3.6705,3.7444,3.8722,4.095,4.1847,4.2892,4.4395,4.4564,4.4567,4.4615,4.4615,4.4296,4.3571,4.3464,4.2564,4.0578,4.0274,3.9834,3.9176,3.8815,3.8958,3.9609,3.8752,3.835,3.835,3.8365,3.8718,3.9325,3.9159,3.8472,3.7453,3.7261,3.6068,3.4397,3.4397,3.3865,3.3102,3.3102,3.3102,3.3102,2.0491,2.052,2.0526,2.0507,2.0539,2.0568,2.0565,2.0538,2.0492,2.0492,2.1298,0.0,0.0,0.0,0.0,0.0,2.7753,2.9337,2.9973,3.2416,3.4355,3.5525,3.7174,3.8343,3.8914,3.9225,3.9373,3.9375,3.9363,3.9361,3.9396,3.9971,3.9934,3.9405,3.9981,3.9849,3.9155,3.873,3.8157,3.7472,3.6774,3.6156,3.555,3.4829,3.454,3.4459,0.0,3.3908,3.3712,3.2858,3.2241,3.1681,3.0744,3.0657,3.0973,3.1399,3.1645,3.1708,3.1493,3.1792,3.2093,3.1852,3.2352,3.2766,3.2283,3.2852,3.3747,3.4684,3.5311,3.5995,3.6916,3.6744,3.6457,3.6402,3.6056,3.6203,3.7359,3.8587,3.999,4.1728,4.3061,4.4025,4.4564,4.4615,4.4615,4.4615,4.4615,4.4483,4.4236,4.3333,4.2485,4.1725,4.0648,3.9879,3.9544,3.9294,3.9289,3.9499,3.9203,3.9047,3.9047,3.9047,3.9113,3.9195,3.9123,3.8741,3.8169,3.8094,3.7285,3.5996,3.542,3.469,3.3946,3.3721,3.3621,3.3621,2.0499,2.0516,2.0545,2.0546,2.0564,0.0,0.0,0.0,0.0,0.0,0.0,0.0,0.0,0.0,0.0,0.0,0.0,2.7262,2.8232,3.0331,3.2068,3.3249,3.5218,3.6402,3.667,3.7876,3.8344,3.8032,3.8344,3.85,3.8519,3.9063,3.9044,3.8518,3.9036,3.8887,3.8195,3.7774,3.7395,3.701,3.6001,3.5598,3.5458,3.4216,3.4038,0.0,3.3796,3.3688,3.3762,3.3286,3.2815,3.2381,3.2097,3.2051,3.2147,3.2403,3.2318,3.2073,3.1856,3.2145,3.2386,3.193,3.2162,3.2455,3.2231,3.2765,3.364,3.4837,3.5648,3.6407,3.7335,3.7047,3.6704,3.6793,3.6235,3.6344,3.7904,3.9035,4.0358,4.2097,4.3416,4.4279,4.4567,4.4615,4.4615,4.4615,4.4615,4.4615,4.4615,4.3739,4.2955,4.2316,4.1277,4.0497,4.0061,3.9859,3.975,3.975,4.0008,3.9855,3.9406,3.9406,3.9319,3.9195,3.9068,3.8848,3.8608,3.846,3.781,3.6872,3.6555,3.5927,3.5148,3.4822,3.4818,3.4927,2.0493,2.0541,2.0585,0.0,0.0,0.0,0.0,0.0,0.0,0.0,0.0,0.0,0.0,0.0,0.0,0.0,0.0,0.0,2.7948,2.8162,2.8934,3.0582,3.3066,3.4059,3.3281,3.6454,3.772,3.6941,3.7779,3.8207,3.8246,3.8285,3.8285,3.8243,3.8158,3.8004,3.7781,3.6877,3.6937,3.7394,3.4963,3.4856,3.5883,3.3247,3.3062,3.4071,3.3093,3.3154,3.3729,3.3858,3.343,3.2945,3.357,3.3332,3.2795,3.2771,3.2326,3.1827,3.1809,3.18,3.18,3.18,3.1834,3.2041,3.2748,3.3521,3.4416,3.5582,3.6337,3.6953,3.7515,3.71,3.6841,3.7249,3.6516,3.6536,3.8322,3.8887,3.9931,4.2113,4.3,4.3775,4.453,4.4615,4.4601,4.4601,4.4584,4.4601,4.4601,4.4542,4.3844,4.2316,4.2078,4.1572,4.0679,4.0537,4.0427,4.0412,4.1025,4.0651,3.9406,3.9406,3.9388,3.9355,3.8962,3.8782,3.8745,3.8371,3.773,3.7074,3.7664,3.7382,3.6597,3.6277,3.6484,3.6724,0.0,0.0,0.0,0.0,0.0,0.0,0.0,0.0,0.0,0.0,0.0,0.0,0.0,0.0,0.0,0.0,0.0,0.0,2.5311,2.7157,2.8394,2.8839,3.0723,3.1678,3.1465,3.2321,3.2965,3.3397,3.3612,3.406,3.4702,3.5306,3.5267,3.472,3.5242,3.5021,3.4287,3.3983,3.4283,3.4898,3.4044,3.3969,3.426,3.3252,3.2323,3.1596,3.1769,3.1526,3.144,3.3274,3.3574,3.32,3.3364,3.3146,3.2747,3.2504,3.2309,3.2126,3.1865,3.18,3.18,3.18,3.2214,3.2662,3.2869,3.4169,3.5507,3.6123,3.7038,3.8054,3.9097,3.85,3.8105,3.8809,3.8044,3.7914,3.9474,4.0248,4.1271,4.2916,4.3809,4.4364,4.4567,4.4615,4.4542,4.4381,4.4528,4.4542,4.4381,4.3902,4.3077,4.1885,4.1799,4.1364,4.0489,4.0913,4.0891,4.0397,4.0561,4.0217,3.9406,3.9406,3.9319,3.9159,3.8907,3.8708,3.8571,3.8296,3.836,3.8558,3.8085,3.7611,3.7157,3.6876,3.638,3.5889,0.0,0.0,0.0,0.0,0.0,0.0,0.0,0.0,0.0,0.0,0.0,0.0,0.0,0.0,0.0,0.0,0.0,0.0,0.0,2.5743,2.6708,2.7087,2.8746,2.9476,2.9106,3.0216,3.1035,3.1525,3.1917,3.254,3.3417,3.3865,3.3793,3.3337,3.3672,3.3502,3.2943,3.2846,3.3221,0.0,0.0,3.2711,3.2808,3.1456,3.056,3.0033,3.0366,3.0735,3.1336,3.3067,3.3494,3.3313,3.3324,3.3001,3.2536,3.2361,3.2205,3.2037,3.1847,3.18,3.1846,3.1975,3.2602,3.3284,3.3798,3.4871,3.5917,3.6499,3.6989,3.7731,3.9116,3.8501,3.8209,3.9551,3.8714,3.8473,4.0129,4.0845,4.1749,4.322,4.4113,4.4615,4.4615,4.4615,4.4528,4.4324,4.4395,4.4398,4.421,4.383,4.3163,4.2168,4.2136,4.1709,4.0849,4.1493,4.1343,4.0397,4.0397,4.0053,3.9406,3.9406,3.9283,3.9086,3.8889,3.8686,3.8508,3.8597,3.8855,3.9209,3.9278,3.8951,3.8376,3.8089,3.7347,3.6511,0.0,0.0,0.0,0.0,0.0,0.0,0.0,0.0,0.0,2.3759,2.3371,2.3098,2.3096,2.3096,0.0,0.0,0.0,0.0,0.0,0.0,2.4615,2.5486,2.6925,2.7393,2.675,2.895,3.0174,3.0266,3.103,3.1885,3.2832,3.2832,3.2843,3.2835,3.2699,3.2618,3.2548,3.2388,3.2663,3.3084,3.1577,3.1175,3.1255,0.0,2.8393,2.8711,2.8822,3.0173,3.204,3.2737,3.3066,3.3176,3.3243,3.2771,3.2223,3.2223,3.202,3.18,3.18,3.1819,3.1938,3.2223,3.302,3.3961,3.4841,3.546,3.6032,3.6624,3.6501,3.6798,3.838,3.7852,3.7836,3.9824,3.9016,3.8736,4.0528,4.1091,4.1863,4.3237,4.4113,4.4584,4.4556,4.4657,4.462,4.4404,4.4474,4.4433,4.4219,4.4145,4.3719,4.2824,4.2707,4.23,4.1538,4.2036,4.1628,4.0397,4.0307,3.9945,3.9406,3.9406,3.9301,3.9123,3.8977,3.8837,3.8706,3.914,3.9363,3.9567,4.067,4.057,3.9753,3.9349,3.8621,3.7671,0.0,0.0,0.0,0.0,0.0,0.0,0.0,0.0,0.0,0.0,2.4849,2.3099,0.0,0.0,0.0,0.0,0.0,0.0,0.0,0.0,0.0,2.4589,2.49,2.5329,2.5894,2.6341,2.6887,2.7486,2.7643,2.8471,2.9927,2.9927,3.0303,3.0969,3.0838,3.0751,3.0735,3.0491,3.0481,3.0581,3.0012,2.9416,2.8792,2.8251,0.0,0.0,2.6809,2.857,3.0631,3.1148,3.1834,3.2479,3.2487,3.2214,3.1883,3.1883,3.1855,3.18,3.18,3.1993,3.2223,3.2283,3.3607,3.4788,3.4314,3.5506,3.6552,3.6021,3.6111,3.6758,3.8266,3.8023,3.8228,4.0129,3.9806,3.9732,4.0934,4.1696,4.2439,4.3304,4.4113,4.4542,4.4367,4.4894,4.5133,4.4821,4.5357,4.544,4.4795,4.4747,4.429,4.3311,4.2739,4.237,4.2231,4.1777,4.1179,4.0382,3.9825,3.9511,3.9406,3.9406,3.9388,3.9349,3.955,3.9603,3.9587,3.9838,4.0263,4.0786,4.1004,4.0834,4.0356,3.9522,3.8621,3.7671,0.0,0.0,0.0,0.0,0.0,0.0,0.0,2.7062,2.8054,2.9379,2.8122,2.6762,2.5856,2.5348,2.4725,0.0,0.0,0.0,0.0,0.0,0.0,2.4941,2.4979,2.5142,2.5538,2.5537,2.5931,2.6754,0.0,2.7377,2.8584,2.8584,2.8766,2.9095,2.9038,2.8972,2.8935,2.8812,2.8658,2.8472,2.8324,2.7648,2.6751,0.0,0.0,0.0,2.6943,2.8387,3.0064,3.0919,3.1418,3.1757,3.2178,3.1812,3.1309,3.1679,3.18,3.1886,3.2265,3.2214,3.2178,3.2695,3.3846,3.4721,3.4302,3.5199,3.5841,3.4862,3.4783,3.5246,3.6361,3.6824,3.7595,3.9331,3.9617,3.9908,4.0815,4.1715,4.2574,4.3304,4.4113,4.4556,4.4468,4.5043,4.5303,4.5066,4.5993,4.6216,4.5409,4.4967,4.4501,4.3984,4.3244,4.2556,4.1901,4.1553,4.0894,3.9888,3.9556,3.9406,3.9406,3.9283,3.9371,3.9617,3.9633,3.9767,3.9984,4.043,4.08,4.1134,4.1482,4.1207,4.0546,4.0094,3.9033,3.774,0.0,0.0,0.0,0.0,0.0,0.0,0.0,2.8522,2.9379,3.1132,3.1335,3.0724,2.9168,2.7912,2.6571,0.0,0.0,0.0,0.0,0.0,0.0,0.0,0.0,0.0,2.5662,0.0,0.0,2.6934,2.6934,0.0,0.0,0.0,0.0,0.0,2.7728,2.7696,2.7637,2.7556,2.7256,0.0,0.0,2.6121,0.0,0.0,0.0,0.0,0.0,2.8244,2.9358,3.0578,3.0688,3.0491,3.1559,3.1445,3.1041,3.16,3.1755,3.1883,3.245,3.2231,3.2075,3.3023,3.3798,3.4341,3.4361,3.4649,3.4668,3.3849,3.3515,3.3644,3.4601,3.5614,3.6798,3.8284,3.8933,3.9537,4.0357,4.1397,4.2337,4.3085,4.3967,4.4528,4.4499,4.512,4.5464,4.5349,4.6545,4.6841,4.5831,4.5185,4.4658,4.4263,4.363,4.2816,4.1822,4.1538,4.0861,3.9825,3.9675,3.9616,3.9616,3.9589,3.978,4.0077,3.9985,4.013,4.0424,4.1053,4.1308,4.1366,4.1889,4.1633,4.0873,4.0453,3.9373,3.8046,0.0,0.0,0.0,0.0,0.0,0.0,0.0,2.9535,3.1191,3.2929,3.3049,3.2617,3.1655,2.9487,2.7688,0.0,0.0,0.0,0.0,0.0,0.0,0.0,0.0,0.0,0.0,0.0,0.0,2.7698,2.7698,0.0,0.0,0.0,0.0,0.0,0.0,2.7427,2.7414,2.7104,0.0,0.0,0.0,0.0,0.0,0.0,0.0,0.0,0.0,2.7018,2.763,2.8884,2.8619,2.8075,2.9988,3.1096,3.1695,3.1628,3.1617,3.1615,3.1623,3.1808,3.215,3.2923,3.3441,3.3842,3.4147,3.3748,3.3367,3.3574,3.3065,3.3036,3.4448,3.544,3.6373,3.7443,3.7923,3.851,3.956,4.0626,4.1576,4.2303,4.3532,4.4281,4.4155,4.5248,4.5882,4.5744,4.7089,4.7273,4.5794,4.5642,4.4937,4.3468,4.3329,4.323,4.313,4.1983,4.1343,4.1209,4.0591,4.0307,4.0337,4.092,4.1102,4.0997,4.1342,4.1419,4.1317,4.1811,4.2005,4.2005,4.2078,4.2051,4.1752,3.9992,3.9219,3.8832,0.0,0.0,0.0,0.0,0.0,0.0,2.8711,2.9913,3.1456,3.3668,3.39,3.3737,3.3381,3.1525,2.953,2.7621,0.0,0.0,0.0,0.0,0.0,0.0,0.0,0.0,0.0,0.0,2.721,2.7388,2.7388,0.0,0.0,0.0,0.0,0.0,0.0,2.6961,2.6494,2.6351,0.0,0.0,0.0,0.0,0.0,0.0,0.0,0.0,0.0,0.0,2.7146,2.8288,2.8429,2.8304,2.929,3.0229,3.0954,3.0891,3.1197,3.1538,3.1519,3.1596,3.1871,3.2553,3.2858,3.3001,3.3094,3.3196,3.3202,3.2875,3.2741,3.2784,3.3125,3.446,3.5737,3.6369,3.7337,3.8307,3.9177,4.0006,4.098,4.2164,4.3097,4.3964,4.4798,4.5549,4.6301,4.7073,4.7669,4.732,4.5769,4.6111,4.5879,4.4774,4.4278,4.3412,4.2162,4.2047,4.1598,4.0786,4.0954,4.1014,4.1014,4.1151,4.1322,4.1459,4.1513,4.1631,4.1832,4.2032,4.2092,4.2092,4.2092,4.2092,4.2009,4.1241,4.0187,3.914,0.0,0.0,0.0,0.0,0.0,2.7725,2.9137,3.025,3.1665,3.3679,3.3914,3.3887,3.3892,3.2538,3.0907,2.9085,2.7755,0.0,0.0,0.0,0.0,0.0,0.0,0.0,0.0,0.0,2.7715,2.7836,2.7836,2.7705,0.0,0.0,2.734,2.7102,0.0,0.0,0.0,0.0,0.0,0.0,0.0,0.0,0.0,0.0,0.0,0.0,0.0,0.0,0.0,0.0,0.0,2.8119,2.8578,2.9137,2.9728,3.0199,3.0855,3.1443,3.1416,3.1414,3.1572,3.2264,3.2285,3.2198,3.2483,3.2537,3.2511,3.2325,3.2414,3.2486,3.2385,3.3936,3.5322,3.5547,3.6854,3.8129,3.9021,3.969,4.0692,4.2324,4.2922,4.3763,4.5198,4.5903,4.6753,4.7901,4.8001,4.7538,4.6428,4.6862,4.6482,4.5036,4.4662,4.3682,4.1987,4.2457,4.2231,4.1265,4.1568,4.1792,4.1968,4.1756,4.1779,4.199,4.179,4.1846,4.2092,4.2092,4.2092,4.2092,4.2092,4.2092,4.21,4.1989,4.0869,3.9482,0.0,0.0,0.0,0.0,0.0,0.0,2.91,3.0667,3.2099,3.2997,3.2993,3.291,3.291,3.2065,3.1469,3.1369,2.9167,0.0,0.0,0.0,0.0,0.0,0.0,0.0,0.0,0.0,2.8712,2.9565,2.9565,2.9129,2.829,2.829,2.7864,2.7098,0.0,0.0,0.0,0.0,0.0,0.0,0.0,0.0,0.0,0.0,0.0,0.0,0.0,0.0,0.0,0.0,0.0,0.0,0.0,2.7824,2.8129,2.9729,3.0717,3.1293,3.123,3.12,3.1386,3.2124,3.1742,3.1511,3.2645,3.166,3.0862,3.2056,3.203,3.201,3.2676,3.4183,3.5263,3.5124,3.6396,3.7836,3.9042,3.9719,4.0824,4.2763,4.3121,4.3737,4.5068,4.6234,4.7206,4.7934,4.8001,4.7984,4.7984,4.7984,4.6551,4.3413,4.4086,4.4105,4.3294,4.3415,4.3415,4.326,4.2676,4.2705,4.3275,4.3081,4.288,4.2688,4.2479,4.2284,4.2092,4.2092,4.2092,4.2092,4.2092,4.2092,4.2061,4.1716,4.0913,3.9955,0.0,0.0,0.0,0.0,0.0,0.0,0.0,2.9722,3.1127,3.1895,3.1978,3.2175,3.2766,3.2034,3.1494,3.1465,2.9681,0.0,0.0,0.0,0.0,0.0,0.0,0.0,0.0,2.898,2.9054,2.9198,2.9198,2.9044,2.8775,2.8775,2.8635,2.8402,2.8319,2.7963,0.0,0.0,0.0,0.0,0.0,0.0,0.0,0.0,0.0,0.0,0.0,0.0,0.0,0.0,0.0,0.0,0.0,0.0,0.0,2.8409,2.9468,3.0484,3.0446,3.0818,3.1268,3.1488,3.1369,3.1349,3.1956,3.1686,3.1511,3.2152,3.2004,3.1882,3.2374,3.352,3.4582,3.5081,3.6423,3.7815,3.8979,3.9608,4.0569,4.218,4.4003,4.5439,4.6285,4.7154,4.7752,4.7984,4.8001,4.7754,4.7203,4.6689,4.5967,4.498,4.5184,4.4662,4.3309,4.3792,4.3792,4.3305,4.4032,4.4242,4.3982,4.3922,4.3704,4.3343,4.2833,4.2412,4.2092,4.2092,4.2092,4.2136,4.2542,4.2716,4.2768,4.3113,4.2595,4.1642,0.0,0.0,0.0,0.0,0.0,0.0,0.0,2.9453,3.0528,3.0998,3.1031,3.1346,3.2208,3.1531,3.1109,3.1367,3.0091,0.0,0.0,0.0,0.0,0.0,0.0,0.0,2.9185,2.9185,2.9257,2.9428,2.9434,2.9434,2.9428,2.9416,2.9251,2.8952,2.8947,2.8578,0.0,0.0,0.0,0.0,0.0,0.0,2.6713,0.0,0.0,0.0,0.0,0.0,0.0,0.0,0.0,0.0,0.0,0.0,0.0,0.0,2.8483,2.9304,2.96,3.0016,3.0439,3.0717,3.0784,3.0903,3.1407,3.1515,3.1573,3.1832,3.1562,3.1537,3.237,3.3083,3.3992,3.5349,3.6714,3.7978,3.9092,3.9873,4.0951,4.2645,4.4712,4.6266,4.6904,4.7602,4.8001,4.8001,4.7721,4.7337,4.6829,4.6331,4.5945,4.5634,4.5615,4.501,4.3703,4.4394,4.4394,4.3683,4.4267,4.4446,4.4282,4.3865,4.3558,4.3284,4.2717,4.2331,0.0,4.2339,4.244,4.2498,4.3123,4.3369,4.3463,4.4095,4.3456,4.2219,0.0,0.0,0.0,0.0,0.0,0.0,0.0,2.9743,3.0296,3.0296,3.0244,3.0504,3.1301,3.068,3.0422,3.1035,0.0,0.0,0.0,0.0,0.0,0.0,0.0,0.0,2.8999,2.906,2.941,3.01,3.0277,3.0326,3.0252,3.0295,2.9868,2.904,2.8949,2.8741,2.846,0.0,0.0,0.0,2.7679,2.743,0.0,0.0,0.0,0.0,0.0,0.0,0.0,0.0,0.0,0.0,0.0,0.0,0.0,0.0,0.0,0.0,0.0,2.8925,2.9179,2.9922,3.0098,3.0284,3.097,3.1157,0.0,3.12,3.0946,3.1161,3.259,3.2949,3.3697,3.579,3.7166,3.8342,3.9426,4.051,4.1946,4.3982,4.5322,4.6364,4.7163,4.7701,4.8017,4.8084,4.7402,4.6961,4.6961,4.6827,4.6445,4.5762,4.5621,4.5189,4.4451,4.5124,4.5124,4.4431,4.3753,4.3753,4.4321,4.326,4.2762,4.2721,4.2298,4.2142,4.2208,4.276,4.3021,4.3144,4.379,4.4052,4.4124,4.4653,4.3647,4.2052,0.0,0.0,0.0,0.0,0.0,0.0,0.0,0.0,0.0,0.0,3.0286,3.0308,3.0341,3.0167,3.003,0.0,0.0,0.0,0.0,0.0,0.0,0.0,0.0,0.0,2.8999,2.9598,2.9984,3.01,3.1356,3.1934,3.1873,3.223,3.1682,3.0421,3.0147,2.9336,2.8195,2.8072,0.0,0.0,2.7698,2.7647,0.0,0.0,0.0,0.0,2.6955,2.679,0.0,0.0,0.0,0.0,0.0,0.0,0.0,0.0,2.6962,2.6996,2.719,0.0,2.9179,2.9922,3.0098,3.0149,0.0,3.0784,3.12,3.12,3.1567,3.2009,3.2376,3.3807,3.5053,3.538,3.7303,3.9093,4.0126,4.193,4.371,4.5223,4.6158,4.7188,4.8497,4.8249,4.8233,4.8812,4.8662,4.8561,4.8561,4.787,4.7621,4.7929,4.6753,4.6031,4.5837,4.5505,4.5505,4.5822,4.4983,4.4682,4.4802,4.388,4.3378,4.3198,4.2591,4.2505,4.2789,4.2934,4.3297,4.3841,4.4465,4.4698,4.466,4.451,4.4134,4.3517,0.0,0.0,0.0,0.0,0.0,0.0,0.0,0.0,0.0,0.0,0.0,3.0121,2.988,2.9863,0.0,0.0,0.0,0.0,0.0,0.0,0.0,0.0,0.0,2.9046,2.9537,2.9708,3.0186,3.0977,3.1727,3.2051,3.1981,3.2253,3.1555,3.0091,2.9416,2.8638,2.7804,2.7651,2.7572,2.7519,2.7423,0.0,0.0,0.0,0.0,0.0,2.6983,2.6859,0.0,2.6725,2.67,2.67,0.0,0.0,0.0,0.0,2.67,2.67,2.67,2.7309,2.8205,2.9313,2.96,2.977,3.0446,3.1183,3.1708,3.1708,3.2283,3.3011,3.3677,3.4738,3.5819,3.6801,3.8282,3.9834,4.1287,4.2482,4.3852,4.5581,4.6161,4.6974,4.8465,4.8547,4.868,4.9077,4.907,4.889,4.8487,4.7959,4.7821,4.8176,4.6953,4.6151,4.5837,4.5484,4.5185,4.4925,4.4443,4.4182,4.405,4.3504,4.3278,4.3328,4.2873,4.2973,4.3471,4.3768,4.4102,4.448,4.5119,4.5366,4.5342,4.5104,4.4721,4.4064,0.0,0.0,0.0,0.0,0.0,0.0,0.0,0.0,0.0,0.0,0.0,0.0,0.0,0.0,0.0,0.0,0.0,0.0,0.0,0.0,0.0,0.0,2.8809,2.914,3.0045,2.9786,3.0406,3.1916,3.2056,3.2078,3.2025,3.2098,3.118,2.9377,2.8215,2.76,2.7417,2.7198,2.7063,2.7007,2.707,0.0,0.0,0.0,0.0,0.0,0.0,0.0,0.0,2.6708,2.67,2.6683,2.6632,0.0,0.0,0.0,0.0,0.0,2.67,2.6869,2.7359,2.8671,2.8993,2.9365,3.0726,3.1775,3.2479,3.2479,3.3237,3.4292,3.556,3.5875,3.6577,3.8519,3.961,4.0832,4.2615,4.3053,4.3861,4.5764,4.6178,4.6841,4.8199,4.8912,4.9326,4.9425,4.937,4.9022,4.8288,4.8048,4.7939,4.7939,4.6868,4.5971,4.5304,4.52,4.4631,4.3609,4.3334,4.3215,4.3217,4.29,4.2999,4.3384,4.3236,4.3536,4.4168,4.4698,4.4959,4.5119,4.5685,4.5903,4.5858,4.5535,4.4865,4.39,0.0,0.0,0.0,0.0,0.0,0.0,0.0,0.0,0.0,0.0,0.0,0.0,0.0,0.0,0.0,0.0,0.0,0.0,0.0,0.0,0.0,2.8999,2.913,2.9268,2.9435,3.0633,3.136,3.157,3.3528,3.4445,3.4394,3.484,3.3419,3.0404,2.8868,2.781,2.7166,2.7127,2.7063,2.7007,2.707,0.0,0.0,0.0,0.0,0.0,0.0,0.0,0.0,2.6742,2.67,2.6641,2.6298,0.0,0.0,0.0,0.0,0.0,2.67,2.7647,2.8705,2.8942,2.8993,2.9221,3.0074,3.1816,3.3237,3.3237,3.4872,3.6344,3.6564,3.7623,3.8355,3.8113,4.0572,4.2757,4.3531,4.5128,4.6344,4.6692,4.7835,4.8945,4.9773,4.9955,5.0286,5.0917,5.0962,5.0889,5.0749,4.992,4.945,4.945,4.7408,4.5971,4.5304,4.4751,4.4646,4.499,4.3504,4.3345,4.4316,4.3374,4.3294,4.3877,4.3855,4.4182,4.477,4.485,4.5235,4.5772,4.5859,4.5903,4.57,4.3928,4.3177,4.2768,0.0,0.0,0.0,0.0,0.0,0.0,0.0,0.0,0.0,0.0,0.0,0.0,0.0,0.0,0.0,0.0,0.0,0.0,0.0,0.0,2.9162,3.0037,2.9826,2.9833,3.0172,3.0975,3.1754,3.2534,3.3423,3.4076,3.4449,3.3873,3.2301,2.9954,2.8818,2.7824,2.7047,2.7047,2.7032,2.7007,0.0,0.0,0.0,0.0,0.0,0.0,0.0,0.0,0.0,0.0,2.67,2.6666,2.6479,0.0,0.0,0.0,0.0,0.0,2.719,2.7816,2.8738,3.0381,3.1082,3.1562,3.2307,3.3914,3.5098,3.4681,3.6096,3.7369,3.7298,3.8428,3.9727,4.0812,4.2364,4.391,4.5291,4.5961,4.6742,4.7951,4.8349,4.8945,5.0087,5.0568,5.0933,5.1265,5.1662,5.1489,5.0528,5.0057,4.9587,4.9177,4.6938,4.5832,4.5996,4.4875,4.4226,4.405,4.3603,4.3584,4.3893,4.3762,4.3992,4.4494,4.4494,4.4857,4.5453,4.5453,4.5627,4.5903,4.5903,4.5903,4.579,4.4819,4.3748,4.2671,0.0,0.0,0.0,0.0,0.0,0.0,0.0,0.0,0.0,0.0,0.0,0.0,0.0,0.0,0.0,0.0,0.0,0.0,0.0,2.8749,2.9229,3.0624,3.0312,3.0546,3.148,3.1561,3.224,3.3567,3.3305,3.3404,3.3793,3.2591,3.109,2.9403,2.8776,2.7962,2.7024,2.7024,2.7024,2.704,0.0,0.0,0.0,0.0,0.0,0.0,0.0,0.0,0.0,0.0,0.0,0.0,0.0,0.0,0.0,2.6453,2.6605,2.6952,2.7612,2.8314,2.9456,3.1945,3.2858,3.3423,3.4506,3.5955,3.6874,3.627,3.7464,3.856,3.8308,3.9353,4.0966,4.3113,4.4092,4.5122,4.6675,4.6858,4.7404,4.8928,4.8912,4.921,5.0353,5.1132,5.1476,5.1283,5.1792,5.1417,4.9884,4.9607,4.9237,4.862,4.6615,4.5845,4.6523,4.5157,4.407,4.3314,4.3861,4.4027,4.3853,4.4251,4.469,4.5133,4.5133,4.5438,4.5903,4.5903,4.5903,4.5903,4.5903,4.5753,4.5489,4.5261,4.4022,4.239,0.0,0.0,0.0,0.0,0.0,0.0,0.0,0.0,0.0,0.0,0.0,0.0,0.0,0.0,0.0,0.0,0.0,0.0,0.0,2.8749,2.8963,2.9763,3.0224,3.1365,3.3265,3.2967,3.3201,3.4039,3.4037,3.3655,3.298,3.2808,3.157,2.9481,2.9247,2.8374,2.7094,2.7094,2.7094,2.7103,2.7225,0.0,0.0,0.0,0.0,0.0,0.0,0.0,0.0,0.0,0.0,0.0,0.0,0.0,2.6077,2.5698,2.6346,2.7267,2.7676,2.9828,3.2182,3.3102,3.2858,3.2926,3.5036,3.671,3.7792,3.7741,3.9366,4.0596,4.0028,4.1027,4.2165,4.2916,4.5192,4.6884,4.689,4.8614,4.969,4.916,5.027,5.1099,5.1198,5.1894,5.1987,5.1185,5.1161,5.0783,4.9844,4.9096,4.8661,4.8615,4.7063,4.6247,4.6331,4.5406,4.4709,4.4216,4.4445,4.4863,4.5424,4.5026,4.5206,4.5845,4.5845,4.5859,4.5903,4.5903,4.5903,4.5903,4.5903,4.5293,4.4289,4.3368,4.2306,4.1182,0.0,0.0,0.0,0.0,0.0,0.0,0.0,0.0,0.0,0.0,0.0,0.0,0.0,0.0,0.0,0.0,0.0,0.0,0.0,2.8469,2.9078,3.0873,3.0894,3.1935,3.4198,3.356,3.373,3.4776,3.4776,3.4138,3.2904,3.2882,3.1632,2.9429,2.936,2.851,2.7103,2.7063,2.7054,2.7111,2.7168,2.716,0.0,0.0,0.0,0.0,0.0,0.0,0.0,0.0,2.5707,2.5656,2.5355,2.5818,2.6528,2.6831,2.7235,2.8016,3.0053,3.142,3.2818,3.4973,3.5639,3.6113,3.7415,3.8519,3.9145,3.8684,3.9859,4.1147,4.1633,4.2815,4.4232,4.5852,4.6587,4.7602,4.9376,4.9574,4.9922,5.1015,5.1248,5.1463,5.1944,5.2242,5.2266,5.1926,5.1908,5.1306,4.988,4.9523,4.8872,4.7807,4.6821,4.63,4.63,4.5962,4.566,4.5343,4.5099,4.5032,4.5172,4.5418,4.5671,4.5903,4.5903,4.5903,4.5903,4.5903,4.5903,4.5903,4.5903,4.5663,4.5247,4.4865,4.4055,4.2982,0.0,0.0,0.0,0.0,0.0,0.0,0.0,0.0,0.0,0.0,0.0,0.0,0.0,0.0,0.0,0.0,0.0,0.0,2.8607,2.8288,2.9012,3.1059,3.0799,3.169,3.4084,3.3549,3.3766,3.4845,3.4604,3.38,3.2559,3.2504,3.1529,2.9799,2.9515,2.8707,2.7486,2.7216,2.7121,2.7168,2.7168,2.7136,0.0,0.0,0.0,0.0,0.0,0.0,0.0,0.0,2.4904,2.4929,2.5046,2.5572,2.6345,2.7327,2.7958,2.8919,3.1576,3.2808,3.3958,3.6513,3.7667,3.8454,3.9449,4.0049,4.0303,4.0028,4.1028,4.2233,4.3215,4.4328,4.561,4.7121,4.7702,4.8564,5.0353,5.0336,5.0618,5.1894,5.1811,5.1845,5.2342,5.2391,5.2178,5.1619,5.1582,5.084,4.9101,4.9015,4.8475,4.7352,4.6839,4.6614,4.6614,4.6514,4.64,4.6185,4.572,4.5442,4.5309,4.5722,4.5903,4.5903,4.5903,4.5903,4.5903,4.5903,4.5903,4.5903,4.5903,4.5903,4.5813,4.5155,4.4443,4.364,0.0,0.0,0.0,0.0,0.0,0.0,0.0,0.0,2.9551,2.9427,2.9402,0.0,0.0,0.0,0.0,0.0,0.0,0.0,2.8614,2.8288,2.8667,2.9932,2.9667,3.0549,3.2835,3.2886,3.3283,3.4096,3.33,3.2524,3.18,3.1654,3.1268,3.0644,2.9781,2.9016,2.8334,2.7617,2.7307,2.7307,2.7307,2.7178,2.6991,0.0,0.0,0.0,0.0,0.0,0.0,0.0,2.4491,2.4547,2.488,2.4993,2.5316,2.6783,2.8312,2.9926,3.182,3.3931,3.5988,3.7521,3.8371,3.9253,4.0844,4.1103,4.1221,4.1981,4.3135,4.4198,4.4815,4.5517,4.6033,4.6049,4.8381,4.9938,4.9243,5.0999,5.211,5.1397,5.1961,5.2391,5.2391,5.2391,5.1674,4.9943,4.9805,4.908,4.7402,4.7294,4.7309,4.7309,4.7309,4.7309,4.7309,4.7019,4.68,4.6594,4.6336,4.6188,4.6188,4.5993,4.5903,4.5903,4.5903,4.5903,4.5903,4.5903,4.5903,4.5903,4.5903,4.588,4.564,4.3559,4.2816,4.2501,0.0,0.0,0.0,0.0,0.0,0.0,0.0,0.0,2.9455,2.9412,2.9402,0.0,0.0,0.0,0.0,0.0,0.0,0.0,2.8601,2.8117,2.8219,2.9125,2.9372,3.0075,3.1326,3.1852,3.2507,3.3266,3.3586,3.3086,3.1783,3.1238,3.0566,2.9817,2.9041,2.8309,2.7609,2.7295,2.7128,2.7098,2.7098,2.7024,2.6934,0.0,0.0,0.0,0.0,0.0,0.0,0.0,0.0,0.0,2.4273,2.5171,2.6496,2.8028,2.9525,3.1271,3.3915,3.5881,3.7454,3.843,3.9576,4.0598,4.1089,4.1429,4.2102,4.3731,4.4775,4.5582,4.6207,4.6922,4.7751,4.8779,4.9227,4.9889,5.1231,5.153,5.1729,5.2043,5.2275,5.2391,5.2391,5.2391,5.1944,5.0802,5.0707,4.9974,4.8303,4.8214,4.7934,4.7331,4.7309,4.7309,4.7309,4.7019,4.68,4.6594,4.6336,4.6135,4.5993,4.5925,4.5903,4.5903,4.5903,4.5903,4.5903,4.5903,4.5903,4.5903,4.5903,4.5444,4.4712,4.4078,4.3402,4.2598,0.0,0.0,0.0,0.0,0.0,0.0,2.9807,2.9608,2.9456,2.9412,2.9402,2.9402,0.0,0.0,0.0,2.92,2.9027,2.8755,2.843,2.8058,2.8091,2.8622,2.8899,2.9437,3.0205,3.0972,3.142,3.1558,3.2645,3.2706,3.1792,3.1343,3.0869,3.0386,2.9644,2.8894,2.8153,2.7752,2.737,2.7039,2.7039,2.6983,2.6875,0.0,0.0,0.0,0.0,0.0,0.0,0.0,0.0,0.0,2.4109,2.5143,2.6742,2.9153,3.0913,3.273,3.5712,3.7618,3.8954,3.9681,4.0932,4.22,4.3039,4.348,4.414,4.5586,4.6428,4.7065,4.7733,4.8182,4.8829,5.0004,5.0071,5.0436,5.1778,5.1828,5.1894,5.2342,5.2391,5.2391,5.2391,5.2391,5.1891,5.0688,5.0592,4.9856,4.8172,4.8082,4.7843,4.7331,4.7309,4.7251,4.7142,4.6975,4.6756,4.6425,4.6291,4.609,4.5903,4.5903,4.5903,4.5903,4.5903,4.5903,4.5903,4.5903,4.5903,4.5903,4.5903,4.5512,4.4874,4.4452,4.3664,4.2647,0.0,0.0,0.0,0.0,0.0,0.0,2.9644,2.9589,2.9537,2.9427,2.9402,2.9402,0.0,0.0,0.0,2.9205,2.9184,2.8898,2.819,2.8123,2.8162,2.8321,2.8385,2.8713,2.9394,3.0179,3.0231,2.9498,3.1041,3.174,3.1593,3.1662,3.1662,3.1558,3.0826,3.0075,2.9334,2.856,2.7779,2.7094,2.7094,2.698,2.6714,2.6104,0.0,0.0,0.0,0.0,0.0,0.0,0.0,0.0,2.4288,2.5058,2.6404,2.9956,3.2188,3.4106,3.693,3.8966,4.0438,4.1052,4.2318,4.3979,4.6064,4.6692,4.6955,4.7394,4.7923,4.8511,4.926,4.9277,4.9441,5.017,5.0867,5.1314,5.1381,5.1977,5.2391,5.2391,5.2391,5.2391,5.2391,5.232,5.16,4.9939,4.9726,4.8994,4.7381,4.7309,4.7309,4.7309,4.7309,4.7164,4.6894,4.6894,4.6653,4.6188,4.6188,4.609,4.5903,4.5903,4.5903,4.5903,4.5903,4.5903,4.5903,4.5903,4.5903,4.5903,4.5903,4.5835,4.564,4.4559,4.3521,4.2501,0.0,0.0,0.0,0.0,0.0,0.0,2.9644,2.9512,2.9434,2.9407,2.9402,2.9402,2.9402,2.9304,0.0,2.9194,2.9095,2.8893,2.8525,2.8255,2.8032,2.7865,2.8203,2.8472,2.8627,2.9368,2.967,2.9498,3.1041,3.1179,3.0006,3.0636,3.0593,2.9972,2.9213,2.8766,2.8509,2.781,2.7316,2.7024,2.7024,2.6583,2.5934,2.5749,2.4913,0.0,0.0,0.0,0.0,0.0,0.0,0.0,2.4448,2.5397,2.686,2.8891,3.1742,3.4523,3.5763,3.8903,4.1741,4.1305,4.3206,4.5732,4.7929,4.889,4.9084,4.8206,4.8577,4.926,4.9891,4.9989,5.0187,5.095,5.1198,5.1497,5.2077,5.2292,5.2391,5.2391,5.2391,5.2391,5.2391,5.1782,5.0935,4.9884,4.9202,4.8407,4.7359,4.7309,4.7309,4.7309,4.7309,4.7164,4.6894,4.6894,4.6653,4.6188,4.6188,4.609,4.5903,4.5903,4.5903,4.5903,4.5903,4.5903,4.5903,4.5903,4.5903,4.5903,4.5903,4.5398,4.4513,4.3511,4.2463,4.1394,0.0,0.0,0.0,0.0,0.0,0.0,0.0,0.0,2.9848,2.9457,2.9402,2.9402,2.9402,2.9304,0.0,0.0,2.9119,2.8851,2.8386,2.819,2.7926,2.7534,2.7739,2.7868,2.7868,2.8247,2.8454,2.8454,2.961,2.9937,2.9506,2.992,2.9903,2.948,2.911,2.8705,2.8327,2.7865,2.7423,2.7008,2.6975,2.6646,2.6139,2.5775,2.5142,2.4408,2.4043,0.0,0.0,0.0,0.0,0.0,0.0,0.0,2.7139,2.939,3.1657,3.3992,3.6535,3.8937,4.1064,4.2472,4.4536,4.6802,4.9018,4.9813,5.009,5.0056,5.0091,5.0292,5.0859,5.089,5.1053,5.1713,5.1828,5.1961,5.2342,5.2391,5.2391,5.2391,5.2017,5.1782,5.1782,5.0989,5.0131,4.9282,4.8846,4.8214,4.7352,4.7309,4.7309,4.7309,4.7309,4.7164,4.6894,4.68,4.658,4.6188,4.6113,4.6001,4.5903,4.5903,4.5903,4.5903,4.5903,4.5903,4.5903,4.5903,4.5903,4.5903,4.5903,4.5233,4.4289,4.428,4.2971,4.1207,0.0,0.0,0.0,0.0,0.0,0.0,0.0,0.0,0.0,2.9495,2.9402,2.9402,2.9402,2.9334,2.9256,0.0,0.0,0.0,2.8143,2.8061,2.7815,2.7313,2.7345,2.7353,2.7307,2.7307,2.7307,2.7307,2.7911,2.8592,2.9308,2.9446,2.9429,2.9308,2.9308,2.9024,2.8517,2.8237,2.7759,2.717,2.7121,2.6885,2.6495,2.5909,2.5572,2.5338,2.4728,2.4498,2.4498,2.4498,0.0,0.0,0.0,0.0,2.7224,2.9837,3.1403,3.3173,3.7139,3.8882,4.0422,4.3924,4.5802,4.7392,4.9609,5.0201,5.0628,5.1849,5.1597,5.1312,5.1831,5.1777,5.182,5.231,5.2391,5.2391,5.2391,5.2284,5.2178,5.2178,5.1415,5.0876,5.0876,5.0096,4.9323,4.8641,4.847,4.8061,4.7352,4.7309,4.7309,4.7309,4.7309,4.7142,4.6844,4.6712,4.6469,4.6158,4.5993,4.5903,4.5903,4.5903,4.5903,4.5903,4.5903,4.5903,4.5903,4.5903,4.5903,4.5903,4.5903,4.5375,4.4652,4.5361,4.3961,4.1826,0.0,0.0,0.0,0.0,0.0,0.0,0.0,0.0,0.0,0.0,2.9402,2.9402,2.9402,2.9288,2.92,2.9194,2.9096,2.8749,2.8143,0.0,0.0,2.7305,2.7509,2.7542,2.7315,2.7307,2.7307,2.7307,2.7393,2.7816,2.8558,2.9205,2.9161,2.8558,2.8558,2.8758,2.9058,2.8442,2.81,2.7947,2.787,2.7121,2.5985,2.5707,2.5211,2.4626,2.4549,2.4498,2.4498,2.4498,2.4991,0.0,0.0,0.0,2.6894,2.7942,3.0176,3.2716,3.4584,3.8408,4.2452,4.4925,4.6177,4.7392,4.9609,5.0591,5.1254,5.1967,5.1883,5.1865,5.2393,5.2384,5.231,5.2375,5.2391,5.2391,5.2391,5.1745,5.1268,5.1268,5.0499,4.9962,4.9962,4.9237,4.8723,4.8615,4.7892,4.7424,4.7309,4.7309,4.7309,4.7309,4.7309,4.7077,4.6639,4.68,4.6558,4.5948,4.5903,4.5903,4.5903,4.5903,4.5903,4.5903,4.5903,4.5903,4.5903,4.5903,4.5903,4.5903,4.5903,4.5813,4.5595,4.4805,4.4242,4.3782,0.0,0.0,0.0,0.0,0.0,0.0,0.0,0.0,0.0,0.0,0.0,2.9402,2.9402,2.9304,2.9251,2.9251,2.9136,2.8863,2.8399,2.8099,2.7807,2.7542,2.7644,2.7577,2.7315,2.7307,2.7307,2.7307,2.7307,2.7678,2.8403,2.873,2.8713,2.8403,2.8361,2.8268,2.8141,2.8134,2.8135,2.8135,2.8475,2.872,2.877,2.7842,2.7816,2.8147,2.7317,2.6733,2.6353,2.6353,2.6285,2.6218,2.6218,0.0,0.0,0.0,2.8746,3.0565,3.414,3.8024,4.1707,4.4415,4.5635,4.6769,4.8984,5.0309,5.1156,5.1428,5.1564,5.1827,5.2473,5.2552,5.2498,5.2409,5.2391,5.223,5.1745,5.1341,5.0914,5.0422,4.9643,4.9136,4.9136,4.8366,4.787,4.787,4.7531,4.7309,4.7309,4.7309,4.7309,4.7309,4.7309,4.7121,4.6778,4.6734,4.6447,4.5903,4.5903,4.5903,4.5903,4.5903,4.5903,4.5903,4.5903,4.5903,4.5903,4.5903,4.5903,4.5903,4.5903,4.5535,4.5026,4.5141,4.4466,4.3402,0.0,0.0,0.0,0.0,0.0,0.0,0.0,0.0,0.0,0.0,0.0,2.9402,2.9402,0.0,0.0,0.0,2.9175,2.8964,2.8614,2.8378,2.8072,2.7723,2.7764,2.7634,2.7315,2.7307,2.7307,2.7307,2.7307,2.7678,2.8403,2.8403,2.8403,2.8403,2.8353,2.8018,2.7537,2.8134,2.8365,2.8442,2.9281,3.0151,3.0857,3.0119,3.0523,3.1352,3.0439,2.9499,2.8635,2.8449,2.7765,2.6945,2.6767,2.67,0.0,0.0,0.0,2.9548,3.3649,3.7094,4.0168,4.2804,4.4271,4.5631,4.7858,4.9405,5.0387,5.054,5.0911,5.1374,5.1887,5.2137,5.2301,5.2393,5.2391,5.2178,5.1508,5.1231,5.0783,4.9903,4.9096,4.8511,4.8297,4.7673,4.7309,4.7309,4.7309,4.7309,4.7309,4.7309,4.7309,4.7309,4.7229,4.7077,4.6822,4.6572,4.6239,4.5903,4.5903,4.5903,4.5903,4.5903,4.5903,4.5903,4.5903,4.5903,4.5903,4.5903,4.5903,4.5903,4.5903,4.5233,4.4434,4.5364,4.4579,4.3012,0.0,0.0,0.0,0.0,0.0,0.0,0.0,0.0,0.0,0.0,0.0,2.9402,2.9402,2.9344,2.9302,2.9302,2.9175,2.8964,2.8614,2.8582,2.8313,2.7738,2.7929,0.0,2.7305,2.7307,2.7307,2.7307,2.7307,2.7678,2.8403,2.8403,2.8403,2.8403,2.8403,2.8269,2.8109,2.8835,2.9115,2.9169,3.0545,3.0741,3.0383,3.1646,3.2175,3.2327,3.2949,3.2256,3.0929,3.0217,2.8973,2.7621,2.6911,2.67,2.6716,0.0,0.0,0.0,3.2209,3.5182,3.8396,3.996,4.1842,4.3923,4.6127,4.7669,4.8769,4.9276,4.9959,5.0425,5.0337,5.09,5.1597,5.2292,5.2391,5.2373,5.2338,5.1635,5.0783,4.9903,4.9096,4.8277,4.7445,4.7331,4.7309,4.7309,4.7309,4.7309,4.7309,4.7309,4.7309,4.7309,4.704,4.6822,4.6616,4.615,4.5925,4.5903,4.5903,4.5903,4.5903,4.5903,4.5903,4.5903,4.5903,4.5903,4.5903,4.5903,4.5903,4.5903,4.5903,4.5233,4.4383,4.5001,4.4526,4.364,0.0,0.0,0.0,0.0,0.0,0.0,0.0,0.0,0.0,0.0,0.0,0.0,0.0,2.9381,2.9349,2.9307,2.9175,2.8964,2.8614,2.8755,2.8595,2.7971,2.8047,2.8006,2.7822,2.7634,2.7554,2.7554,2.7554,2.784,2.8403,2.8403,2.8378,2.8319,2.7746,2.7532,2.7625,2.8194,2.8714,2.9361,3.1778,3.31,3.3726,3.4229,3.503,3.5808,0.0,0.0,3.251,3.1759,3.0514,2.9058,2.7799,2.741,2.7308,2.6843,2.7807,2.9507,3.1691,3.3975,3.6417,3.9377,4.166,4.3525,4.4798,4.6758,4.8242,4.7994,4.8812,4.9542,4.9491,5.0469,5.1381,5.1646,5.2093,5.2196,5.1653,5.0821,4.9959,4.9136,4.8277,4.7645,4.7331,4.7309,4.7309,4.7309,4.7309,4.7309,4.7309,4.7309,4.7309,4.7309,4.7207,4.699,4.6594,4.6127,4.5903,4.5903,4.5903,4.5903,4.5903,4.5903,4.5903,4.5903,4.5903,4.5903,4.5903,4.5903,4.6127,4.6467,4.6467,4.6515,4.6573,4.6793,4.6614,4.6223,0.0,0.0,0.0,0.0,0.0,0.0,0.0,0.0,2.9811,2.9811,0.0,0.0,0.0,0.0,2.9334,2.9235,2.9158,2.8998,2.8749,2.8899,2.8785,2.8295,2.8163,2.8061,2.7975,2.7445,2.73,2.7562,2.73,2.7465,2.8023,2.7982,2.7957,2.7915,2.6971,2.68,2.7197,2.776,2.8585,2.9751,3.2438,3.4215,3.5306,3.6084,3.7014,3.7792,0.0,0.0,0.0,3.406,3.2983,3.1586,2.9574,2.8415,2.7655,2.6911,2.7224,2.8297,3.0574,3.2452,3.4483,3.7471,3.9952,4.1943,4.3183,4.5117,4.6668,4.6717,4.7601,4.8365,4.8365,4.9558,5.0718,5.1215,5.1911,5.2106,5.1212,5.0595,4.9821,4.8723,4.8103,4.7624,4.7331,4.7309,4.7309,4.7309,4.7309,4.7309,4.7309,4.7309,4.7244,4.7055,4.707,4.6837,4.6373,4.606,4.5903,4.5903,4.5903,4.5903,4.5903,4.5903,4.5996,4.62,4.62,4.62,4.62,4.62,4.6577,4.7134,4.7134,4.718,4.7295,4.7487,4.7343,4.6908,0.0,0.0,0.0,0.0,0.0,0.0,3.1961,3.1143,3.0641,3.0641,0.0,0.0,0.0,0.0,0.0,2.91,2.9108,2.9074,2.8999,2.8999,2.8881,2.8607,2.8295,2.7992,2.7717,2.6668,2.6519,2.7296,2.6504,2.6531,2.7307,2.7168,2.7168,2.7249,2.6198,2.6188,2.6961,2.7683,2.8794,3.0267,0.0,3.388,3.4776,0.0,3.799,0.0,3.8819,3.8616,0.0,3.7105,0.0,3.5109,3.2188,2.9709,2.7756,2.6996,2.7258,2.7976,0.0,0.0,0.0,3.4083,3.6495,3.907,4.1244,4.2689,4.3977,4.5433,4.6328,4.6874,4.6891,4.8067,4.9507,5.0948,5.1827,5.2004,5.118,5.103,5.0387,4.8785,4.8594,4.8235,4.7381,4.7309,4.7309,4.7309,4.7309,4.7309,4.7309,4.7309,4.7077,4.6616,4.6594,4.6373,4.5903,4.5903,4.5903,4.5903,4.5903,4.5903,4.5903,4.5932,4.6258,4.6801,4.683,4.6844,4.6859,4.6844,4.723,4.7834,4.7834,4.72,4.6363,4.6961,4.6509,4.5495,0.0,0.0,0.0,0.0,0.0,3.2921,3.2698,3.1998,3.1478,0.0,0.0,0.0,3.0326,2.9646,2.9184,2.9119,2.9062,2.8934,2.8725,2.8893,2.8881,2.8607,2.8501,2.8254,2.7786,2.71,2.6839,2.7003,2.6644,2.6748,2.7307,2.7266,2.7194,2.7072,2.6769,2.6986,2.7563,2.7766,0.0,2.965,3.2886,3.4641,0.0,0.0,0.0,0.0,0.0,4.0578,3.9382,0.0,3.7528,3.6039,3.3575,3.163,3.0006,2.8739,2.8095,2.7858,2.806,0.0,0.0,0.0,0.0,0.0,3.9897,4.1521,4.3083,4.4011,4.5218,4.6262,4.6792,4.7226,4.7807,4.8701,4.9453,5.0033,5.026,4.9307,4.8571,4.8594,4.804,4.7559,4.7331,4.7309,4.7309,4.7309,4.7309,4.7309,4.7309,4.7309,4.7142,4.6822,4.6683,4.6425,4.6113,4.597,4.5903,4.5903,4.5903,4.5903,4.5917,4.6359,4.6641,4.683,4.7317,4.7782,4.815,4.7709,4.7883,4.844,4.844,4.8572,4.8744,4.8931,4.8283,4.7288,0.0,0.0,3.4203,3.4203,3.411,3.3924,3.3553,3.3107,3.268,0.0,0.0,0.0,3.1104,3.0876,3.0432,2.9677,2.9552,2.9312,2.8798,2.8911,2.8881,2.8607,2.8463,2.8045,2.7314,2.6548,2.614,2.6106,2.5773,2.5844,2.6333,2.6399,2.6479,2.6569,2.6497,2.6986,2.7936,2.8848,2.9696,0.0,3.3404,0.0,0.0,3.9085,4.0371,0.0,0.0,0.0,4.0937,4.051,3.9,0.0,3.6062,3.3643,3.1031,3.0168,2.9144,2.8374,2.8669,2.9908,3.1371,3.2473,0.0,0.0,3.8798,4.0384,4.1843,4.2597,4.3676,4.4512,4.4659,4.54,4.6124,4.6489,4.6879,4.7567,4.8866,4.8196,4.7732,4.8091,4.7634,4.7309,4.7309,4.7309,4.7309,4.7309,4.7309,4.7309,4.7309,4.7186,4.7019,4.6778,4.6558,4.6314,4.609,4.597,4.5903,4.5903,4.6156,4.6287,4.6301,4.694,4.7338,4.7613,4.8014,4.8537,4.9088,4.8749,4.8783,4.9117,4.9117,4.9349,4.9693,4.9693,4.8976,4.7945,0.0,0.0,3.4203,3.4203,3.4909,3.5206,3.4333,3.4271,3.4055,0.0,3.242,3.1914,3.1832,3.2389,3.2119,3.0561,3.0439,3.0054,2.9194,2.9133,2.8985,2.8663,2.836,2.7732,2.6741,2.5673,2.5124,2.5089,2.449,2.4467,2.5005,2.5212,2.5553,2.5989,2.5885,2.6689,2.8244,3.024,3.1657,3.2666,3.4161,3.5582,0.0,0.0,4.0324,4.0569,4.1394,4.2117,4.2638,4.2401,4.0561,0.0,0.0,3.587,3.2114,3.1691,3.0574,2.9576,2.9971,3.0468,3.1046,3.1775,3.3969,0.0,3.7627,3.8966,4.0158,4.0983,4.1678,4.2019,4.156,4.2949,4.4173,4.4331,4.4132,4.4723,4.7013,4.7277,4.7201,4.7155,4.7096,4.7115,4.7189,4.7189,4.7234,4.7294,4.7309,4.7309,4.7309,4.704,4.6822,4.6616,4.6336,4.6113,4.5903,4.5903,4.5903,4.5917,4.6496,4.6801,4.683,4.7564,4.8188,4.8701,4.8774,4.9146,4.9693,4.9693,4.9693,4.9693,4.9693,4.9693,4.9693,4.9693,4.8976,4.7844,3.3138,3.3793,3.4203,3.4203,3.4909,3.5206,3.4333,3.4798,3.4946,3.4073,3.3274,3.2749,3.2666,3.2181,3.1696,3.1298,3.1225,3.0834,3.002,2.9965,2.9648,2.8953,2.887,2.842,2.7583,2.6513,2.5857,2.5635,2.467,2.4467,2.5015,2.5621,2.5918,2.5939,2.6505,2.7504,2.8868,2.988,3.1765,3.4195,3.5735,3.6541,3.7117,3.9931,4.1715,4.2949,4.4319,4.4908,4.4756,4.2926,4.1927,4.1153,0.0,0.0,0.0,3.4736,3.322,3.2151,3.0417,3.0025,3.0243,0.0,0.0,0.0,3.4865,3.6029,3.7273,3.8133,3.8894,3.9675,4.061,4.0676,4.0946,4.2027,4.1196,4.1501,4.4689,4.5022,4.4935,4.4935,4.5393,4.5903,4.6435,4.6495,4.6719,4.7264,4.7309,4.7309,4.7309,4.704,4.6822,4.6616,4.6336,4.6113,4.5903,4.5903,4.5903,4.5917,4.6496,4.6801,4.6844,4.799,4.8585,4.873,4.9262,4.9577,4.9693,4.9693,4.9693,4.9693,4.9693,4.9693,4.9693,4.9693,4.8976,4.7844,3.3379,3.3924,3.4333,3.4779,3.5541,3.595,3.5504,3.6154,3.6395,3.5559,3.5448,3.5268,3.4803,3.437,3.3721,3.2772,3.2672,3.2285,3.1451,3.1396,3.0973,3.0044,2.9612,2.8773,2.7429,2.6751,2.5952,2.5044,2.447,2.4073,2.3867,2.4736,2.616,2.7919,2.7284,2.8913,3.2145,3.2251,3.3603,3.5752,3.6885,0.0,3.8768,4.1762,4.3352,4.4198,4.5703,4.6244,4.6024,4.4502,4.3487,0.0,4.1529,4.0189,3.8616,0.0,3.507,3.3503,0.0,0.0,0.0,3.0895,0.0,0.0,0.0,3.4531,3.5524,3.6334,3.7064,3.7665,3.7989,3.8295,3.8836,3.9838,3.9663,3.9865,4.1249,4.2818,4.3948,4.4349,4.4634,4.4945,4.5269,4.5298,4.5717,4.6719,4.7115,4.7309,4.7309,4.6946,4.669,4.6594,4.6225,4.6001,4.5903,4.5903,4.604,4.6374,4.6998,4.7454,4.7787,4.8769,4.9204,4.9219,4.9562,4.9693,4.9693,4.9693,4.9693,4.9693,4.9693,4.9693,4.9693,4.9693,4.8976,4.792,3.372,3.4092,3.4426,3.5132,3.5937,3.647,3.647,3.7157,3.7436,3.6786,3.7399,3.7632,3.6934,3.6983,3.6473,3.5004,3.4874,3.4428,3.3393,3.3331,3.2853,3.1822,3.0711,2.947,2.8113,2.7255,2.6114,2.467,2.4404,2.3843,2.3009,2.3931,2.6162,2.9387,2.8427,3.0427,0.0,0.0,0.0,3.7105,0.0,3.9415,4.1056,4.3941,4.5193,4.5633,4.7107,4.7462,4.7124,4.6549,4.5215,4.3812,4.3676,4.158,0.0,0.0,0.0,0.0,0.0,0.0,0.0,0.0,0.0,3.2341,0.0,0.0,0.0,3.477,3.5258,3.5489,3.534,3.6043,3.6836,3.736,3.8018,3.8317,3.7898,4.0333,0.0,4.3407,4.3773,4.3928,4.3928,4.4386,4.5134,4.6226,4.6975,4.7364,4.7244,4.6771,4.6528,4.6528,4.6127,4.5903,4.5903,4.5903,4.62,4.6815,4.7477,4.8116,4.8716,4.9378,4.9693,4.9693,4.9693,4.9693,4.9693,4.9693,4.9693,4.9693,4.9693,4.9693,4.9693,4.9693,4.9124,4.8313,3.3107,3.372,3.424,3.4333,3.5058,3.5634,3.5634,3.6321,3.6804,3.6711,3.7399,3.7856,3.7757,3.8333,3.8644,3.8444,3.8369,3.7659,3.6062,3.597,3.5547,3.4584,3.2403,3.1444,3.1943,2.9131,2.7104,2.5971,2.5016,2.4369,2.4036,2.4629,2.5778,2.7465,3.0325,3.164,0.0,0.0,3.7392,0.0,3.999,4.1715,0.0,4.5652,4.7361,4.8697,5.017,4.9848,4.8748,0.0,4.7208,4.5331,0.0,4.4178,4.3315,4.0633,0.0,0.0,0.0,0.0,0.0,0.0,3.2709,0.0,0.0,0.0,3.1953,3.2689,0.0,3.2587,0.0,0.0,0.0,3.4038,3.4622,0.0,3.5759,3.7118,3.8544,3.9832,4.155,4.262,4.262,4.4706,4.6136,4.6285,4.7263,4.7584,4.6983,4.6499,4.6254,4.6254,4.6023,4.5903,4.5903,4.5903,4.62,4.6815,4.7477,4.8116,4.8716,4.9378,4.9693,4.9693,4.9693,4.9693,4.9693,4.9693,4.9693,4.9693,4.9693,4.9693,4.9693,4.9693,4.962,4.936,3.3638,3.3962,3.437,3.4872,3.5634,3.634,3.6823,3.7584,3.8272,3.8773,3.9145,3.9514,3.9947,3.9789,3.9634,3.9634,3.9992,3.9736,3.8564,3.8483,3.7665,3.5826,3.3396,3.2045,3.1916,2.9318,2.7776,2.737,2.6091,2.5199,2.4684,2.5332,2.6982,2.9492,3.2293,3.4287,3.5753,0.0,4.105,0.0,0.0,0.0,0.0,4.709,4.797,4.9779,5.0812,5.0795,5.0203,0.0,4.9018,0.0,0.0,0.0,0.0,4.2645,0.0,0.0,0.0,0.0,0.0,0.0,0.0,0.0,3.1917,0.0,3.0539,0.0,0.0,0.0,0.0,0.0,0.0,0.0,3.323,0.0,0.0,0.0,3.7058,0.0,0.0,0.0,4.1733,4.4404,4.576,4.5022,4.6629,4.7229,4.6201,4.6182,4.6188,4.6188,4.6001,4.5903,4.5903,4.6258,4.6728,4.739,4.8029,4.8667,4.9291,4.9577,4.9693,4.9693,4.9693,4.9693,4.9693,4.9693,4.9693,4.9693,4.9693,4.9693,4.9693,4.9693,4.9693,4.962,3.4177,3.4017,3.4147,3.4983,3.5819,3.6711,3.7752,3.8792,3.9684,4.0315,4.0984,4.1586,4.2139,4.1992,4.185,4.185,4.2316,4.2242,4.1425,4.1135,4.0168,3.8348,3.5392,3.3616,3.3239,3.048,2.8855,2.8466,2.7162,2.615,2.5425,2.6105,2.8032,3.1045,3.3639,3.6073,3.8383,0.0,4.3512,4.5413,4.6348,4.8375,5.0659,4.896,4.9289,5.0794,5.1556,5.1691,5.1438,5.1133,5.0624,4.9898,4.8849,4.7481,4.5993,0.0,0.0,0.0,3.9871,0.0,0.0,0.0,0.0,0.0,0.0,0.0,0.0,0.0,0.0,0.0,0.0,0.0,0.0,0.0,0.0,3.2377,0.0,0.0,0.0,0.0,0.0,0.0,0.0,4.3606,4.4774,4.3983,4.61,4.6866,4.5601,4.5903,4.6113,4.6113,4.597,4.5903,4.5903,4.6496,4.7134,4.782,4.842,4.9059,4.9693,4.9693,4.9693,4.9693,4.9693,4.9693,4.9693,4.9693,4.9693,4.9693,4.9693,4.9693,4.9693,4.9693,4.9693,4.9693,3.4406,3.3571,3.3293,3.4104,3.4965,3.6061,3.7659,3.9294,4.0371,4.0408,4.2426,4.3893,4.3923,4.5334,4.6281,4.6281,4.6199,4.5763,4.4894,4.3981,4.3418,4.3276,3.9089,3.7104,3.7865,3.3627,3.0663,2.9172,2.8153,2.7243,2.645,2.7016,2.843,3.0666,3.4055,3.6077,3.724,4.1331,4.3572,4.4483,4.5929,4.7889,5.0113,0.0,5.2164,5.2334,5.3145,0.0,5.2384,5.3145,5.1911,5.01,5.0049,4.9018,0.0,0.0,0.0,0.0,0.0,4.0134,0.0,3.8133,0.0,0.0,0.0,0.0,3.1256,0.0,0.0,0.0,0.0,0.0,0.0,0.0,0.0,0.0,0.0,0.0,0.0,0.0,0.0,0.0,0.0,4.2307,4.3266,0.0,4.5889,4.665,4.5376,4.5688,4.5903,4.5903,4.5903,4.5903,4.5903,4.6496,4.7134,4.782,4.842,4.9059,4.9693,4.9693,4.9693,4.9693,4.9693,4.9693,4.9693,4.9693,4.9693,4.9693,4.9693,4.9693,4.9693,4.9693,4.9693,4.9693,3.5227,3.4465,3.4055,3.4909,3.5745,3.7027,3.9219,3.9554,4.04,4.2801,4.414,4.5326,4.6569,4.7496,4.805,4.8083,4.8488,4.8407,4.7566,4.6638,4.561,4.4482,3.9844,3.7418,3.7703,3.3933,3.1351,3.0054,2.9549,2.823,2.6254,2.7467,2.8396,2.9265,3.4196,3.7047,0.0,0.0,0.0,0.0,0.0,5.1355,5.2777,0.0,5.1894,5.2418,5.3213,5.3331,5.3145,5.3416,5.2993,5.2266,5.1725,5.0879,4.9798,4.8325,4.7012,4.5729,4.4442,4.3689,4.2712,4.0256,3.955,3.8779,0.0,0.0,0.0,0.0,0.0,0.0,0.0,0.0,0.0,0.0,0.0,0.0,0.0,0.0,0.0,0.0,0.0,0.0,0.0,0.0,0.0,0.0,4.4602,0.0,4.4472,4.4959,4.5453,4.5903,4.5903,4.5903,4.5903,4.6925,4.7564,4.782,4.8841,4.949,4.9693,4.9693,4.9693,4.9693,4.9693,4.9693,4.9693,4.9693,4.9693,4.9693,4.9693,4.9693,4.9693,4.9693,4.9693,4.9595,3.6395,3.5818,3.5372,3.5485,3.6637,3.8198,4.0111,4.0756,4.1932,4.444,4.5936,4.7279,4.8656,4.9609,5.0054,4.981,5.0722,5.0954,5.0093,4.9169,4.8025,4.6626,4.2539,4.0141,3.9841,3.5965,3.3301,3.203,3.06,2.8591,2.6136,2.7954,2.8895,2.9291,3.3994,3.7309,3.9589,4.3303,4.6481,0.0,0.0,5.2849,0.0,0.0,5.2232,5.3145,5.3416,5.3501,5.3501,5.3501,5.3501,5.3365,5.2553,5.1978,5.1336,5.0136,4.9052,4.7977,4.6706,4.6124,4.524,4.2625,4.1786,4.0944,3.8411,0.0,3.562,0.0,0.0,0.0,0.0,0.0,0.0,0.0,0.0,0.0,0.0,0.0,0.0,0.0,0.0,0.0,0.0,0.0,0.0,0.0,0.0,0.0,0.0,4.456,4.522,4.5888,4.5903,4.5903,4.5903,4.7166,4.7805,4.782,4.9098,4.9693,4.9693,4.9693,4.9693,4.9693,4.9693,4.9693,4.9693,4.9693,4.9693,4.9693,4.9693,4.9693,4.9693,4.9693,4.9693,4.9547,3.7864,3.7492,3.7095,3.5882,3.7547,3.938,4.0427,4.2805,4.4744,4.5403,4.7871,4.9768,5.0252,5.1797,5.2475,5.1714,5.2975,5.3453,5.2559,5.1601,5.0693,4.9822,4.6962,4.501,4.422,3.9622,3.6452,3.4853,3.1385,2.8485,2.6235,2.8444,2.9842,3.062,3.345,0.0,4.0478,4.1795,4.4509,4.81,5.0249,5.2433,5.4215,5.2901,5.3348,5.4533,5.3788,5.3501,5.3501,5.3501,5.3501,5.3365,5.2553,5.23,5.2147,5.137,5.0498,4.9597,4.8732,4.7337,4.5961,4.5114,4.3394,4.1722,4.0972,3.9751,3.8577,0.0,0.0,0.0,0.0,0.0,0.0,0.0,0.0,0.0,0.0,0.0,0.0,0.0,0.0,0.0,0.0,0.0,0.0,0.0,0.0,0.0,0.0,4.4589,4.5249,4.5888,4.5903,4.5903,4.5903,4.7166,4.7805,4.782,4.9098,4.9693,4.9693,4.9693,4.9693,4.9693,4.9693,4.9693,4.9693,4.9693,4.9693,4.9693,4.9693,4.9693,4.9693,4.9693,4.9693,4.9522,3.9084,3.8808,3.8556,3.8236,3.8191,3.9312,4.2575,4.3879,4.5432,4.8013,5.0569,5.2415,5.313,5.4503,5.5261,5.5057,5.5409,5.5498,5.5155,5.425,5.3308,5.2394,4.868,4.6258,4.5462,4.1336,3.7987,3.5542,3.344,3.067,2.7394,2.8464,2.9578,3.0729,3.2526,3.6474,4.1853,4.2743,4.6684,5.2382,5.2621,5.4263,5.6383,5.4537,5.4446,5.5119,5.3923,5.3501,5.3501,5.3501,5.3501,5.3365,5.2553,5.23,5.2046,5.076,5.0046,4.9469,4.8716,4.8393,4.8001,4.6694,4.6312,4.5831,4.4107,4.3016,4.188,4.0181,0.0,0.0,0.0,0.0,0.0,0.0,0.0,0.0,0.0,0.0,0.0,0.0,0.0,0.0,0.0,0.0,0.0,0.0,0.0,0.0,0.0,0.0,4.5729,4.588,4.5903,4.5903,4.5903,4.7166,4.7805,4.782,4.9098,4.9693,4.9693,4.9693,4.9693,4.9693,4.9693,4.9693,4.9693,4.9693,4.9693,4.9693,4.9693,4.9693,4.9693,4.9693,4.9693,4.941,4.155,4.0829,4.0448,4.084,4.111,4.1978,4.3926,4.5595,4.7819,5.1104,5.2887,5.4369,5.5761,5.6594,5.6901,5.6547,5.6956,5.707,5.6567,5.6019,5.5294,5.4349,5.1391,4.9379,4.8581,4.4455,0.0,3.847,3.5799,3.2539,2.8835,3.003,3.0959,3.1683,3.3424,3.7069,4.2076,4.4651,4.8601,5.3153,5.3536,5.4825,0.0,5.4952,5.4269,5.4049,5.3635,5.3281,5.2976,5.2976,5.2773,5.2418,5.1945,5.181,5.1641,5.0748,5.0303,4.9907,4.9106,4.8994,4.8828,4.7669,4.7419,4.7151,4.5947,4.5359,4.4717,4.3551,4.2842,4.2043,4.0718,0.0,0.0,0.0,0.0,0.0,0.0,0.0,0.0,0.0,0.0,0.0,0.0,0.0,0.0,0.0,0.0,0.0,0.0,0.0,0.0,4.5467,4.5758,4.5903,4.5903,4.6867,4.7506,4.782,4.8783,4.9432,4.9693,4.9693,4.9693,4.9693,4.9693,4.9693,4.9693,4.9693,4.9693,4.9693,4.9693,4.9693,4.9693,4.9693,4.9385,4.8688,4.436,4.3328,4.283,4.3374,4.5059,4.6165,4.5625,4.8097,5.1061,5.3977,5.4945,5.6045,5.7875,5.8125,5.7872,5.7186,5.7958,5.8161,5.7322,5.7202,5.6687,5.5651,5.4252,5.3041,5.2024,4.8034,4.4798,4.2413,3.851,3.4721,3.1198,3.2511,3.3159,3.3288,3.5238,0.0,0.0,4.7179,5.0418,5.2378,5.3767,5.4795,5.5426,5.4554,5.347,5.2499,5.301,5.2756,5.2181,5.2266,5.1809,5.1184,5.1083,5.1049,5.1016,5.0786,5.059,5.0259,4.9492,4.9194,4.8961,4.8299,4.7669,4.7176,4.7101,4.703,4.6932,4.6818,4.6515,4.6318,4.6569,0.0,0.0,0.0,0.0,0.0,0.0,0.0,0.0,0.0,0.0,0.0,0.0,0.0,0.0,0.0,0.0,0.0,0.0,0.0,0.0,4.5017,4.5525,4.5816,4.5903,4.6496,4.7134,4.782,4.842,4.9059,4.9693,4.9693,4.9693,4.9693,4.9693,4.9693,4.9693,4.9693,4.9693,4.9693,4.9693,4.9693,4.9693,4.9693,4.8976,4.7869,4.5698,4.6046,4.6315,4.5151,4.7592,5.003,5.0894,5.2302,5.3624,5.4583,5.6797,5.8301,5.8405,5.8755,5.8933,5.8783,5.86,5.8402,5.8201,5.8061,5.7269,5.5669,5.5328,5.419,5.206,4.9936,4.7652,4.5196,4.1824,3.9029,3.6739,3.5089,3.4677,3.5397,0.0,0.0,4.5328,4.9726,5.2396,5.3722,5.4594,5.5417,5.5917,5.3967,5.3197,5.2985,5.197,5.1505,5.1488,5.2097,5.1809,5.1083,5.0473,5.0287,5.0168,4.9545,4.914,4.8852,4.8702,4.886,4.9077,4.8928,4.8796,4.8696,4.8695,4.8216,4.7622,4.7011,4.7754,4.7833,4.5587,4.3167,0.0,0.0,0.0,0.0,0.0,0.0,0.0,0.0,0.0,0.0,0.0,0.0,0.0,0.0,0.0,0.0,0.0,0.0,0.0,0.0,4.5308,4.5351,0.0,4.6496,4.7134,4.782,4.842,4.9059,4.9693,4.9693,4.9693,4.9693,4.9693,4.9693,4.9693,4.9693,4.9693,4.9693,4.9693,4.9693,4.9693,4.9693,4.8976,4.7971,4.7732,4.886,4.9751,4.8524,5.1308,5.3912,5.4482,5.5893,5.7072,5.7549,5.8453,5.9233,5.9728,5.9633,5.9415,5.9178,5.8755,5.8258,5.7707,5.7991,5.7618,5.6282,5.6216,5.5684,5.4528,5.2923,5.0894,4.8434,4.5854,4.3461,4.1269,3.9192,3.868,3.9535,0.0,4.3539,0.0,5.0955,5.3126,5.4088,5.514,5.5618,5.5561,5.4488,5.376,5.3256,5.2962,5.2133,5.1201,5.1166,5.0913,5.0507,4.9763,4.9526,4.9442,4.9027,4.8706,4.8483,4.8372,4.8445,4.8614,4.8994,4.9094,4.9094,4.9094,4.9409,4.9293,4.7769,4.8647,4.8892,4.63,4.5277,4.4539,0.0,0.0,0.0,0.0,0.0,0.0,0.0,0.0,0.0,0.0,0.0,0.0,0.0,0.0,0.0,0.0,0.0,0.0,0.0,0.0,0.0,4.5903,0.0,4.6824,4.7805,4.8087,4.874,4.9693,4.9693,4.9693,4.9693,4.9693,4.9693,4.9693,4.9693,4.9693,4.9693,4.9693,4.9693,4.9693,4.9693,4.9336,4.8802,5.0514,5.1954,5.316,5.2301,5.4751,5.6913,5.7111,5.848,5.9622,6.0,5.972,5.9837,6.0856,6.025,5.965,5.928,5.8776,5.8078,5.7118,5.7744,5.7603,5.6345,5.6774,5.6811,5.6297,5.5225,5.3647,5.1573,4.9458,4.7102,4.4535,4.333,4.3244,4.4143,4.5566,4.7288,4.9302,5.2171,5.3706,5.4305,5.5501,5.5631,5.5071,5.4924,5.4208,5.3354,5.3768,5.2847,5.1319,5.0574,5.0321,5.0219,4.9661,4.9459,4.9444,4.9304,4.913,4.892,4.8726,4.8563,4.858,4.8995,4.9094,4.9061,4.8912,4.9889,5.0337,4.8597,4.916,4.9452,4.7775,4.7746,4.7482,0.0,0.0,0.0,0.0,0.0,0.0,0.0,0.0,0.0,0.0,0.0,0.0,0.0,0.0,0.0,0.0,0.0,0.0,0.0,0.0,4.5366,4.6295,0.0,4.6664,4.7805,4.7936,4.8604,4.9693,4.9693,4.9693,4.9693,4.9693,4.9693,4.9693,4.9693,4.9693,4.9693,4.9693,4.9693,4.9722,4.9853,4.9911,4.9778,5.4349,5.5643,5.6584,5.5765,5.6763,5.7951,5.8761,5.9229,5.9519,5.9554,6.0188,6.0682,6.0812,6.021,5.9774,5.9733,5.8926,5.8072,5.7237,5.771,5.6998,5.473,5.6712,5.6859,5.4675,5.5199,5.5016,5.4069,5.1689,4.8881,4.5746,4.6322,4.7185,4.8222,4.7737,4.9481,5.2897,5.4368,5.4925,5.4888,5.5673,5.5631,5.5031,5.4357,5.3778,5.3216,5.2609,5.2315,5.208,5.1336,5.11,5.1083,5.1015,5.0998,5.0966,5.0837,5.0658,5.0459,5.0243,5.0108,4.9839,4.9243,4.9094,4.8912,4.8266,4.873,4.926,4.9044,4.911,4.9286,4.957,4.9264,4.8982,4.8975,0.0,0.0,0.0,0.0,0.0,0.0,0.0,0.0,0.0,0.0,0.0,0.0,0.0,0.0,0.0,0.0,0.0,4.737,4.5801,4.5787,4.7602,4.7027,4.7085,4.782,4.8362,4.9001,4.9693,4.9693,4.9693,4.9693,4.9693,4.9693,4.9693,4.9693,4.9693,4.9693,4.9693,4.9693,4.9766,5.0376,5.0608,5.0506,5.6919,5.7838,5.8527,5.8189,5.8942,5.9721,6.0066,6.067,6.1056,6.1056,6.0921,6.0647,6.0244,5.9957,5.9573,5.9006,5.864,5.8035,5.7033,5.7699,5.7213,5.5218,5.6969,5.7317,5.5868,5.662,5.6638,5.5849,5.4381,5.3015,5.1701,5.0717,5.0634,5.1251,5.1119,5.2411,5.47,5.4923,5.5229,5.554,5.5395,5.5459,5.5613,5.5314,5.4927,5.4505,5.4239,5.364,5.2993,5.2689,5.2266,5.1776,5.1336,5.1201,5.1169,5.1039,5.0859,5.066,5.0443,5.0307,5.0253,5.0369,5.042,5.0353,5.0055,5.0552,5.0701,4.9359,4.9441,4.9687,4.9476,5.0232,5.0369,4.8767,0.0,0.0,0.0,0.0,0.0,0.0,0.0,0.0,0.0,0.0,0.0,0.0,0.0,0.0,0.0,0.0,0.0,4.7718,0.0,4.5845,4.7776,4.7134,4.7134,4.782,4.842,4.9059,4.9693,4.9693,4.9693,4.9693,4.9693,4.9693,4.9693,4.9693,4.9693,4.9737,5.0143,5.0303,5.0376,5.1004,5.1236,5.1204,5.864,5.9319,5.9954,6.0223,6.0762,6.1268,6.1493,6.205,6.246,6.246,6.1916,6.1352,6.0882,6.064,6.0228,5.9553,5.93,5.8725,5.7643,5.8375,5.8088,5.6374,5.7611,5.7978,5.7171,5.7483,5.7483,5.7141,5.6117,5.5236,5.4491,5.2503,5.2452,5.4037,5.3905,5.4598,5.5833,5.5648,5.5613,5.5667,5.5595,5.574,5.5999,5.6071,5.5812,5.537,5.5177,5.4411,5.3501,5.3501,5.3129,5.257,5.203,5.1877,5.1828,5.163,5.1464,5.1279,5.1058,5.092,5.0916,5.1215,5.1298,5.1231,5.1033,5.1546,5.1579,4.9806,4.9839,4.9905,4.8945,5.0112,5.0609,4.8751,4.8196,0.0,0.0,0.0,0.0,0.0,0.0,4.4097,4.3197,0.0,0.0,0.0,0.0,0.0,0.0,0.0,0.0,0.0,0.0,0.0,4.8043,4.7433,4.7433,4.8058,4.8711,4.9233,4.9693,4.9504,4.9417,4.9417,4.9417,4.9417,4.9446,4.9838,4.9983,5.0056,5.0724,5.0946,5.1033,5.1657,5.1904,5.1867,5.9492,6.0185,6.1056,6.1922,6.2076,6.2345,6.3141,6.3275,6.3295,6.3295,6.3275,6.3269,6.3269,6.2605,6.2136,6.2061,6.1264,6.036,5.9435,5.9995,5.9648,5.8033,5.8756,5.8811,5.7997,5.7226,5.7207,5.7997,5.6374,5.4373,5.2005,5.039,5.2179,5.6715,5.5651,5.5632,5.6422,5.6938,5.6301,5.5039,5.6554,5.6712,5.6016,5.6224,5.5932,5.5311,5.4657,5.4027,5.3501,5.3501,5.3501,5.3484,5.3484,5.3467,5.3382,5.299,5.2886,5.28,5.2481,5.2375,5.2192,5.1463,5.1298,5.1116,5.0386,5.0767,5.1099,5.0336,5.0187,4.9739,4.8282,4.863,4.9284,4.9699,4.9272,4.8805,0.0,4.7145,0.0,0.0,4.7395,4.7138,4.7123,0.0,0.0,0.0,0.0,0.0,0.0,0.0,0.0,4.7776,4.6571,0.0,4.8672,4.8087,4.8087,4.8701,4.9364,4.9693,4.9679,4.9016,4.8716,4.8716,4.8716,4.8716,4.8817,5.0158,5.0695,5.0753,5.1352,5.1588,5.1661,5.2351,5.2583,5.25,6.1987,6.2314,6.2589,6.2878,6.2916,6.3006,6.3256,6.3795,6.4179,6.4179,6.4661,6.5,6.5,6.3532,6.2393,6.2062,6.1439,6.0924,6.0581,6.0448,5.9942,5.8866,5.9068,5.8811,5.8015,5.7758,5.774,5.7997,5.7483,5.6852,5.6069,5.5567,5.5849,5.6799,5.6832,5.6671,5.6392,5.6394,5.641,5.6464,5.6422,5.6567,5.6794,5.6438,5.5936,5.5311,5.4641,5.401,5.3501,5.3501,5.3501,5.3501,5.3501,5.3501,5.3416,5.3024,5.2903,5.2833,5.2498,5.2391,5.2342,5.211,5.2043,5.1994,5.1744,5.1497,5.1231,5.1,5.095,5.0652,4.969,4.9658,4.9336,4.7983,4.7123,4.6416,4.5723,0.0,4.4766,4.5523,4.5273,4.5018,4.5018,4.5722,0.0,0.0,0.0,0.0,0.0,0.0,0.0,0.0,4.678,0.0,4.8687,4.7642,4.7448,4.8087,4.8313,4.8401,4.8415,4.8624,4.8469,4.8101,4.8513,4.8701,4.8774,4.964,5.0288,5.0768,5.1367,5.1889,5.2354,5.2978,5.321,5.3187,6.3198,6.3295,6.341,6.3737,6.3795,6.3891,6.4224,6.4743,6.5089,6.5089,6.5532,6.5833,6.5833,6.4613,6.3604,6.314,6.2516,6.2108,6.2008,6.1568,6.1086,6.0572,5.9967,5.9416,5.8914,5.8309,5.7997,5.7997,5.7997,5.7997,5.7997,5.7997,5.7717,5.7201,5.7478,5.7139,5.6321,5.6418,5.6573,5.673,5.6531,5.6748,5.7125,5.6528,5.6077,5.5618,5.4717,5.4155,5.38,5.3568,5.3501,5.3501,5.3501,5.345,5.3331,5.3006,5.2851,5.2729,5.2463,5.2391,5.2391,5.2391,5.2391,5.2391,5.2391,5.2043,5.1629,5.1347,5.1298,5.1066,5.0353,4.9908,4.9194,4.7798,4.6667,4.5714,4.5107,4.4547,4.4535,0.0,0.0,4.4989,0.0,4.5909,4.62,0.0,0.0,0.0,0.0,0.0,0.0,4.7642,4.6737,4.6925,4.8362,4.7555,4.7506,4.813,4.7921,4.7805,4.782,4.8188,4.8159,4.7834,4.8426,4.8832,4.9132,4.9809,5.0593,5.145,5.1817,5.2368,5.2963,5.337,5.3489,5.3489,6.3468,6.3487,6.3737,6.4551,6.4686,6.4955,6.5788,6.5904,6.5904,6.5904,6.5897,6.5891,6.5885,6.5702,6.5431,6.4972,6.4193,6.3665,6.3513,6.3062,6.2793,6.2793,6.1306,6.0493,6.0493,5.8914,5.8052,5.7997,5.7997,5.7997,5.7997,5.7997,5.7902,5.7719,5.7625,5.7085,5.6243,5.6925,5.6772,5.615,5.6911,5.7188,5.7125,5.6528,5.6298,5.6128,5.4855,5.4407,5.4313,5.3701,5.3501,5.3501,5.3484,5.3348,5.3127,5.2955,5.2746,5.257,5.2427,5.2391,5.2391,5.2391,5.2391,5.2391,5.2391,5.2391,5.2209,5.1513,5.1381,5.1131,5.0333,4.949,4.8869,4.875,4.7427,4.6347,4.6101,4.54,4.5418,4.6863,4.6392,4.6405,4.7495,4.7013,4.6177,0.0,0.0,0.0,0.0,0.0,4.8459,4.6048,4.6496,4.712,4.7791,4.7718,4.7941,4.8498,4.8029,4.7776,4.7747,4.7834,4.7849,4.7834,4.8426,4.9059,4.9679,5.0347,5.1363,5.2467,5.2467,5.2859,5.3384,5.3384,5.3384,5.3384,6.5147,6.5282,6.5359,6.5551,6.559,6.5647,6.5859,6.5904,6.5904,6.5904,6.5852,6.5781,6.5682,6.558,6.5465,6.5298,6.4501,6.3867,6.3524,6.3062,6.2793,6.2793,6.1851,6.1318,6.1318,5.974,5.8609,5.7997,5.7997,5.7997,5.7997,5.7997,5.7597,5.692,5.7387,5.7073,5.6237,5.6912,5.708,5.6935,5.7116,5.7188,5.7125,5.6528,5.6298,5.6128,5.4855,5.4407,5.4313,5.3701,5.3501,5.3467,5.3315,5.3127,5.2955,5.2903,5.2746,5.257,5.2427,5.2391,5.2391,5.2391,5.2391,5.2391,5.2391,5.2391,5.2342,5.2176,5.2143,5.1717,5.0317,4.9371,4.8428,4.727,4.6243,4.5397,4.4825,4.4316,4.4314,4.5123,4.4353,4.4233,4.5467,4.5024,4.5343,0.0,0.0,4.7332,4.8502,4.8357,4.7738,4.6612,4.6728,4.712,4.7791,4.6847,4.6426,4.6563,4.7413,4.7521,4.7062,4.8034,4.8246,4.7834,4.8426,4.8788,4.9001,4.9654,5.0419,5.1145,5.1145,5.1512,5.2038,5.2038,5.2038,5.2038,6.5801,6.5904,6.5904,6.5904,6.5904,6.5904,6.5904,6.5904,6.5904,6.5904,6.5865,6.5813,6.5701,6.5606,6.5438,6.519,6.451,6.4014,6.3793,6.3163,6.2793,6.2793,6.2034,6.1429,6.1062,5.9838,5.8811,5.7997,5.7997,5.7997,5.7997,5.7997,5.7689,5.7158,5.746,5.7273,5.6776,5.7057,5.7188,5.7188,5.7188,5.7188,5.7163,5.6837,5.6719,5.6582,5.5612,5.5082,5.4749,5.4124,5.3667,5.3348,5.323,5.299,5.2764,5.2764,5.2624,5.2481,5.2409,5.2391,5.2391,5.2391,5.2391,5.2391,5.2391,5.2391,5.2391,5.2391,5.2391,5.2134,5.1257,5.0075,4.8989,4.8141,4.6752,4.555,4.4989,4.4448,4.4158,4.4307,4.3809,4.3855,4.4814,4.4589,4.5119,4.6803,4.6592,0.0,4.7921,4.7564,4.7187,4.6815,4.6801,4.6975,4.7346,4.6664,4.6316,4.633,4.7013,4.7317,4.7303,4.8252,4.8513,4.8246,4.8885,4.9335,4.9625,4.9679,5.0274,5.1077,5.0811,5.1062,5.1588,5.1588,5.1588,5.1588,6.5904,6.5904,6.5904,6.5904,6.5904,6.5904,6.5904,6.5994,6.6077,6.6077,6.6199,6.6243,6.6171,6.6031,6.5794,6.5386,6.4879,6.4418,6.4024,6.325,6.2793,6.2793,6.2144,6.1392,6.0603,5.9673,5.8811,5.7997,5.7997,5.8052,5.818,5.818,5.8165,5.8134,5.8014,5.788,5.7714,5.7601,5.755,5.755,5.7424,5.7387,5.7369,5.7243,5.7188,5.7112,5.6515,5.5904,5.5296,5.4626,5.3879,5.323,5.3161,5.2921,5.2624,5.2571,5.2481,5.2391,5.2391,5.2391,5.2391,5.2391,5.2391,5.2391,5.2391,5.2391,5.2391,5.2391,5.2391,5.2356,5.223,5.0992,5.0026,5.0133,4.8136,4.6482,4.621,4.5313,4.459,4.4211,4.4073,4.4247,4.4843,4.4828,4.5046,4.5714,4.5758,4.5845,4.6026,4.6424,4.6714,4.6801,4.6801,4.6801,4.6801,4.6801,4.6859,4.6946,4.7047,4.7381,4.7941,4.858,4.8846,4.8875,4.9461,5.0027,5.0506,4.9925,5.0347,5.1265,5.0753,5.0859,5.1298,5.1298,5.1298,5.1298,6.5904,6.5904,6.5904,6.5904,6.5904,6.5904,6.5904,6.6481,6.6904,6.6904,6.7518,6.7892,6.7829,6.7697,6.7581,6.7456,6.7049,6.5896,6.3742,6.3098,6.2793,6.2793,6.2683,6.2236,6.1429,5.9948,5.8811,5.7997,5.7997,5.8345,5.9013,5.9013,5.9242,5.9662,5.9637,5.9487,5.9261,5.9235,5.9235,5.918,5.8492,5.8202,5.8148,5.746,5.7188,5.7112,5.6515,5.5904,5.5296,5.4626,5.3978,5.3382,5.3041,5.2903,5.2816,5.2516,5.2409,5.2391,5.2391,5.2391,5.2391,5.2391,5.2391,5.2391,5.2391,5.2391,5.2391,5.2391,5.2391,5.2178,5.1434,5.1081,5.1068,5.1581,4.9542,4.8121,4.8721,4.6726,4.5156,4.5026,4.4407,4.4247,4.4843,4.4451,4.4385,4.5017,4.5061,4.5518,4.6598,4.6272,4.6272,4.6786,4.6801,4.6801,4.6801,4.6801,4.7076,4.766,4.815,4.8455,4.8571,4.9233,4.9548,4.9562,4.9649,4.9751,4.9853,4.9737,4.9824,4.9998,4.9896,4.9911,4.9998,4.9998,4.9998,4.9998,6.7244,6.7244,6.7244,6.7244,6.7244,6.7244,6.7244,6.7552,6.7802,6.7802,6.8081,6.8274,6.8218,6.8084,6.7963,6.7913,6.7526,6.6806,6.5625,6.4893,6.4402,6.4163,6.415,6.3545,6.2273,6.1098,6.0107,5.9281,5.9281,5.9483,5.9857,5.9857,5.9944,6.0102,6.0027,5.9876,5.9688,5.9623,5.9602,5.9566,5.9198,5.9054,5.9017,5.8637,5.8492,5.8453,5.8186,5.7403,5.6438,5.5769,5.4766,5.3733,5.311,5.2834,5.2694,5.2463,5.2391,5.2391,5.2391,5.2391,5.2391,5.2391,5.2391,5.2391,5.2391,5.2391,5.2391,5.2391,5.2391,5.2284,5.1871,5.1415,5.1029,5.085,4.9469,4.8335,4.8089,4.6867,4.594,4.5749,4.5317,4.5133,4.5424,4.5191,4.5148,4.5424,4.5438,4.5692,4.6287,4.6374,4.6496,4.6801,4.6801,4.6975,4.7346,4.7346,4.7666,4.829,4.8571,4.8875,4.9248,4.9562,4.9693,4.9693,4.9693,4.9693,4.9693,4.9693,4.9693,4.9693,4.9693,4.9693,4.9693,4.9693,4.9693,4.9693,6.8391,6.8391,6.8391,6.8391,6.8391,6.8391,6.8391,6.8564,6.8692,6.866,6.8765,6.8829,6.8776,6.8648,6.8533,6.8497,6.8193,6.7973,6.7882,6.7247,6.6502,6.5632,6.5317,6.4418,6.2829,6.2016,6.1208,6.0401,6.0401,6.0511,6.0676,6.0658,6.0665,6.0706,6.0568,6.0445,6.029,6.0198,6.0163,6.0145,5.9946,5.9873,5.9855,5.9656,5.9602,5.9602,5.9602,5.8817,5.7683,5.6993,5.5846,5.452,5.3482,5.3049,5.2875,5.2495,5.2391,5.2391,5.2391,5.2391,5.2391,5.2391,5.2391,5.2391,5.2391,5.2391,5.2391,5.2391,5.2391,5.2391,5.2391,5.169,5.099,5.0658,4.9439,4.8313,4.78,4.703,4.6425,4.621,4.6023,4.5903,4.5903,4.5903,4.5903,4.5903,4.6026,4.6113,4.6113,4.6708,4.7091,4.7251,4.7105,4.7361,4.7985,4.7999,4.8319,4.8919,4.8919,4.9204,4.9693,4.9693,4.9693,4.9693,4.9693,4.9693,4.9693,4.9693,4.9693,4.9693,4.9693,4.9693,4.9693,4.9693,4.9693,4.9693,6.8391,6.8391,6.8391,6.8391,6.8391,6.8391,6.8391,6.9084,6.9563,6.9437,7.0057,7.0501,7.0428,7.0303,7.0228,7.022,7.0195,7.0006,6.9635,6.956,6.8618,6.66,6.5371,6.4138,6.2823,6.2016,6.1208,6.0401,6.0401,6.0786,6.1502,6.1385,6.1649,6.2232,6.2101,6.1955,6.1842,6.1829,6.1829,6.1756,6.1014,6.0706,6.0634,5.9873,5.9602,5.9602,5.9602,5.9177,5.8517,5.7839,5.7108,5.621,5.4461,5.3925,5.3703,5.2681,5.2391,5.2391,5.2391,5.2391,5.2391,5.2391,5.2391,5.2391,5.2391,5.2391,5.2391,5.2391,5.2391,5.2391,5.2391,5.169,5.152,5.2842,5.0341,4.868,4.9949,4.7877,4.621,4.6188,4.6023,4.5903,4.5903,4.5903,4.5903,4.5903,4.6409,4.6728,4.6728,4.7361,4.7985,4.8542,4.8014,4.8014,4.8629,4.8629,4.8972,4.9635,4.9635,4.9649,4.9693,4.9693,4.9693,4.9693,4.9693,4.9693,4.9693,4.9693,4.9693,4.9693,4.9693,4.9693,4.9693,4.9693,4.9693,4.9693,6.9956,6.9956,6.9956,6.9956,6.9956,6.9956,6.9956,7.0225,7.0409,7.0321,7.0529,7.0658,7.0604,7.0487,7.0392,7.0392,7.0392,7.0334,7.0179,7.017,6.9427,6.7796,6.7249,6.6161,6.4383,6.4053,6.3246,6.1893,6.1893,6.204,6.2334,6.2209,6.2252,6.2389,6.2257,6.2141,6.201,6.201,6.201,6.1973,6.1666,6.1539,6.1521,6.1195,6.1086,6.1086,6.1086,6.0607,5.9841,5.8752,5.7835,5.6859,5.5189,5.4606,5.4293,5.3307,5.3019,5.292,5.2507,5.2391,5.2391,5.2391,5.2391,5.2391,5.2391,5.2391,5.2391,5.2391,5.2391,5.2391,5.2391,5.2142,5.1738,5.1216,5.0041,4.897,4.8305,4.7199,4.6542,4.678,4.6612,4.6621,4.705,4.7079,4.7079,4.7079,4.7288,4.7419,4.7419,4.8014,4.8653,4.9291,4.9098,4.9098,4.9306,4.932,4.9461,4.9693,4.9693,4.9693,4.9693,4.9693,4.9693,4.9693,4.9693,4.9693,4.9693,4.9693,4.9693,4.9693,4.9693,4.9693,4.9693,4.9693,4.9693,4.9693,7.0898,7.0898,7.0898,7.0898,7.0898,7.0898,7.0898,7.0898,7.0864,7.0784,7.0726,7.0651,7.0554,7.047,7.0392,7.0392,7.0392,7.0392,7.0392,7.0392,6.9871,6.8684,6.8383,6.7319,6.5351,6.505,6.4224,6.2793,6.2793,6.2793,6.2811,6.2616,6.2493,6.2389,6.2217,6.2087,6.201,6.201,6.201,6.201,6.201,6.201,6.201,6.201,6.201,6.201,6.201,6.1648,6.0964,5.9623,5.8761,5.7875,5.6038,5.5115,5.4577,5.3932,5.3746,5.3647,5.3185,5.3053,5.2937,5.2507,5.2391,5.2391,5.2391,5.2391,5.2458,5.2673,5.2705,5.2789,5.3021,5.2854,5.2179,5.0708,5.0232,4.9491,4.7878,4.74,4.7308,4.7568,4.7328,4.7303,4.7762,4.7805,4.7805,4.7805,4.797,4.8159,4.8386,4.8783,4.9219,4.9693,4.9693,4.9693,4.9693,4.9693,4.9693,4.9693,4.9693,4.9693,4.9693,4.9693,4.9693,4.9693,4.9693,4.9693,4.9693,4.9693,4.9693,4.9693,4.9693,4.9693,4.9693,4.9693,4.9693,4.9737,7.0898,7.0898,7.0898,7.0898,7.0898,7.0898,7.0898,7.0898,7.085,7.0718,7.0696,7.0609,7.0416,7.0392,7.0392,7.0392,7.0392,7.0392,7.0392,7.0392,7.0008,6.9134,6.8331,6.7086,6.5332,6.4512,6.3668,6.2793,6.2793,6.2793,6.278,6.2532,6.2402,6.2389,6.2114,6.201,6.201,6.201,6.201,6.201,6.201,6.201,6.201,6.201,6.201,6.201,6.201,6.201,6.1794,6.0454,5.9998,5.9553,5.7021,5.5421,5.4525,5.4508,5.4508,5.4508,5.4508,5.4508,5.416,5.2772,5.2424,5.2424,5.2424,5.2424,5.2607,5.3266,5.3415,5.3631,5.4376,5.3836,5.2991,5.2055,5.1183,5.0277,4.9434,4.8846,4.8502,4.8502,4.8086,4.782,4.782,4.782,4.782,4.782,4.8377,4.9016,4.9664,4.9693,4.9693,4.9693,4.9693,4.9693,4.9693,4.9693,4.9693,4.9693,4.9693,4.9693,4.9693,4.9693,4.9693,4.9693,4.9693,4.9693,4.9693,4.9693,4.9693,4.9693,4.9708,4.9708,4.9708,4.9708,4.9708,4.9809,7.0898,7.0898,7.0898,7.0898,7.0898,7.0898,7.0898,7.0898,7.0864,7.0791,7.0733,7.0651,7.0554,7.047,7.0392,7.0392,7.0392,7.0392,7.0392,7.0392,7.0008,6.9134,6.8331,6.7086,6.5332,6.4512,6.3668,6.2793,6.2793,6.2793,6.278,6.2532,6.2402,6.2389,6.2114,6.201,6.201,6.201,6.201,6.201,6.201,6.201,6.201,6.201,6.201,6.201,6.201,6.201,6.1794,6.0454,5.9918,5.9443,5.7396,5.6445,5.5935,5.5419,5.527,5.517,5.4641,5.4508,5.4392,5.3997,5.3881,5.3881,5.3881,5.3881,5.3929,5.4127,5.4177,5.4243,5.4458,5.3798,5.2928,5.2034,5.1119,5.0184,4.9157,4.8877,4.8811,4.8919,4.8799,4.8823,4.9107,4.9127,4.9127,4.9127,4.9315,4.9504,4.9693,4.9693,4.9693,4.9693,4.9693,4.9693,4.9693,4.9693,4.9693,4.9693,4.9693,4.9693,4.9693,4.9693,4.9693,4.9693,4.9693,4.9693,4.9693,4.9693,4.9693,4.9751,5.0216,5.0405,5.0448,5.0873,5.1033,5.1062,7.0898,7.0898,7.0898,7.0898,7.0898,7.0898,7.0898,7.0898,7.0871,7.082,7.0748,7.0658,7.0604,7.0487,7.0392,7.0392,7.0392,7.0392,7.0392,7.0392,7.0008,6.9134,6.8004,6.6725,6.5332,6.4182,6.3337,6.2793,6.2793,6.2793,6.278,6.2532,6.2402,6.2389,6.2114,6.201,6.201,6.201,6.201,6.201,6.201,6.201,6.201,6.201,6.201,6.201,6.201,6.201,6.1794,6.0454,5.9446,5.8564,5.7445,5.693,5.6616,5.6183,5.6031,5.5932,5.5504,5.5371,5.5371,5.5371,5.4922,5.4508,5.4508,5.4508,5.4574,5.4872,5.4939,5.5021,5.5322,5.4649,5.3749,5.2874,5.1944,5.0971,4.9956,4.9664,4.9556,4.9633,4.9487,4.9426,4.9688,4.9693,4.9693,4.9693,4.9693,4.9693,4.9693,4.9693,4.9693,4.9693,4.9693,4.9693,4.9693,4.9693,4.9693,4.9693,4.9693,4.9693,4.9693,4.9693,4.9693,4.9708,4.9983,5.01,5.0114,5.0361,5.0438,5.0481,5.0888,5.1048,5.1091,5.1458,5.1588,5.1588,7.0898,7.0898,7.0898,7.0898,7.0898,7.0898,7.0898,7.0898,7.0871,7.082,7.0748,7.0658,7.0604,7.0487,7.0392,7.0392,7.0392,7.0392,7.0392,7.0392,7.0008,6.9134,6.7564,6.6307,6.5424,6.3692,6.2793,6.2793,6.2793,6.278,6.2786,6.2519,6.2389,6.2362,6.2114,6.201,6.201,6.201,6.201,6.201,6.201,6.201,6.201,6.201,6.201,6.201,6.201,6.201,6.1794,6.0439,5.8823,5.7385,5.7308,5.7006,5.6699,5.6699,5.6699,5.6699,5.6699,5.6699,5.6699,5.6699,5.5686,5.4707,5.4707,5.4707,5.4889,5.5568,5.57,5.588,5.6467,5.5812,5.4886,5.4019,5.308,5.217,5.1331,5.0828,5.0548,5.0534,5.011,4.979,4.9756,4.9693,4.9693,4.9693,4.9693,4.9693,4.9693,4.9693,4.9693,4.9693,4.9693,4.9693,4.9693,4.9693,4.9693,4.9693,4.9693,4.9693,4.9693,4.9766,4.9751,4.9737,5.0477,5.0753,5.0753,5.1352,5.1588,5.1603,5.1661,5.1675,5.169,5.1748,5.1733,5.1661,7.0898,7.0898,7.0898,7.0898,7.0898,7.0898,7.0898,7.0898,7.0871,7.082,7.0748,7.0658,7.0604,7.0487,7.0392,7.0392,7.0392,7.0392,7.0392,7.0392,7.0008,6.9134,6.8154,6.7191,6.6263,6.3985,6.2793,6.2793,6.2793,6.2743,6.2641,6.248,6.2349,6.2243,6.2073,6.201,6.201,6.201,6.201,6.201,6.201,6.201,6.201,6.201,6.201,6.201,6.201,6.201,6.178,6.0264,5.901,5.7962,5.7275,5.6891,5.6699,5.6699,5.6699,5.6699,5.6699,5.6699,5.6699,5.6699,5.6448,5.6216,5.6216,5.6216,5.6266,5.6432,5.6448,5.6288,5.57,5.4881,5.3976,5.3058,5.2124,5.1433,5.1238,5.1097,5.0955,5.0751,5.0618,5.0418,5.0062,4.9829,4.9693,4.9693,4.9693,4.9693,4.9693,4.9693,4.9693,4.9693,4.9693,4.9693,4.9693,4.9693,4.9693,4.9693,4.9693,4.9693,4.9722,5.0245,5.0201,4.9766,5.0917,5.1135,5.0753,5.1352,5.1588,5.1646,5.2165,5.2394,5.2452,5.292,5.2789,5.2321,7.0898,7.0898,7.0898,7.0898,7.0898,7.0898,7.0898,7.0871,7.0836,7.0794,7.0703,7.0632,7.0604,7.0487,7.0392,7.0392,7.0392,7.0392,7.0392,7.0392,7.0008,6.9134,6.8331,6.746,6.652,6.4848,6.3802,6.3429,6.3429,6.3133,6.2603,6.2449,6.2336,6.219,6.206,6.201,6.201,6.201,6.201,6.201,6.201,6.201,6.201,6.201,6.201,6.201,6.201,6.1794,6.1347,6.0123,5.9078,5.8143,5.7258,5.6853,5.6699,5.6699,5.6699,5.6699,5.6699,5.6699,5.6699,5.6699,5.6699,5.6699,5.6699,5.6699,5.6699,5.6699,5.6699,5.6547,5.6063,5.4881,5.3826,5.3343,5.2101,5.1191,5.1191,5.1097,5.0964,5.0831,5.0704,5.0567,5.0318,5.0159,5.0038,4.9902,4.9878,4.9829,4.9693,4.9693,4.9693,4.9693,4.9693,4.9693,4.9693,5.0027,5.0172,5.0172,4.9853,4.9867,5.0187,5.0535,5.0666,5.0656,5.1643,5.1915,5.1653,5.2267,5.2502,5.2531,5.2891,5.2859,5.2641,5.296,5.2496,5.1639,7.0898,7.0898,7.0898,7.0898,7.0898,7.0898,7.0898,7.0836,7.0806,7.0772,7.0678,7.0588,7.0573,7.047,7.0392,7.0392,7.0392,7.0392,7.0392,7.0392,7.0008,6.9134,6.8463,6.7665,6.6722,6.6054,6.5246,6.431,6.4279,6.3823,6.2967,6.2701,6.2497,6.2363,6.2101,6.201,6.201,6.201,6.201,6.201,6.201,6.201,6.201,6.201,6.201,6.201,6.201,6.1636,6.1034,6.0139,5.9245,5.8337,5.7409,5.6949,5.6699,5.6699,5.6699,5.6699,5.6699,5.6699,5.6699,5.6699,5.6699,5.6699,5.6699,5.6699,5.6699,5.6699,5.6699,5.6641,5.6489,5.5247,5.4126,5.3805,5.2448,5.1386,5.1214,5.1011,5.0855,5.0855,5.0686,5.0558,5.0558,5.0525,5.0405,5.0183,5.0159,5.0062,4.9854,4.9805,4.9781,4.9781,4.9781,4.98,4.9867,5.0469,5.0778,5.0855,5.0303,5.0332,5.0869,5.0971,5.1247,5.1632,5.2412,5.2699,5.2641,5.3254,5.3457,5.3355,5.3355,5.2963,5.2423,5.2307,5.161,5.0681,7.0898,7.0898,7.0898,7.0898,7.0898,7.0898,7.0898,7.0836,7.0784,7.0718,7.0647,7.0554,7.0435,7.0419,7.0392,7.0392,7.0392,7.0392,7.0392,7.0392,7.0008,6.9134,6.8997,6.8493,6.7562,6.7425,6.6641,6.5141,6.4964,6.4759,6.447,6.3661,6.3185,6.3043,6.2313,6.201,6.201,6.201,6.201,6.201,6.201,6.201,6.201,6.201,6.201,6.201,6.201,6.1937,6.1706,6.0732,5.9883,5.9077,5.8015,5.7237,5.6699,5.6699,5.6699,5.6699,5.6699,5.6699,5.6699,5.6699,5.6699,5.6699,5.6699,5.6699,5.6699,5.6699,5.6699,5.645,5.5652,5.5276,5.4616,5.3042,5.2583,5.2124,5.1308,5.1167,5.1144,5.1144,5.0917,5.0775,5.0775,5.0591,5.0477,5.0453,5.0453,5.0429,5.039,5.0159,5.0062,5.0062,5.0062,5.0218,5.0564,5.0835,5.1131,5.1472,5.1385,5.1385,5.1512,5.2089,5.2064,5.1661,5.2876,5.308,5.2641,5.3254,5.3196,5.2728,5.2728,5.231,5.1672,5.116,5.084,5.0622,7.0898,7.0898,7.0898,7.0898,7.0898,7.0885,7.0843,7.0799,7.0718,7.0655,7.0542,7.047,7.0419,7.0392,7.0392,7.0392,7.0392,7.0392,7.0392,7.0392,7.0008,6.9134,6.9091,6.8661,6.7727,6.77,6.733,6.6521,6.596,6.5377,6.479,6.4294,6.3756,6.3178,6.282,6.2408,6.201,6.201,6.201,6.201,6.201,6.201,6.201,6.201,6.201,6.201,6.201,6.201,6.1868,6.0927,6.0155,5.9378,5.8249,5.7429,5.6834,5.6719,5.6699,5.6699,5.6699,5.6699,5.6699,5.6699,5.6699,5.6699,5.6699,5.6699,5.6699,5.6699,5.6699,5.6567,5.6162,5.5636,5.4886,5.3589,5.2947,5.2268,5.1316,5.1191,5.1191,5.1191,5.1097,5.1011,5.1011,5.0932,5.0828,5.0671,5.0671,5.0614,5.0501,5.039,5.0504,5.0871,5.0701,5.0861,5.1404,5.1743,5.2078,5.2395,5.2705,5.2639,5.2165,5.2467,5.2626,5.2676,5.3268,5.3152,5.2638,5.3032,5.2847,5.2249,5.2249,5.1795,5.1004,5.039,5.0143,5.01]}]]